Darstellungsparameter: Aktuell verwendete Einstellungen:
Skalierung der Graphiken ... ?
xyx+y,   Skalierungsfaktor:      Skalierung: Modus: x, Faktor: 1
Darstellungszeitraum ... ?
Vom - - bis: - -   Zeitraum: 05.07.2014 - 04.07.2015
Min/Max/Avg-Anzeige ... ?
Zeige MMA aktuell
Zeige MMA Monat
Zeige MMA alles
Zeige --A aktuell
Zeige --A Monat
Zeige --A alles
Keine MMA-Anzeige
MMA:
Average (ber die Originaldaten)
MMA-Basis: 23.02.2003 - 03.08.2020
Quicknavigation für Darstellung... ?
Tage:      1T, 2T, 3T, 5T -1T -2T -3T -5T +1T +2T +3T +5T
Wochen: 1W, 2W, 3W -1W -2W -3W +1W +2W +3W
Monate: 1M, 3M, 6M -1M -3M -6M +1M +3M +6M
Jahre:    1J, 3J, 5J, 10J -1J -3J -5J -10J +1J +3J +5J +10J
Nutze für die Darstellung ... ?
Originaldaten oder ...
Mittelwerte Minima Maxima auf...
Stundenbasis Tagesbasis Wochenbasis
Monatsbasis Jahresbasis      Datenbasis: Mittelwerte auf Stundenbasis
Darstellen als:
Statistik (Auto) Statistik J:M      Darstellung:
Zur Graphik,    zurück zur Übersicht aller Sensoren.
 
Tabellarische Datenbersicht: ?
 
Sensor: Nr:Datum:Temp:Abs-Feuchte:Windchill:Wind:
Aussen-T/F 1 05-07-2014 00:00:00 19.76667 C 12.77 g/m*3 19.77 C 0.53333 km/h
2 05-07-2014 01:00:00 19.58333 C 12.76 g/m*3 19.58 C 0.8 km/h
3 05-07-2014 02:00:00 18.84167 C 12.61 g/m*3 18.84 C 0.4 km/h
4 05-07-2014 03:00:00 18.675 C 12.51 g/m*3 18.68 C 2.26667 km/h
5 05-07-2014 04:00:00 18.44167 C 12.27 g/m*3 18.44 C 0.8 km/h
6 05-07-2014 05:00:00 18.21667 C 12.25 g/m*3 18.22 C 1.46667 km/h
7 05-07-2014 06:00:00 18.03333 C 12.35 g/m*3 18.03 C 0.53333 km/h
8 05-07-2014 07:00:00 18.56667 C 12.84 g/m*3 18.57 C 1.86667 km/h
9 05-07-2014 08:00:00 20.28333 C 13.46 g/m*3 20.28 C 7.78333 km/h
10 05-07-2014 09:00:00 20.68333 C 13.89 g/m*3 20.68 C 7.10833 km/h
11 05-07-2014 10:00:00 22.49167 C 13.78 g/m*3 22.49 C 13.7 km/h
12 05-07-2014 11:00:00 22.825 C 12.82 g/m*3 22.83 C 13.7 km/h
13 05-07-2014 12:00:00 21.25833 C 13.85 g/m*3 21.26 C 6.04167 km/h
14 05-07-2014 13:00:00 20.57273 C 14.62 g/m*3 20.57 C 3.05455 km/h
15 05-07-2014 14:00:00 20.57 C 15.06 g/m*3 20.57 C 8.07 km/h
16 05-07-2014 15:00:00 21.23333 C 14.76 g/m*3 21.23 C 8.6 km/h
17 05-07-2014 16:00:00 21.825 C 14.55 g/m*3 21.83 C 13.3 km/h
18 05-07-2014 17:00:00 22.45 C 14.52 g/m*3 22.45 C 13.15833 km/h
19 05-07-2014 18:00:00 22.26667 C 14.49 g/m*3 22.27 C 12.9 km/h
20 05-07-2014 19:00:00 21.43333 C 14.57 g/m*3 21.43 C 8.86667 km/h
21 05-07-2014 20:00:00 21.075 C 14.63 g/m*3 21.08 C 8.31667 km/h
22 05-07-2014 21:00:00 20.55 C 14.47 g/m*3 20.55 C 5.625 km/h
23 05-07-2014 22:00:00 20.25 C 14.37 g/m*3 20.25 C 5.5 km/h
24 05-07-2014 23:00:00 19.75 C 14.48 g/m*3 19.75 C 0.93333 km/h
25 06-07-2014 00:00:00 18.96667 C 14.34 g/m*3 18.97 C 0 km/h
Sensor: Nr:Datum:Temp:Abs-Feuchte:Windchill:Wind:
Aussen-T/F 26 06-07-2014 01:00:00 18.24167 C 14.11 g/m*3 18.24 C 0 km/h
27 06-07-2014 02:00:00 18.1 C 14.14 g/m*3 18.1 C 0 km/h
28 06-07-2014 03:00:00 18.125 C 14.16 g/m*3 18.13 C 0 km/h
29 06-07-2014 04:00:00 18.05 C 14.1 g/m*3 18.05 C 0.13333 km/h
30 06-07-2014 05:00:00 18 C 14.31 g/m*3 18 C 0.13333 km/h
31 06-07-2014 06:00:00 17.93333 C 14.39 g/m*3 17.93 C 0.53333 km/h
32 06-07-2014 07:00:00 19.43333 C 15 g/m*3 19.43 C 2.80833 km/h
33 06-07-2014 08:00:00 21.675 C 15.51 g/m*3 21.68 C 3.33333 km/h
34 06-07-2014 09:00:00 22.96667 C 15.21 g/m*3 22.97 C 4.825 km/h
35 06-07-2014 10:00:00 24.625 C 15.18 g/m*3 24.63 C 8.34167 km/h
36 06-07-2014 11:00:00 26.3 C 14.75 g/m*3 26.3 C 9.95 km/h
37 06-07-2014 12:00:00 27.11667 C 14.14 g/m*3 27.12 C 9.4 km/h
38 06-07-2014 13:00:00 28.09167 C 13.62 g/m*3 28.09 C 11.29167 km/h
39 06-07-2014 14:00:00 28.66667 C 13.4 g/m*3 28.67 C 9.94167 km/h
40 06-07-2014 15:00:00 29.2 C 12.92 g/m*3 29.2 C 10.35833 km/h
41 06-07-2014 16:00:00 30.04167 C 13.85 g/m*3 30.04 C 11.69167 km/h
42 06-07-2014 17:00:00 31.19167 C 13.31 g/m*3 31.19 C 11.95833 km/h
43 06-07-2014 18:00:00 30.70833 C 12.97 g/m*3 30.71 C 9.81667 km/h
44 06-07-2014 19:00:00 29.45 C 13.56 g/m*3 29.45 C 5.89167 km/h
45 06-07-2014 20:00:00 25.05833 C 12.93 g/m*3 25.06 C 13.53333 km/h
46 06-07-2014 21:00:00 19.975 C 13.07 g/m*3 19.98 C 10.85833 km/h
47 06-07-2014 22:00:00 17.76364 C 13.92 g/m*3 17.76 C 0.43636 km/h
48 07-07-2014 01:00:00 17.825 C 14.06 g/m*3 17.83 C 1.8 km/h
49 07-07-2014 02:00:00 17.24286 C 13.38 g/m*3 17.24 C 8.31429 km/h
50 07-07-2014 03:00:00 16.55833 C 12.68 g/m*3 16.56 C 4.81667 km/h
Sensor: Nr:Datum:Temp:Abs-Feuchte:Windchill:Wind:
Aussen-T/F 51 07-07-2014 04:00:00 15.61667 C 12.23 g/m*3 15.62 C 1.33333 km/h
52 07-07-2014 05:00:00 14.58333 C 11.67 g/m*3 14.58 C 0.26667 km/h
53 07-07-2014 06:00:00 14.36667 C 11.66 g/m*3 14.37 C 0.13333 km/h
54 07-07-2014 07:00:00 15.375 C 11.81 g/m*3 15.38 C 0 km/h
55 07-07-2014 08:00:00 15.86667 C 11.76 g/m*3 15.87 C 0.26667 km/h
56 07-07-2014 09:00:00 16.78333 C 10.06 g/m*3 16.78 C 5.35 km/h
57 07-07-2014 10:00:00 18.09167 C 10.08 g/m*3 18.09 C 5.35833 km/h
58 07-07-2014 11:00:00 19.5 C 9.45 g/m*3 19.5 C 5.75833 km/h
59 07-07-2014 12:00:00 21.10833 C 9.51 g/m*3 21.11 C 6.56667 km/h
60 07-07-2014 13:00:00 21.78333 C 9.7 g/m*3 21.78 C 5.475 km/h
61 07-07-2014 14:00:00 22.98333 C 9.57 g/m*3 22.98 C 7.10833 km/h
62 07-07-2014 15:00:00 23.94167 C 9.04 g/m*3 23.94 C 7.51667 km/h
63 07-07-2014 16:00:00 24.24167 C 8.68 g/m*3 24.24 C 9.14167 km/h
64 07-07-2014 17:00:00 25.38333 C 9.17 g/m*3 25.38 C 10.225 km/h
65 07-07-2014 18:00:00 26.05 C 9.34 g/m*3 26.05 C 8.45833 km/h
66 07-07-2014 19:00:00 24.98333 C 9.45 g/m*3 24.98 C 8.05833 km/h
67 07-07-2014 20:00:00 23.23333 C 9.95 g/m*3 23.23 C 6.3 km/h
68 07-07-2014 21:00:00 20.96667 C 10.89 g/m*3 20.97 C 0.4 km/h
69 07-07-2014 22:00:00 19.325 C 11.03 g/m*3 19.33 C 0.26667 km/h
70 07-07-2014 23:00:00 19.28333 C 11.09 g/m*3 19.28 C 1.74167 km/h
71 08-07-2014 00:00:00 18.8 C 11.03 g/m*3 18.8 C 0.66667 km/h
72 08-07-2014 01:00:00 18.25833 C 11.15 g/m*3 18.26 C 1.075 km/h
73 08-07-2014 02:00:00 17.88333 C 11.41 g/m*3 17.88 C 0 km/h
74 08-07-2014 03:00:00 17.1 C 12.06 g/m*3 17.1 C 0.8 km/h
75 08-07-2014 04:00:00 15.13333 C 12.28 g/m*3 15.13 C 4.83333 km/h
Sensor: Nr:Datum:Temp:Abs-Feuchte:Windchill:Wind:
Aussen-T/F 76 08-07-2014 05:00:00 15 C 12.05 g/m*3 15 C 4.26667 km/h
77 08-07-2014 07:00:00 14.81429 C 12.23 g/m*3 14.81 C 2.05714 km/h
78 08-07-2014 08:00:00 15.04167 C 12.26 g/m*3 15.04 C 4.01667 km/h
79 08-07-2014 09:00:00 15.35 C 12.47 g/m*3 15.35 C 3.33333 km/h
80 08-07-2014 10:00:00 15.50833 C 12.49 g/m*3 15.51 C 6.85833 km/h
81 08-07-2014 11:00:00 15.49167 C 12.55 g/m*3 15.49 C 3.475 km/h
82 08-07-2014 12:00:00 15.575 C 12.63 g/m*3 15.58 C 1.6 km/h
83 08-07-2014 13:00:00 15.71667 C 12.72 g/m*3 15.72 C 2.93333 km/h
84 08-07-2014 14:00:00 15.84167 C 12.69 g/m*3 15.84 C 3.6 km/h
85 08-07-2014 15:00:00 15.76667 C 12.52 g/m*3 15.77 C 4.14167 km/h
86 08-07-2014 16:00:00 15.70909 C 12.45 g/m*3 15.71 C 4.37273 km/h
87 08-07-2014 17:00:00 15.76667 C 12.14 g/m*3 15.77 C 14.76667 km/h
88 08-07-2014 18:00:00 15.50833 C 11.84 g/m*3 15.51 C 13.95833 km/h
89 08-07-2014 19:00:00 15.05 C 11.53 g/m*3 15.05 C 13.3 km/h
90 08-07-2014 20:00:00 14.48333 C 11.24 g/m*3 14.48 C 13.56667 km/h
91 08-07-2014 21:00:00 13.63333 C 10.83 g/m*3 13.63 C 10.75 km/h
92 08-07-2014 22:00:00 13.30833 C 10.87 g/m*3 13.31 C 4.95 km/h
93 08-07-2014 23:00:00 13.15833 C 10.86 g/m*3 13.16 C 4.66667 km/h
94 09-07-2014 00:00:00 12.975 C 10.68 g/m*3 12.98 C 7.10833 km/h
95 09-07-2014 01:00:00 12.64167 C 10.42 g/m*3 12.64 C 6.44167 km/h
96 09-07-2014 02:00:00 12.15833 C 10.12 g/m*3 12.16 C 6.18333 km/h
97 09-07-2014 03:00:00 11.74167 C 9.87 g/m*3 11.74 C 3.74167 km/h
98 09-07-2014 04:00:00 11.71667 C 9.95 g/m*3 11.72 C 5.09167 km/h
99 09-07-2014 05:00:00 11.86667 C 10.04 g/m*3 11.87 C 3.33333 km/h
100 09-07-2014 06:00:00 11.94167 C 10.07 g/m*3 11.94 C 6.29167 km/h
Sensor: Nr:Datum:Temp:Abs-Feuchte:Windchill:Wind:
Aussen-T/F 101 09-07-2014 07:00:00 11.825 C 9.96 g/m*3 11.83 C 4.95 km/h
102 09-07-2014 08:00:00 11.83333 C 10.07 g/m*3 11.83 C 4.41667 km/h
103 09-07-2014 09:00:00 12.125 C 10.24 g/m*3 12.13 C 4.94167 km/h
104 09-07-2014 10:00:00 12.33333 C 10.4 g/m*3 12.33 C 2.94167 km/h
105 09-07-2014 11:00:00 12.66667 C 10.66 g/m*3 12.67 C 6.43333 km/h
106 09-07-2014 12:00:00 13.125 C 10.86 g/m*3 13.13 C 7.25833 km/h
107 09-07-2014 13:00:00 13.35833 C 11.01 g/m*3 13.36 C 6.98333 km/h
108 09-07-2014 14:00:00 13.775 C 11.24 g/m*3 13.78 C 7.36667 km/h
109 09-07-2014 15:00:00 13.98333 C 11.42 g/m*3 13.98 C 8.2 km/h
110 09-07-2014 16:00:00 14.00833 C 11.46 g/m*3 14.01 C 8.6 km/h
111 09-07-2014 17:00:00 13.95 C 11.42 g/m*3 13.95 C 6.575 km/h
112 09-07-2014 18:00:00 13.96667 C 11.44 g/m*3 13.97 C 3.475 km/h
113 09-07-2014 19:00:00 13.9 C 11.44 g/m*3 13.9 C 2.93333 km/h
114 09-07-2014 20:00:00 13.975 C 11.56 g/m*3 13.98 C 0.93333 km/h
115 09-07-2014 21:00:00 13.9 C 11.55 g/m*3 13.9 C 0.4 km/h
116 09-07-2014 22:00:00 13.8 C 11.56 g/m*3 13.8 C 0 km/h
117 09-07-2014 23:00:00 13.73333 C 11.51 g/m*3 13.73 C 0 km/h
118 10-07-2014 00:00:00 13.71667 C 11.5 g/m*3 13.72 C 0 km/h
119 10-07-2014 01:00:00 13.7 C 11.59 g/m*3 13.7 C 0 km/h
120 10-07-2014 02:00:00 13.70833 C 11.61 g/m*3 13.71 C 0 km/h
121 10-07-2014 03:00:00 13.8 C 11.68 g/m*3 13.8 C 0 km/h
122 10-07-2014 04:00:00 13.8 C 11.68 g/m*3 13.8 C 0 km/h
123 10-07-2014 05:00:00 13.69167 C 11.6 g/m*3 13.69 C 0.13333 km/h
124 10-07-2014 06:00:00 13.75833 C 11.65 g/m*3 13.76 C 0 km/h
125 10-07-2014 07:00:00 14.24167 C 12 g/m*3 14.24 C 0 km/h
Sensor: Nr:Datum:Temp:Abs-Feuchte:Windchill:Wind:
Aussen-T/F 126 10-07-2014 08:00:00 14.4 C 12.11 g/m*3 14.4 C 0 km/h
127 10-07-2014 11:00:00 17.86667 C 13.18 g/m*3 17.87 C 5.08333 km/h
128 10-07-2014 12:00:00 18.49167 C 13.63 g/m*3 18.49 C 3.88333 km/h
129 10-07-2014 13:00:00 20.06667 C 14.24 g/m*3 20.07 C 6.025 km/h
130 10-07-2014 14:00:00 22.025 C 14.72 g/m*3 22.03 C 5.2125 km/h
131 10-07-2014 15:00:00 23.625 C 15.39 g/m*3 23.63 C 6.83333 km/h
132 10-07-2014 16:00:00 23.575 C 15.61 g/m*3 23.58 C 6.18333 km/h
133 10-07-2014 17:00:00 23.61667 C 16.14 g/m*3 23.62 C 5.9 km/h
134 10-07-2014 18:00:00 21.15 C 16.71 g/m*3 21.15 C 2.95 km/h
135 10-07-2014 19:00:00 21.33636 C 17.86 g/m*3 21.34 C 2.91818 km/h
136 10-07-2014 20:00:00 21.71667 C 16.74 g/m*3 21.72 C 4.01667 km/h
137 10-07-2014 21:00:00 19.7 C 14.5 g/m*3 19.7 C 7.525 km/h
138 10-07-2014 22:00:00 16.68333 C 13.32 g/m*3 16.68 C 3.2 km/h
139 10-07-2014 23:00:00 16.3 C 13.25 g/m*3 16.3 C 3.75 km/h
140 11-07-2014 00:00:00 15.89167 C 12.94 g/m*3 15.89 C 1.06667 km/h
141 11-07-2014 01:00:00 15.23333 C 12.51 g/m*3 15.23 C 0 km/h
142 11-07-2014 02:00:00 14.75 C 12.25 g/m*3 14.75 C 0 km/h
143 11-07-2014 03:00:00 14.35833 C 11.96 g/m*3 14.36 C 0 km/h
144 11-07-2014 04:00:00 14.15833 C 11.81 g/m*3 14.16 C 0 km/h
145 11-07-2014 05:00:00 14.41667 C 12.13 g/m*3 14.42 C 0 km/h
146 11-07-2014 06:00:00 15.28333 C 12.78 g/m*3 15.28 C 0.13333 km/h
147 11-07-2014 07:00:00 15.54167 C 12.99 g/m*3 15.54 C 0.53333 km/h
148 11-07-2014 08:00:00 16.4 C 13.68 g/m*3 16.4 C 0.66667 km/h
149 11-07-2014 09:00:00 16.85 C 14.05 g/m*3 16.85 C 0 km/h
150 11-07-2014 10:00:00 17.28571 C 14.42 g/m*3 17.29 C 3.88571 km/h
Sensor: Nr:Datum:Temp:Abs-Feuchte:Windchill:Wind:
Aussen-T/F 151 11-07-2014 11:00:00 18.6 C 14.64 g/m*3 18.6 C 6.76 km/h
152 11-07-2014 12:00:00 19.40833 C 14.91 g/m*3 19.41 C 5.63333 km/h
153 11-07-2014 13:00:00 20.775 C 15.2 g/m*3 20.78 C 6.84167 km/h
154 11-07-2014 14:00:00 21.68333 C 15.02 g/m*3 21.68 C 7.775 km/h
155 11-07-2014 15:00:00 22.6 C 15.07 g/m*3 22.6 C 7.87778 km/h
156 11-07-2014 16:00:00 24.025 C 15.96 g/m*3 24.03 C 9.3 km/h
157 11-07-2014 18:00:00 23.9 C 15.4 g/m*3 23.9 C 8.06667 km/h
158 11-07-2014 19:00:00 23.70833 C 15.18 g/m*3 23.71 C 9.3 km/h
159 11-07-2014 20:00:00 22.8 C 15.47 g/m*3 22.8 C 8.8625 km/h
160 11-07-2014 21:00:00 21.75833 C 15.12 g/m*3 21.76 C 7.38333 km/h
161 11-07-2014 22:00:00 20.63333 C 14.64 g/m*3 20.63 C 5.49167 km/h
162 11-07-2014 23:00:00 19.55 C 14.27 g/m*3 19.55 C 2.93333 km/h
163 12-07-2014 00:00:00 18.675 C 14.35 g/m*3 18.68 C 0 km/h
164 12-07-2014 01:00:00 18.09167 C 14.23 g/m*3 18.09 C 0 km/h
165 12-07-2014 02:00:00 17.73333 C 14.07 g/m*3 17.73 C 0.4 km/h
166 12-07-2014 03:00:00 18.175 C 13.8 g/m*3 18.18 C 4.01667 km/h
167 12-07-2014 04:00:00 18.16667 C 13.81 g/m*3 18.17 C 4.14167 km/h
168 12-07-2014 05:00:00 18.13333 C 13.71 g/m*3 18.13 C 6.7 km/h
169 12-07-2014 06:00:00 18.03333 C 13.8 g/m*3 18.03 C 5.89167 km/h
170 12-07-2014 07:00:00 17.84167 C 13.85 g/m*3 17.84 C 4.28333 km/h
171 12-07-2014 08:00:00 17.75 C 13.82 g/m*3 17.75 C 5.625 km/h
172 12-07-2014 09:00:00 17.86364 C 13.7 g/m*3 17.86 C 6.13636 km/h
173 12-07-2014 12:00:00 18.4 C 14.47 g/m*3 18.4 C 4.8 km/h
174 12-07-2014 13:00:00 19.09167 C 14.5 g/m*3 19.09 C 7.38333 km/h
175 12-07-2014 14:00:00 19.34167 C 14.34 g/m*3 19.34 C 8.34167 km/h
Sensor: Nr:Datum:Temp:Abs-Feuchte:Windchill:Wind:
Aussen-T/F 176 12-07-2014 15:00:00 20.36667 C 14.42 g/m*3 20.37 C 9.51111 km/h
177 12-07-2014 16:00:00 19.10833 C 14.47 g/m*3 19.11 C 5.61667 km/h
178 12-07-2014 18:00:00 21.82857 C 14.74 g/m*3 21.83 C 7.82857 km/h
179 12-07-2014 19:00:00 21.15 C 14.38 g/m*3 21.15 C 7.78333 km/h
180 12-07-2014 20:00:00 19.93333 C 14.35 g/m*3 19.93 C 5.61667 km/h
181 12-07-2014 21:00:00 19.275 C 13.94 g/m*3 19.27 C 4.80833 km/h
182 12-07-2014 22:00:00 18.375 C 13.87 g/m*3 18.38 C 2.55833 km/h
183 12-07-2014 23:00:00 17.65833 C 13.83 g/m*3 17.66 C 0.26667 km/h
184 13-07-2014 00:00:00 17.2 C 13.69 g/m*3 17.2 C 0 km/h
185 13-07-2014 01:00:00 16.8 C 13.46 g/m*3 16.8 C 0 km/h
186 13-07-2014 02:00:00 16.775 C 13.56 g/m*3 16.77 C 0 km/h
187 13-07-2014 03:00:00 16.8 C 13.58 g/m*3 16.8 C 0 km/h
188 13-07-2014 04:00:00 16.63333 C 13.45 g/m*3 16.63 C 0 km/h
189 13-07-2014 05:00:00 16.55833 C 13.35 g/m*3 16.56 C 0 km/h
190 13-07-2014 06:00:00 16.9 C 13.18 g/m*3 16.9 C 2.54167 km/h
191 13-07-2014 07:00:00 16.4 C 13.12 g/m*3 16.4 C 1.6 km/h
192 13-07-2014 09:00:00 17.525 C 13.81 g/m*3 17.52 C 8.9 km/h
193 13-07-2014 10:00:00 17.70833 C 13.75 g/m*3 17.71 C 8.19167 km/h
194 13-07-2014 11:00:00 18.64167 C 14.17 g/m*3 18.64 C 5.75833 km/h
195 13-07-2014 12:00:00 20.41667 C 14.27 g/m*3 20.42 C 10.76667 km/h
196 13-07-2014 13:00:00 21.10833 C 14.22 g/m*3 21.11 C 11.15 km/h
197 13-07-2014 14:00:00 22.51667 C 14.23 g/m*3 22.52 C 17.43333 km/h
198 13-07-2014 15:00:00 22.43333 C 13.86 g/m*3 22.43 C 9.125 km/h
199 13-07-2014 16:00:00 21.25833 C 14.97 g/m*3 21.26 C 3.48333 km/h
200 13-07-2014 17:00:00 22 C 15.1 g/m*3 22 C 5.01111 km/h
Sensor: Nr:Datum:Temp:Abs-Feuchte:Windchill:Wind:
Aussen-T/F 201 13-07-2014 18:00:00 22.50833 C 14.49 g/m*3 22.51 C 13.96667 km/h
202 13-07-2014 19:00:00 20.63333 C 14.26 g/m*3 20.63 C 11.69167 km/h
203 13-07-2014 20:00:00 19.71667 C 14.07 g/m*3 19.72 C 9.80833 km/h
204 13-07-2014 21:00:00 19.16667 C 14.01 g/m*3 19.17 C 7.5 km/h
205 13-07-2014 22:00:00 18.57273 C 13.75 g/m*3 18.57 C 6.28182 km/h
206 13-07-2014 23:00:00 18.675 C 13.85 g/m*3 18.68 C 6.84167 km/h
207 14-07-2014 00:00:00 18.30833 C 13.77 g/m*3 18.31 C 4.15 km/h
208 14-07-2014 01:00:00 17.4 C 13.63 g/m*3 17.4 C 2.4 km/h
209 14-07-2014 02:00:00 17.625 C 13.78 g/m*3 17.63 C 3.73333 km/h
210 14-07-2014 03:00:00 17.73333 C 13.88 g/m*3 17.73 C 4.55 km/h
211 14-07-2014 04:00:00 17.67143 C 13.56 g/m*3 17.67 C 2.05714 km/h
212 14-07-2014 06:00:00 15 C 11.73 g/m*3 15 C 0 km/h
213 14-07-2014 07:00:00 15.54167 C 12.21 g/m*3 15.54 C 2 km/h
214 14-07-2014 08:00:00 17.5 C 12.32 g/m*3 17.5 C 5.625 km/h
215 14-07-2014 09:00:00 18.41667 C 12.14 g/m*3 18.42 C 9.15 km/h
216 14-07-2014 10:00:00 20.11667 C 12.57 g/m*3 20.12 C 10.75833 km/h
217 14-07-2014 11:00:00 20.73333 C 12.9 g/m*3 20.73 C 6.15833 km/h
218 14-07-2014 12:00:00 22.125 C 12.95 g/m*3 22.13 C 10.1 km/h
219 14-07-2014 13:00:00 22.7 C 13.17 g/m*3 22.7 C 7.78333 km/h
220 14-07-2014 14:00:00 22.18333 C 13.81 g/m*3 22.18 C 6.58333 km/h
221 14-07-2014 15:00:00 21.90833 C 14 g/m*3 21.91 C 10.74167 km/h
222 14-07-2014 16:00:00 20.76667 C 13.87 g/m*3 20.77 C 10.35 km/h
223 14-07-2014 17:00:00 21.45833 C 13.73 g/m*3 21.46 C 9.00833 km/h
224 14-07-2014 18:00:00 21.66667 C 13.8 g/m*3 21.67 C 6.55 km/h
225 14-07-2014 19:00:00 22.35833 C 13.69 g/m*3 22.36 C 5.08333 km/h
Sensor: Nr:Datum:Temp:Abs-Feuchte:Windchill:Wind:
Aussen-T/F 226 14-07-2014 20:00:00 19.80833 C 14.26 g/m*3 19.81 C 0.13333 km/h
227 14-07-2014 21:00:00 18.175 C 13.79 g/m*3 18.18 C 0 km/h
228 14-07-2014 22:00:00 17.3 C 13.41 g/m*3 17.3 C 0.13333 km/h
229 14-07-2014 23:00:00 16.7625 C 13.12 g/m*3 16.76 C 0 km/h
230 15-07-2014 06:00:00 13.77778 C 11.48 g/m*3 13.78 C 0.35556 km/h
231 15-07-2014 07:00:00 14.43333 C 12.02 g/m*3 14.43 C 1.33333 km/h
232 15-07-2014 08:00:00 16.28333 C 12.85 g/m*3 16.28 C 4.275 km/h
233 15-07-2014 09:00:00 18.46667 C 13.51 g/m*3 18.47 C 5.875 km/h
234 15-07-2014 10:00:00 20.975 C 13.37 g/m*3 20.98 C 5.9 km/h
235 15-07-2014 11:00:00 22.04167 C 14.04 g/m*3 22.04 C 4.95 km/h
236 15-07-2014 12:00:00 23.425 C 12.41 g/m*3 23.43 C 7.925 km/h
237 15-07-2014 13:00:00 23.825 C 12.66 g/m*3 23.83 C 6.44167 km/h
238 15-07-2014 14:00:00 24.50833 C 12 g/m*3 24.51 C 8.59167 km/h
239 15-07-2014 15:00:00 25.09167 C 11.95 g/m*3 25.09 C 10.225 km/h
240 15-07-2014 16:00:00 25.275 C 12.1 g/m*3 25.28 C 7.53333 km/h
241 15-07-2014 17:00:00 25.24167 C 12.41 g/m*3 25.24 C 6.16667 km/h
242 15-07-2014 18:00:00 24.625 C 12.55 g/m*3 24.63 C 7.51667 km/h
243 15-07-2014 19:00:00 23.4 C 13.05 g/m*3 23.4 C 4.55 km/h
244 15-07-2014 20:00:00 22.50833 C 13.12 g/m*3 22.51 C 5.63333 km/h
245 15-07-2014 21:00:00 20.7 C 13.86 g/m*3 20.7 C 2.275 km/h
246 15-07-2014 22:00:00 18.71667 C 13.73 g/m*3 18.72 C 0.13333 km/h
247 15-07-2014 23:00:00 18.60833 C 14 g/m*3 18.61 C 0 km/h
248 16-07-2014 00:00:00 18.30833 C 13.99 g/m*3 18.31 C 0 km/h
249 16-07-2014 01:00:00 18.125 C 13.97 g/m*3 18.13 C 0 km/h
250 16-07-2014 02:00:00 17.825 C 13.82 g/m*3 17.83 C 0 km/h
Sensor: Nr:Datum:Temp:Abs-Feuchte:Windchill:Wind:
Aussen-T/F 251 16-07-2014 03:00:00 17.625 C 13.71 g/m*3 17.63 C 0 km/h
252 16-07-2014 04:00:00 17.5 C 13.65 g/m*3 17.5 C 0 km/h
253 16-07-2014 05:00:00 17.41667 C 13.65 g/m*3 17.42 C 0.26667 km/h
254 16-07-2014 06:00:00 17.4 C 13.75 g/m*3 17.4 C 0 km/h
255 16-07-2014 07:00:00 17.6 C 13.95 g/m*3 17.6 C 0 km/h
256 16-07-2014 09:00:00 20.66 C 17.21 g/m*3 20.66 C 0.96 km/h
257 16-07-2014 10:00:00 21.8 C 14.82 g/m*3 21.8 C 2.2 km/h
258 16-07-2014 11:00:00 24.9 C 17.02 g/m*3 24.9 C 4.26667 km/h
259 16-07-2014 12:00:00 24.85 C 14.46 g/m*3 24.85 C 4.55 km/h
260 16-07-2014 13:00:00 25.9 C 13.52 g/m*3 25.9 C 5.34167 km/h
261 16-07-2014 14:00:00 26.475 C 14.25 g/m*3 26.48 C 7.275 km/h
262 16-07-2014 15:00:00 27.4 C 13.68 g/m*3 27.4 C 6.45 km/h
263 16-07-2014 16:00:00 29.04445 C 13.02 g/m*3 29.04 C 5.35556 km/h
264 16-07-2014 17:00:00 29.85 C 12.78 g/m*3 29.85 C 7.8625 km/h
265 16-07-2014 18:00:00 29.38333 C 12.1 g/m*3 29.38 C 5.75833 km/h
266 16-07-2014 19:00:00 27.20833 C 13.86 g/m*3 27.21 C 2.93333 km/h
267 16-07-2014 20:00:00 23.025 C 14.77 g/m*3 23.03 C 0.4 km/h
268 16-07-2014 21:00:00 21.73333 C 14.53 g/m*3 21.73 C 0 km/h
269 16-07-2014 22:00:00 19.44444 C 13.59 g/m*3 19.44 C 0 km/h
270 16-07-2014 23:00:00 18.9 C 13.45 g/m*3 18.9 C 0 km/h
271 17-07-2014 07:00:00 14.84545 C 12.07 g/m*3 14.85 C 0 km/h
272 17-07-2014 08:00:00 17.05833 C 13.1 g/m*3 17.06 C 0 km/h
273 17-07-2014 09:00:00 18.71667 C 13.9 g/m*3 18.72 C 0.26667 km/h
274 17-07-2014 10:00:00 20.45 C 14.64 g/m*3 20.45 C 1.6 km/h
275 17-07-2014 16:00:00 31.44444 C 14.68 g/m*3 31.44 C 5.9 km/h
Sensor: Nr:Datum:Temp:Abs-Feuchte:Windchill:Wind:
Aussen-T/F 276 17-07-2014 17:00:00 31.85833 C 13.49 g/m*3 31.86 C 6.71667 km/h
277 17-07-2014 18:00:00 31.28333 C 14.46 g/m*3 31.28 C 5.35 km/h
278 17-07-2014 19:00:00 27.70833 C 16.77 g/m*3 27.71 C 1.33333 km/h
279 17-07-2014 20:00:00 24.48333 C 15.95 g/m*3 24.48 C 0.8 km/h
280 17-07-2014 21:00:00 22.35 C 15.17 g/m*3 22.35 C 1.33333 km/h
281 17-07-2014 22:00:00 21.31667 C 14.69 g/m*3 21.32 C 0.26667 km/h
282 17-07-2014 23:00:00 20.8 C 14.62 g/m*3 20.8 C 0 km/h
283 18-07-2014 02:00:00 17.3 C 13.15 g/m*3 17.3 C 0 km/h
284 18-07-2014 03:00:00 16.875 C 13 g/m*3 16.88 C 0.13333 km/h
285 18-07-2014 04:00:00 16.6 C 12.86 g/m*3 16.6 C 0 km/h
286 18-07-2014 06:00:00 15.975 C 12.92 g/m*3 15.98 C 0 km/h
287 18-07-2014 07:00:00 16.35833 C 13.13 g/m*3 16.36 C 0 km/h
288 18-07-2014 08:00:00 18.46667 C 14.22 g/m*3 18.47 C 0 km/h
289 18-07-2014 09:00:00 20.21667 C 15.04 g/m*3 20.22 C 0.66667 km/h
290 18-07-2014 10:00:00 21.02 C 15.7 g/m*3 21.02 C 0.96 km/h
291 18-07-2014 13:00:00 30.61667 C 13.38 g/m*3 30.62 C 6.96667 km/h
292 18-07-2014 14:00:00 32.06667 C 13.24 g/m*3 32.07 C 7.24167 km/h
293 18-07-2014 15:00:00 32.3 C 13.03 g/m*3 32.3 C 7.53333 km/h
294 18-07-2014 16:00:00 33.53636 C 13.22 g/m*3 33.54 C 7.76364 km/h
295 18-07-2014 17:00:00 33.875 C 12.67 g/m*3 33.88 C 6.98333 km/h
296 18-07-2014 18:00:00 31.7 C 15.23 g/m*3 31.7 C 3.46667 km/h
297 18-07-2014 19:00:00 28.38333 C 16.18 g/m*3 28.38 C 1.6 km/h
298 18-07-2014 20:00:00 26.65 C 15.4 g/m*3 26.65 C 1.6 km/h
299 18-07-2014 22:00:00 22.58333 C 13.91 g/m*3 22.58 C 1.46667 km/h
300 18-07-2014 23:00:00 22.12222 C 13.01 g/m*3 22.12 C 1.77778 km/h
Sensor: Nr:Datum:Temp:Abs-Feuchte:Windchill:Wind:
Aussen-T/F 301 19-07-2014 07:00:00 16.9 C 12.94 g/m*3 16.9 C 0 km/h
302 19-07-2014 08:00:00 18.89167 C 13.72 g/m*3 18.89 C 0 km/h
303 19-07-2014 09:00:00 20.88 C 14.99 g/m*3 20.88 C 0 km/h
304 19-07-2014 10:00:00 22.875 C 16.02 g/m*3 22.88 C 0 km/h
305 19-07-2014 11:00:00 26.73333 C 16.29 g/m*3 26.73 C 5.225 km/h
306 19-07-2014 12:00:00 30.74167 C 14.07 g/m*3 30.74 C 8.06667 km/h
307 19-07-2014 13:00:00 32.54167 C 12.65 g/m*3 32.54 C 8.06667 km/h
308 19-07-2014 14:00:00 33.23333 C 12.76 g/m*3 33.23 C 10.89167 km/h
309 19-07-2014 15:00:00 34.48333 C 13.56 g/m*3 34.48 C 8.33333 km/h
310 19-07-2014 16:00:00 34.24167 C 13.9 g/m*3 34.24 C 6.85 km/h
311 19-07-2014 17:00:00 31.00833 C 17.26 g/m*3 31.01 C 2.275 km/h
312 19-07-2014 18:00:00 29.91667 C 17.86 g/m*3 29.92 C 1.33333 km/h
313 19-07-2014 19:00:00 28.51667 C 16.86 g/m*3 28.52 C 1.46667 km/h
314 19-07-2014 20:00:00 25.775 C 15.95 g/m*3 25.78 C 1.2 km/h
315 19-07-2014 21:00:00 24.66667 C 15.27 g/m*3 24.67 C 1.33333 km/h
316 19-07-2014 22:00:00 23.85 C 14.78 g/m*3 23.85 C 0.4 km/h
317 19-07-2014 23:00:00 22.85 C 14.67 g/m*3 22.85 C 0 km/h
318 20-07-2014 00:00:00 21.78333 C 14.52 g/m*3 21.78 C 0 km/h
319 20-07-2014 01:00:00 21.15 C 14.31 g/m*3 21.15 C 0.13333 km/h
320 20-07-2014 02:00:00 21 C 14.33 g/m*3 21 C 0.13333 km/h
321 20-07-2014 03:00:00 20.29167 C 14.19 g/m*3 20.29 C 0 km/h
322 20-07-2014 04:00:00 20.2 C 14.19 g/m*3 20.2 C 2.40833 km/h
323 20-07-2014 05:00:00 20.41667 C 14.55 g/m*3 20.42 C 2.26667 km/h
324 20-07-2014 06:00:00 19.19167 C 15 g/m*3 19.19 C 0.66667 km/h
325 20-07-2014 07:00:00 19.04167 C 15.34 g/m*3 19.04 C 1.06667 km/h
Sensor: Nr:Datum:Temp:Abs-Feuchte:Windchill:Wind:
Aussen-T/F 326 20-07-2014 08:00:00 19.80833 C 16.09 g/m*3 19.81 C 1.6 km/h
327 20-07-2014 09:00:00 20.96667 C 17.09 g/m*3 20.97 C 0.26667 km/h
328 20-07-2014 10:00:00 22.35 C 17.72 g/m*3 22.35 C 0.13333 km/h
329 20-07-2014 11:00:00 23.54167 C 18.16 g/m*3 23.54 C 1.06667 km/h
330 20-07-2014 12:00:00 25.7 C 17.42 g/m*3 25.7 C 4.15 km/h
331 20-07-2014 13:00:00 27.93333 C 18.04 g/m*3 27.93 C 2.8 km/h
332 20-07-2014 14:00:00 28.7 C 16.22 g/m*3 28.7 C 5.35 km/h
333 20-07-2014 15:00:00 26.15833 C 17.46 g/m*3 26.16 C 1.06667 km/h
334 20-07-2014 16:00:00 24.54167 C 17.2 g/m*3 24.54 C 2.40833 km/h
335 20-07-2014 17:00:00 24.30833 C 17.91 g/m*3 24.31 C 0.8 km/h
336 20-07-2014 18:00:00 25.15833 C 18.04 g/m*3 25.16 C 0.53333 km/h
337 20-07-2014 19:00:00 23.89167 C 17.15 g/m*3 23.89 C 2.00833 km/h
338 20-07-2014 20:00:00 24.05 C 15.58 g/m*3 24.05 C 8.59167 km/h
339 20-07-2014 21:00:00 22.76667 C 16.09 g/m*3 22.77 C 0.8 km/h
340 20-07-2014 22:00:00 20.91667 C 16.3 g/m*3 20.92 C 0 km/h
341 20-07-2014 23:00:00 20.625 C 16.24 g/m*3 20.63 C 0.13333 km/h
342 21-07-2014 00:00:00 20.58333 C 16.06 g/m*3 20.58 C 0 km/h
343 21-07-2014 01:00:00 20.40833 C 15.74 g/m*3 20.41 C 0 km/h
344 21-07-2014 02:00:00 20.3 C 15.77 g/m*3 20.3 C 0 km/h
345 21-07-2014 03:00:00 20.11667 C 15.69 g/m*3 20.12 C 0 km/h
346 21-07-2014 04:00:00 19.78333 C 15.57 g/m*3 19.78 C 0 km/h
347 21-07-2014 05:00:00 19.56667 C 15.5 g/m*3 19.57 C 0 km/h
348 21-07-2014 06:00:00 19.59167 C 15.51 g/m*3 19.59 C 0 km/h
349 21-07-2014 07:00:00 19.73333 C 15.6 g/m*3 19.73 C 3.21667 km/h
350 21-07-2014 08:00:00 19.13333 C 15.69 g/m*3 19.13 C 0.4 km/h
Sensor: Nr:Datum:Temp:Abs-Feuchte:Windchill:Wind:
Aussen-T/F 351 21-07-2014 09:00:00 19.23333 C 15.98 g/m*3 19.23 C 0.13333 km/h
352 21-07-2014 10:00:00 19.73333 C 16.45 g/m*3 19.73 C 1.06667 km/h
353 21-07-2014 11:00:00 19.975 C 16.52 g/m*3 19.98 C 1.2 km/h
354 21-07-2014 12:00:00 19.64167 C 16.18 g/m*3 19.64 C 9.25 km/h
355 21-07-2014 13:00:00 20.34167 C 16.88 g/m*3 20.34 C 4.28333 km/h
356 21-07-2014 14:00:00 21.04167 C 16.73 g/m*3 21.04 C 8.475 km/h
357 21-07-2014 15:00:00 21.84167 C 16.92 g/m*3 21.84 C 6.85 km/h
358 21-07-2014 16:00:00 22.05833 C 16.47 g/m*3 22.06 C 9.55833 km/h
359 21-07-2014 17:00:00 22.35 C 16.37 g/m*3 22.35 C 14.76667 km/h
360 21-07-2014 18:00:00 21.14167 C 15.53 g/m*3 21.14 C 11.40833 km/h
361 21-07-2014 19:00:00 20.83333 C 15.6 g/m*3 20.83 C 9.28333 km/h
362 21-07-2014 20:00:00 20.61667 C 15.75 g/m*3 20.62 C 5.625 km/h
363 21-07-2014 21:00:00 20.11667 C 15.85 g/m*3 20.12 C 3.74167 km/h
364 21-07-2014 22:00:00 19.6 C 15.83 g/m*3 19.6 C 0 km/h
365 21-07-2014 23:00:00 19.45 C 15.9 g/m*3 19.45 C 0 km/h
366 22-07-2014 00:00:00 19.63333 C 16.11 g/m*3 19.63 C 0.93333 km/h
367 22-07-2014 01:00:00 19.825 C 16.22 g/m*3 19.83 C 3.46667 km/h
368 22-07-2014 02:00:00 20.00833 C 16.25 g/m*3 20.01 C 3.33333 km/h
369 22-07-2014 03:00:00 19.94167 C 16.19 g/m*3 19.94 C 2.675 km/h
370 22-07-2014 04:00:00 19.87 C 16.12 g/m*3 19.87 C 1.12 km/h
371 22-07-2014 08:00:00 20.38 C 16.89 g/m*3 20.38 C 2.56 km/h
372 22-07-2014 09:00:00 21.20833 C 17.2 g/m*3 21.21 C 5.35 km/h
373 22-07-2014 10:00:00 22.11667 C 17.45 g/m*3 22.12 C 6.83333 km/h
374 22-07-2014 11:00:00 22.95 C 17.56 g/m*3 22.95 C 7.11667 km/h
375 22-07-2014 12:00:00 24.80833 C 18.39 g/m*3 24.81 C 6.425 km/h
Sensor: Nr:Datum:Temp:Abs-Feuchte:Windchill:Wind:
Aussen-T/F 376 22-07-2014 13:00:00 26.375 C 18.69 g/m*3 26.38 C 7.125 km/h
377 22-07-2014 14:00:00 25.68333 C 18.2 g/m*3 25.68 C 7.51667 km/h
378 22-07-2014 15:00:00 27.69167 C 18.74 g/m*3 27.69 C 10.63333 km/h
379 22-07-2014 16:00:00 29.13333 C 18.06 g/m*3 29.13 C 10.75833 km/h
380 22-07-2014 17:00:00 28.90833 C 17.79 g/m*3 28.91 C 13.16667 km/h
381 22-07-2014 18:00:00 28.95833 C 17.67 g/m*3 28.96 C 11.7 km/h
382 22-07-2014 19:00:00 27.325 C 17.82 g/m*3 27.33 C 7.11667 km/h
383 22-07-2014 20:00:00 25.06667 C 18.77 g/m*3 25.07 C 1.86667 km/h
384 22-07-2014 21:00:00 22.55833 C 17.1 g/m*3 22.56 C 0.4 km/h
385 22-07-2014 22:00:00 21.66667 C 16.47 g/m*3 21.67 C 0.8 km/h
386 22-07-2014 23:00:00 20.725 C 15.86 g/m*3 20.73 C 0.4 km/h
387 23-07-2014 00:00:00 20.125 C 15.61 g/m*3 20.13 C 0.13333 km/h
388 23-07-2014 01:00:00 19.66667 C 15.35 g/m*3 19.67 C 0 km/h
389 23-07-2014 02:00:00 18.96667 C 14.95 g/m*3 18.97 C 0 km/h
390 23-07-2014 03:00:00 18.3 C 14.68 g/m*3 18.3 C 0 km/h
391 23-07-2014 04:00:00 17.94167 C 14.53 g/m*3 17.94 C 0 km/h
392 23-07-2014 05:00:00 17.56667 C 14.27 g/m*3 17.57 C 0 km/h
393 23-07-2014 06:00:00 17.35 C 14.2 g/m*3 17.35 C 0 km/h
394 23-07-2014 07:00:00 17.875 C 14.71 g/m*3 17.88 C 0 km/h
395 23-07-2014 08:00:00 19.68333 C 15.79 g/m*3 19.68 C 0 km/h
396 23-07-2014 09:00:00 21.14167 C 16.22 g/m*3 21.14 C 0 km/h
397 23-07-2014 10:00:00 23 C 16.56 g/m*3 23 C 0.17778 km/h
398 23-07-2014 11:00:00 25.1 C 17.13 g/m*3 25.1 C 0 km/h
399 23-07-2014 12:00:00 26.30833 C 16.59 g/m*3 26.31 C 3.33333 km/h
400 23-07-2014 13:00:00 28.81667 C 14.12 g/m*3 28.82 C 8.30833 km/h
Sensor: Nr:Datum:Temp:Abs-Feuchte:Windchill:Wind:
Aussen-T/F 401 23-07-2014 14:00:00 29.53333 C 13.18 g/m*3 29.53 C 9.14167 km/h
402 23-07-2014 15:00:00 29.15 C 14.12 g/m*3 29.15 C 7.25833 km/h
403 23-07-2014 16:00:00 29.275 C 13.8 g/m*3 29.28 C 7.4 km/h
404 23-07-2014 17:00:00 30.775 C 13.1 g/m*3 30.78 C 8.475 km/h
405 23-07-2014 18:00:00 30.01667 C 12.62 g/m*3 30.02 C 11.7 km/h
406 23-07-2014 19:00:00 28.29167 C 13.45 g/m*3 28.29 C 6.56667 km/h
407 23-07-2014 20:00:00 24.9 C 15.78 g/m*3 24.9 C 1.2 km/h
408 23-07-2014 21:00:00 22.125 C 14.56 g/m*3 22.13 C 0.53333 km/h
409 23-07-2014 22:00:00 20.70833 C 14 g/m*3 20.71 C 0.66667 km/h
410 23-07-2014 23:00:00 20 C 13.91 g/m*3 20 C 0.53333 km/h
411 24-07-2014 00:00:00 19.34167 C 13.81 g/m*3 19.34 C 0.13333 km/h
412 24-07-2014 01:00:00 18.775 C 13.64 g/m*3 18.77 C 0 km/h
413 24-07-2014 02:00:00 18.13333 C 13.3 g/m*3 18.13 C 0 km/h
414 24-07-2014 03:00:00 17.375 C 12.99 g/m*3 17.38 C 0 km/h
415 24-07-2014 04:00:00 16.71667 C 12.74 g/m*3 16.72 C 0 km/h
416 24-07-2014 05:00:00 16.075 C 12.5 g/m*3 16.08 C 0 km/h
417 24-07-2014 06:00:00 16.1 C 12.61 g/m*3 16.1 C 0 km/h
418 24-07-2014 07:00:00 16.85455 C 13.2 g/m*3 16.85 C 0 km/h
419 24-07-2014 08:00:00 17.3 C 13.26 g/m*3 17.3 C 0 km/h
420 24-07-2014 10:00:00 22.84286 C 13.56 g/m*3 22.84 C 2.51429 km/h
421 24-07-2014 11:00:00 24.90833 C 12.98 g/m*3 24.91 C 5.9 km/h
422 24-07-2014 12:00:00 26.14167 C 12.8 g/m*3 26.14 C 8.86667 km/h
423 24-07-2014 13:00:00 27.40833 C 12.64 g/m*3 27.41 C 9.95 km/h
424 24-07-2014 14:00:00 28.15833 C 12.34 g/m*3 28.16 C 9.675 km/h
425 24-07-2014 15:00:00 25.025 C 12.14 g/m*3 25.03 C 10.875 km/h
Sensor: Nr:Datum:Temp:Abs-Feuchte:Windchill:Wind:
Aussen-T/F 426 24-07-2014 16:00:00 21.59167 C 12.8 g/m*3 21.59 C 5.08333 km/h
427 24-07-2014 17:00:00 21.36667 C 14.16 g/m*3 21.37 C 0.53333 km/h
428 24-07-2014 18:00:00 21.3 C 14.15 g/m*3 21.3 C 3.34167 km/h
429 24-07-2014 19:00:00 21.99167 C 12.53 g/m*3 21.99 C 5.08333 km/h
430 24-07-2014 20:00:00 21.34167 C 11.88 g/m*3 21.34 C 8.05 km/h
431 24-07-2014 21:00:00 18.80833 C 12.07 g/m*3 18.81 C 1.33333 km/h
432 24-07-2014 22:00:00 16.61667 C 11.9 g/m*3 16.62 C 0 km/h
433 24-07-2014 23:00:00 16.45833 C 12.15 g/m*3 16.46 C 0 km/h
434 25-07-2014 00:00:00 16.3625 C 12.86 g/m*3 16.36 C 0 km/h
435 25-07-2014 08:00:00 16.8 C 13.35 g/m*3 16.8 C 0 km/h
436 25-07-2014 09:00:00 17.28333 C 13.71 g/m*3 17.28 C 0 km/h
437 25-07-2014 10:00:00 19.53333 C 14.17 g/m*3 19.53 C 1.46667 km/h
438 25-07-2014 11:00:00 22.43333 C 14.51 g/m*3 22.43 C 3.88333 km/h
439 25-07-2014 12:00:00 23.625 C 13.99 g/m*3 23.63 C 5.63333 km/h
440 25-07-2014 13:00:00 25.05833 C 13.91 g/m*3 25.06 C 7.525 km/h
441 25-07-2014 14:00:00 26.25833 C 13.21 g/m*3 26.26 C 8.61667 km/h
442 25-07-2014 15:00:00 23.7 C 14.76 g/m*3 23.7 C 1.46667 km/h
443 25-07-2014 16:00:00 25.11667 C 13.63 g/m*3 25.12 C 4.4 km/h
444 25-07-2014 17:00:00 23.16667 C 14.34 g/m*3 23.17 C 3.21111 km/h
445 25-07-2014 18:00:00 25.45 C 18.77 g/m*3 25.45 C 5.6 km/h
446 25-07-2014 19:00:00 24.37778 C 13.11 g/m*3 24.38 C 5.51111 km/h
447 25-07-2014 20:00:00 22.725 C 13.35 g/m*3 22.73 C 4.40833 km/h
448 25-07-2014 21:00:00 20.43333 C 13.93 g/m*3 20.43 C 0 km/h
449 25-07-2014 22:00:00 18.225 C 13.36 g/m*3 18.23 C 0.13333 km/h
450 25-07-2014 23:00:00 17.36667 C 13.13 g/m*3 17.37 C 0 km/h
Sensor: Nr:Datum:Temp:Abs-Feuchte:Windchill:Wind:
Aussen-T/F 451 26-07-2014 00:00:00 16.55 C 12.89 g/m*3 16.55 C 0 km/h
452 26-07-2014 01:00:00 16.26667 C 12.92 g/m*3 16.27 C 0 km/h
453 26-07-2014 02:00:00 16.3 C 13.04 g/m*3 16.3 C 0 km/h
454 26-07-2014 08:00:00 16.86667 C 13.46 g/m*3 16.87 C 1.77778 km/h
455 26-07-2014 09:00:00 17.43333 C 13.71 g/m*3 17.43 C 2.8 km/h
456 26-07-2014 10:00:00 18.1 C 13.96 g/m*3 18.1 C 2.8 km/h
457 26-07-2014 11:00:00 19.3625 C 14.53 g/m*3 19.36 C 2.8 km/h
458 26-07-2014 14:00:00 25.67 C 15.51 g/m*3 25.67 C 7.09 km/h
459 26-07-2014 15:00:00 26.58333 C 14.08 g/m*3 26.58 C 6.45 km/h
460 26-07-2014 16:00:00 27.525 C 13.49 g/m*3 27.53 C 7.11667 km/h
461 26-07-2014 17:00:00 27.50833 C 13.61 g/m*3 27.51 C 7.25 km/h
462 26-07-2014 18:00:00 27 C 14.07 g/m*3 27 C 6.23333 km/h
463 26-07-2014 19:00:00 26.175 C 13.75 g/m*3 26.18 C 7.94167 km/h
464 26-07-2014 20:00:00 24.96667 C 14.78 g/m*3 24.97 C 1.06667 km/h
465 26-07-2014 21:00:00 20.36667 C 14.54 g/m*3 20.37 C 0 km/h
466 26-07-2014 22:00:00 20.01667 C 14.44 g/m*3 20.02 C 0.13333 km/h
467 26-07-2014 23:00:00 19.58333 C 14.17 g/m*3 19.58 C 0 km/h
468 27-07-2014 01:00:00 17.95 C 13.48 g/m*3 17.95 C 0 km/h
469 27-07-2014 03:00:00 16.74286 C 13.17 g/m*3 16.74 C 0 km/h
470 27-07-2014 04:00:00 16.33333 C 13 g/m*3 16.33 C 0 km/h
471 27-07-2014 05:00:00 15.85 C 12.75 g/m*3 15.85 C 0 km/h
472 27-07-2014 06:00:00 15.58333 C 12.64 g/m*3 15.58 C 0 km/h
473 27-07-2014 07:00:00 16.03333 C 13.03 g/m*3 16.03 C 0.53333 km/h
474 27-07-2014 08:00:00 17.825 C 13.76 g/m*3 17.83 C 1.6 km/h
475 27-07-2014 09:00:00 19.02857 C 14.29 g/m*3 19.03 C 4.81429 km/h
Sensor: Nr:Datum:Temp:Abs-Feuchte:Windchill:Wind:
Aussen-T/F 476 27-07-2014 10:00:00 21.1 C 16.03 g/m*3 21.1 C 3.2 km/h
477 27-07-2014 11:00:00 23.56 C 15.87 g/m*3 23.56 C 7.4 km/h
478 27-07-2014 12:00:00 24.23333 C 15.74 g/m*3 24.23 C 4.81667 km/h
479 27-07-2014 13:00:00 25 C 15.19 g/m*3 25 C 2.66667 km/h
480 27-07-2014 14:00:00 26.5375 C 15.62 g/m*3 26.54 C 1.6 km/h
481 27-07-2014 15:00:00 27 C 15.18 g/m*3 27 C 3.76667 km/h
482 27-07-2014 18:00:00 27.14 C 14.89 g/m*3 27.14 C 8.4 km/h
483 28-07-2014 07:00:00 17.05556 C 13.94 g/m*3 17.06 C 4.97778 km/h
484 28-07-2014 08:00:00 17.93333 C 14.56 g/m*3 17.93 C 2.26667 km/h
485 28-07-2014 09:00:00 19.4 C 15.24 g/m*3 19.4 C 0 km/h
486 28-07-2014 10:00:00 20.37143 C 15.92 g/m*3 20.37 C 0 km/h
487 28-07-2014 11:00:00 26.25714 C 15.74 g/m*3 26.26 C 4.81429 km/h
488 28-07-2014 12:00:00 26.7 C 14.68 g/m*3 26.7 C 6.4 km/h
489 28-07-2014 13:00:00 28.17273 C 17.55 g/m*3 28.17 C 4.95455 km/h
490 28-07-2014 14:00:00 26.35 C 16.53 g/m*3 26.35 C 1.6 km/h
491 28-07-2014 15:00:00 24.13333 C 17.1 g/m*3 24.13 C 2.4 km/h
492 28-07-2014 16:00:00 24.4 C 16.47 g/m*3 24.4 C 4.8 km/h
493 28-07-2014 17:00:00 24.3 C 15.53 g/m*3 24.3 C 10.66 km/h
494 28-07-2014 18:00:00 23.81667 C 15.75 g/m*3 23.82 C 9.25833 km/h
495 28-07-2014 19:00:00 23 C 15.59 g/m*3 23 C 7.1 km/h
496 28-07-2014 20:00:00 22.41667 C 15.06 g/m*3 22.42 C 7.65 km/h
497 28-07-2014 21:00:00 21.45833 C 14.39 g/m*3 21.46 C 4.54167 km/h
498 28-07-2014 22:00:00 20.75 C 14.49 g/m*3 20.75 C 4.14167 km/h
499 28-07-2014 23:00:00 19.94167 C 14.68 g/m*3 19.94 C 1.46667 km/h
500 29-07-2014 00:00:00 19.15833 C 15.3 g/m*3 19.16 C 0.13333 km/h
Sensor: Nr:Datum:Temp:Abs-Feuchte:Windchill:Wind:
Aussen-T/F 501 29-07-2014 01:00:00 18.48333 C 15.11 g/m*3 18.48 C 0 km/h
502 29-07-2014 02:00:00 18.68333 C 15.46 g/m*3 18.68 C 0 km/h
503 29-07-2014 03:00:00 18.675 C 15.51 g/m*3 18.68 C 0 km/h
504 29-07-2014 04:00:00 18.725 C 15.55 g/m*3 18.73 C 0 km/h
505 29-07-2014 05:00:00 18.28333 C 15.15 g/m*3 18.28 C 0 km/h
506 29-07-2014 06:00:00 18.33333 C 15.2 g/m*3 18.33 C 0 km/h
507 29-07-2014 07:00:00 18.56667 C 15.57 g/m*3 18.57 C 0 km/h
508 29-07-2014 08:00:00 18.70833 C 15.58 g/m*3 18.71 C 1.6 km/h
509 29-07-2014 09:00:00 19.05833 C 15.89 g/m*3 19.06 C 0.53333 km/h
510 29-07-2014 10:00:00 19.5 C 16.32 g/m*3 19.5 C 0 km/h
511 29-07-2014 11:00:00 19.83333 C 16.64 g/m*3 19.83 C 0 km/h
512 29-07-2014 12:00:00 20.9 C 17.27 g/m*3 20.9 C 3.46667 km/h
513 29-07-2014 13:00:00 21.31667 C 17.69 g/m*3 21.32 C 0 km/h
514 29-07-2014 14:00:00 20.95 C 17.23 g/m*3 20.95 C 2.68333 km/h
515 29-07-2014 15:00:00 21.5 C 17.51 g/m*3 21.5 C 2.26667 km/h
516 29-07-2014 16:00:00 20.625 C 17.24 g/m*3 20.63 C 0 km/h
517 29-07-2014 17:00:00 22.20833 C 18.66 g/m*3 22.21 C 1.73333 km/h
518 29-07-2014 18:00:00 23.01667 C 18.65 g/m*3 23.02 C 3.06667 km/h
519 29-07-2014 19:00:00 21.59167 C 17.91 g/m*3 21.59 C 2.675 km/h
520 29-07-2014 20:00:00 20.6 C 17.21 g/m*3 20.6 C 1.73333 km/h
521 29-07-2014 21:00:00 20.06667 C 16.68 g/m*3 20.07 C 2 km/h
522 29-07-2014 22:00:00 19.41667 C 16.17 g/m*3 19.42 C 0 km/h
523 29-07-2014 23:00:00 18.96667 C 15.78 g/m*3 18.97 C 0.13333 km/h
524 30-07-2014 00:00:00 18.91667 C 15.88 g/m*3 18.92 C 1.6 km/h
525 30-07-2014 01:00:00 18.73333 C 15.68 g/m*3 18.73 C 0 km/h
Sensor: Nr:Datum:Temp:Abs-Feuchte:Windchill:Wind:
Aussen-T/F 526 30-07-2014 02:00:00 18.7 C 15.69 g/m*3 18.7 C 0 km/h
527 30-07-2014 03:00:00 18.7 C 15.69 g/m*3 18.7 C 0.13333 km/h
528 30-07-2014 04:00:00 18.7 C 15.69 g/m*3 18.7 C 1.33333 km/h
529 30-07-2014 05:00:00 18.775 C 15.76 g/m*3 18.77 C 0.8 km/h
530 30-07-2014 06:00:00 18.8 C 15.78 g/m*3 18.8 C 4.14167 km/h
531 30-07-2014 07:00:00 18.55833 C 15.35 g/m*3 18.56 C 10.61667 km/h
532 30-07-2014 08:00:00 18.325 C 14.78 g/m*3 18.33 C 10.75 km/h
533 30-07-2014 09:00:00 17.925 C 14.36 g/m*3 17.93 C 7.25 km/h
534 30-07-2014 10:00:00 18.28333 C 14.47 g/m*3 18.28 C 7.1 km/h
535 30-07-2014 11:00:00 18.96667 C 14.56 g/m*3 18.97 C 9.95 km/h
536 30-07-2014 12:00:00 19.725 C 14.51 g/m*3 19.73 C 10.08333 km/h
537 30-07-2014 13:00:00 20.88333 C 14.4 g/m*3 20.88 C 10.89167 km/h
538 30-07-2014 14:00:00 21.71667 C 13.89 g/m*3 21.72 C 11.96667 km/h
539 30-07-2014 15:00:00 22.86667 C 13.46 g/m*3 22.87 C 14.63333 km/h
540 30-07-2014 16:00:00 23.48333 C 13.33 g/m*3 23.48 C 12.76667 km/h
541 30-07-2014 17:00:00 23.01667 C 13.03 g/m*3 23.02 C 7.375 km/h
542 30-07-2014 18:00:00 23.74167 C 12.76 g/m*3 23.74 C 6.70833 km/h
543 30-07-2014 19:00:00 22.98333 C 13 g/m*3 22.98 C 8.85833 km/h
544 30-07-2014 20:00:00 20.58333 C 14.44 g/m*3 20.58 C 2.53333 km/h
545 30-07-2014 21:00:00 19.01667 C 14.14 g/m*3 19.02 C 1.73333 km/h
546 30-07-2014 22:00:00 18.46667 C 14.03 g/m*3 18.47 C 0 km/h
547 30-07-2014 23:00:00 18.5 C 13.96 g/m*3 18.5 C 0 km/h
548 31-07-2014 00:00:00 18.4 C 13.88 g/m*3 18.4 C 0 km/h
549 31-07-2014 01:00:00 18.46667 C 13.37 g/m*3 18.47 C 0 km/h
550 31-07-2014 02:00:00 17.45 C 12.91 g/m*3 17.45 C 0.675 km/h
Sensor: Nr:Datum:Temp:Abs-Feuchte:Windchill:Wind:
Aussen-T/F 551 31-07-2014 03:00:00 16.225 C 12.6 g/m*3 16.23 C 0 km/h
552 31-07-2014 04:00:00 16.125 C 12.74 g/m*3 16.13 C 0 km/h
553 31-07-2014 05:00:00 16.09167 C 12.64 g/m*3 16.09 C 0 km/h
554 31-07-2014 06:00:00 16.09167 C 12.74 g/m*3 16.09 C 0 km/h
555 31-07-2014 07:00:00 16.5 C 12.84 g/m*3 16.5 C 0 km/h
556 31-07-2014 08:00:00 17.16667 C 12.79 g/m*3 17.17 C 0 km/h
557 31-07-2014 09:00:00 18.025 C 12.96 g/m*3 18.02 C 0 km/h
558 31-07-2014 10:00:00 18.93333 C 13.32 g/m*3 18.93 C 0 km/h
559 31-07-2014 11:00:00 19.90833 C 13.91 g/m*3 19.91 C 0 km/h
560 31-07-2014 12:00:00 21.5125 C 13.59 g/m*3 21.51 C 4.6125 km/h
561 31-07-2014 13:00:00 23.74286 C 12.96 g/m*3 23.74 C 7.38571 km/h
562 31-07-2014 14:00:00 25.25833 C 12.09 g/m*3 25.26 C 8.45833 km/h
563 31-07-2014 15:00:00 26.3 C 11.88 g/m*3 26.3 C 6.575 km/h
564 31-07-2014 16:00:00 27.20833 C 11.72 g/m*3 27.21 C 5.625 km/h
565 31-07-2014 17:00:00 27.74167 C 11.64 g/m*3 27.74 C 5.625 km/h
566 31-07-2014 18:00:00 26.85 C 14 g/m*3 26.85 C 3.6 km/h
567 31-07-2014 19:00:00 22.8 C 15.19 g/m*3 22.8 C 0.93333 km/h
568 31-07-2014 20:00:00 20.11667 C 14.28 g/m*3 20.12 C 0.93333 km/h
569 31-07-2014 21:00:00 19.4 C 14.04 g/m*3 19.4 C 0.4 km/h
570 31-07-2014 22:00:00 18.59167 C 13.5 g/m*3 18.59 C 0.13333 km/h
571 31-07-2014 23:00:00 17.95833 C 13.02 g/m*3 17.96 C 0 km/h
572 01-08-2014 00:00:00 17.325 C 12.91 g/m*3 17.33 C 0 km/h
573 01-08-2014 01:00:00 16.59167 C 12.39 g/m*3 16.59 C 0 km/h
574 01-08-2014 02:00:00 16.00833 C 12.3 g/m*3 16.01 C 0 km/h
575 01-08-2014 03:00:00 15.6 C 12.22 g/m*3 15.6 C 0 km/h
Sensor: Nr:Datum:Temp:Abs-Feuchte:Windchill:Wind:
Aussen-T/F 576 01-08-2014 04:00:00 15.13333 C 12.02 g/m*3 15.13 C 0 km/h
577 01-08-2014 05:00:00 14.74167 C 11.88 g/m*3 14.74 C 0 km/h
578 01-08-2014 06:00:00 14.54167 C 11.85 g/m*3 14.54 C 0 km/h
579 01-08-2014 07:00:00 14.95833 C 12.26 g/m*3 14.96 C 0 km/h
580 01-08-2014 08:00:00 16.23333 C 13.06 g/m*3 16.23 C 0 km/h
581 01-08-2014 09:00:00 17.65 C 13.68 g/m*3 17.65 C 0 km/h
582 01-08-2014 10:00:00 18.71667 C 14.52 g/m*3 18.72 C 0 km/h
583 01-08-2014 11:00:00 21.11667 C 15.54 g/m*3 21.12 C 0 km/h
584 01-08-2014 12:00:00 21.9 C 16.18 g/m*3 21.9 C 0 km/h
585 01-08-2014 13:00:00 21.78333 C 16.29 g/m*3 21.78 C 0 km/h
586 01-08-2014 14:00:00 26.54167 C 15.14 g/m*3 26.54 C 3.625 km/h
587 01-08-2014 15:00:00 27.39167 C 15.76 g/m*3 27.39 C 4.56667 km/h
588 01-08-2014 16:00:00 29.06667 C 13.31 g/m*3 29.07 C 6.43333 km/h
589 01-08-2014 17:00:00 28.61667 C 13.99 g/m*3 28.62 C 3.625 km/h
590 01-08-2014 18:00:00 25.69167 C 16.55 g/m*3 25.69 C 0 km/h
591 01-08-2014 19:00:00 22.45 C 15.77 g/m*3 22.45 C 0 km/h
592 01-08-2014 20:00:00 21.24167 C 15.19 g/m*3 21.24 C 0 km/h
593 01-08-2014 21:00:00 20.20833 C 14.48 g/m*3 20.21 C 0 km/h
594 01-08-2014 22:00:00 19.56667 C 14.14 g/m*3 19.57 C 0 km/h
595 01-08-2014 23:00:00 18.95 C 13.62 g/m*3 18.95 C 0 km/h
596 02-08-2014 00:00:00 18.54167 C 13.47 g/m*3 18.54 C 0 km/h
597 02-08-2014 01:00:00 17.9 C 13.32 g/m*3 17.9 C 0 km/h
598 02-08-2014 02:00:00 17.14167 C 12.83 g/m*3 17.14 C 0 km/h
599 02-08-2014 03:00:00 16.36667 C 12.49 g/m*3 16.37 C 0 km/h
600 02-08-2014 04:00:00 15.86667 C 12.36 g/m*3 15.87 C 0 km/h
Sensor: Nr:Datum:Temp:Abs-Feuchte:Windchill:Wind:
Aussen-T/F 601 02-08-2014 05:00:00 15.51667 C 12.35 g/m*3 15.52 C 0 km/h
602 02-08-2014 06:00:00 15.25833 C 12.24 g/m*3 15.26 C 0 km/h
603 02-08-2014 07:00:00 15.33333 C 12.41 g/m*3 15.33 C 0 km/h
604 02-08-2014 08:00:00 16.05833 C 12.95 g/m*3 16.06 C 0 km/h
605 02-08-2014 09:00:00 17.175 C 13.4 g/m*3 17.18 C 0 km/h
606 02-08-2014 10:00:00 18.875 C 14.59 g/m*3 18.88 C 0 km/h
607 02-08-2014 11:00:00 21.3 C 15.94 g/m*3 21.3 C 0 km/h
608 02-08-2014 12:00:00 23.825 C 16.17 g/m*3 23.83 C 0 km/h
609 02-08-2014 13:00:00 24.425 C 16.19 g/m*3 24.43 C 0 km/h
610 02-08-2014 14:00:00 25.44167 C 16.7 g/m*3 25.44 C 2.80833 km/h
611 02-08-2014 15:00:00 26.525 C 17 g/m*3 26.53 C 5.08333 km/h
612 02-08-2014 16:00:00 25.49167 C 16.98 g/m*3 25.49 C 4.69167 km/h
613 02-08-2014 17:00:00 23.875 C 16.09 g/m*3 23.88 C 5.08333 km/h
614 02-08-2014 18:00:00 23.93333 C 16.31 g/m*3 23.93 C 2 km/h
615 02-08-2014 19:00:00 23.39167 C 16.94 g/m*3 23.39 C 2.8 km/h
616 02-08-2014 20:00:00 20.94167 C 16.42 g/m*3 20.94 C 0.8 km/h
617 02-08-2014 21:00:00 19.85 C 15.65 g/m*3 19.85 C 0 km/h
618 02-08-2014 22:00:00 19.675 C 15.43 g/m*3 19.68 C 0 km/h
619 02-08-2014 23:00:00 19.9 C 15.42 g/m*3 19.9 C 0 km/h
620 03-08-2014 00:00:00 19.75 C 15.13 g/m*3 19.75 C 0 km/h
621 03-08-2014 01:00:00 19.49167 C 14.44 g/m*3 19.49 C 0 km/h
622 03-08-2014 02:00:00 19.00833 C 14.43 g/m*3 19.01 C 0 km/h
623 03-08-2014 03:00:00 18.95833 C 14.37 g/m*3 18.96 C 0 km/h
624 03-08-2014 04:00:00 18.95833 C 14.21 g/m*3 18.96 C 1.475 km/h
625 03-08-2014 05:00:00 19.275 C 14.27 g/m*3 19.27 C 4.275 km/h
Sensor: Nr:Datum:Temp:Abs-Feuchte:Windchill:Wind:
Aussen-T/F 626 03-08-2014 06:00:00 19.025 C 14.53 g/m*3 19.02 C 1.6 km/h
627 03-08-2014 07:00:00 18.81667 C 14.56 g/m*3 18.82 C 1.46667 km/h
628 03-08-2014 08:00:00 19.59167 C 14.92 g/m*3 19.59 C 2.40833 km/h
629 03-08-2014 09:00:00 20.83333 C 15.21 g/m*3 20.83 C 4.14167 km/h
630 03-08-2014 10:00:00 21.75833 C 15.22 g/m*3 21.76 C 1.2 km/h
631 03-08-2014 11:00:00 22.03333 C 15.83 g/m*3 22.03 C 0 km/h
632 03-08-2014 12:00:00 24.85 C 15.26 g/m*3 24.85 C 3.74167 km/h
633 03-08-2014 13:00:00 25.4 C 15.05 g/m*3 25.4 C 4.01667 km/h
634 03-08-2014 14:00:00 24.04167 C 15.54 g/m*3 24.04 C 2.4 km/h
635 03-08-2014 15:00:00 23.46667 C 15.3 g/m*3 23.47 C 4.13333 km/h
636 03-08-2014 16:00:00 24.85833 C 15.87 g/m*3 24.86 C 6.975 km/h
637 03-08-2014 17:00:00 23.43333 C 15.52 g/m*3 23.43 C 3.49167 km/h
638 03-08-2014 18:00:00 23.73333 C 15.8 g/m*3 23.73 C 3.33333 km/h
639 03-08-2014 19:00:00 24.31667 C 16.67 g/m*3 24.32 C 2.13333 km/h
640 03-08-2014 20:00:00 21.45833 C 16.08 g/m*3 21.46 C 0.13333 km/h
641 03-08-2014 21:00:00 19.80833 C 15.15 g/m*3 19.81 C 0 km/h
642 03-08-2014 22:00:00 19.95833 C 14.71 g/m*3 19.96 C 1.46667 km/h
643 03-08-2014 23:00:00 19.73333 C 14.72 g/m*3 19.73 C 0 km/h
644 04-08-2014 00:00:00 18.93333 C 14.23 g/m*3 18.93 C 1.48333 km/h
645 04-08-2014 01:00:00 18.65833 C 13.85 g/m*3 18.66 C 3.08333 km/h
646 04-08-2014 02:00:00 17.60833 C 13.81 g/m*3 17.61 C 0 km/h
647 04-08-2014 03:00:00 17.15833 C 13.6 g/m*3 17.16 C 0 km/h
648 04-08-2014 04:00:00 16.54167 C 13.28 g/m*3 16.54 C 0 km/h
649 04-08-2014 05:00:00 16.70833 C 13.45 g/m*3 16.71 C 0.66667 km/h
650 04-08-2014 06:00:00 16.875 C 13.5 g/m*3 16.88 C 0 km/h
Sensor: Nr:Datum:Temp:Abs-Feuchte:Windchill:Wind:
Aussen-T/F 651 04-08-2014 07:00:00 17.19167 C 13.72 g/m*3 17.19 C 1.06667 km/h
652 04-08-2014 08:00:00 18.04167 C 14.02 g/m*3 18.04 C 0.93333 km/h
653 04-08-2014 09:00:00 19.675 C 13.88 g/m*3 19.68 C 3.075 km/h
654 04-08-2014 10:00:00 20.68333 C 14.18 g/m*3 20.68 C 2.80833 km/h
655 04-08-2014 11:00:00 22.025 C 14.37 g/m*3 22.03 C 6.71667 km/h
656 04-08-2014 12:00:00 23.21667 C 14.62 g/m*3 23.22 C 6.05 km/h
657 04-08-2014 13:00:00 22.95833 C 14.64 g/m*3 22.96 C 2.26667 km/h
658 04-08-2014 14:00:00 21.54167 C 15.41 g/m*3 21.54 C 3.49167 km/h
659 04-08-2014 15:00:00 22.51667 C 16.04 g/m*3 22.52 C 2.66667 km/h
660 04-08-2014 16:00:00 23.03333 C 14.72 g/m*3 23.03 C 11.29167 km/h
661 04-08-2014 17:00:00 18.71667 C 13.05 g/m*3 18.72 C 3.63333 km/h
662 04-08-2014 18:00:00 17.94167 C 14.08 g/m*3 17.94 C 3.76667 km/h
663 04-08-2014 19:00:00 18.53333 C 13.95 g/m*3 18.53 C 3.75833 km/h
664 04-08-2014 20:00:00 17.375 C 13.77 g/m*3 17.38 C 0 km/h
665 04-08-2014 21:00:00 16.85833 C 13.63 g/m*3 16.86 C 0 km/h
666 04-08-2014 22:00:00 16.66667 C 13.57 g/m*3 16.67 C 0 km/h
667 04-08-2014 23:00:00 16.625 C 13.58 g/m*3 16.63 C 0 km/h
668 05-08-2014 00:00:00 16.16667 C 13.21 g/m*3 16.17 C 0 km/h
669 05-08-2014 01:00:00 15.86667 C 13.04 g/m*3 15.87 C 0 km/h
670 05-08-2014 02:00:00 15.58333 C 12.78 g/m*3 15.58 C 0 km/h
671 05-08-2014 03:00:00 15.55 C 12.78 g/m*3 15.55 C 0 km/h
672 05-08-2014 04:00:00 15.675 C 12.96 g/m*3 15.68 C 0 km/h
673 05-08-2014 05:00:00 15.85 C 13.09 g/m*3 15.85 C 0 km/h
674 05-08-2014 06:00:00 15.575 C 12.75 g/m*3 15.58 C 0 km/h
675 05-08-2014 07:00:00 15.64167 C 12.79 g/m*3 15.64 C 0 km/h
Sensor: Nr:Datum:Temp:Abs-Feuchte:Windchill:Wind:
Aussen-T/F 676 05-08-2014 08:00:00 16.64167 C 12.98 g/m*3 16.64 C 0 km/h
677 05-08-2014 09:00:00 17.74167 C 13.18 g/m*3 17.74 C 0 km/h
678 05-08-2014 10:00:00 18.90833 C 13.36 g/m*3 18.91 C 0.675 km/h
679 05-08-2014 11:00:00 20.1 C 13.47 g/m*3 20.1 C 6.975 km/h
680 05-08-2014 12:00:00 21.41667 C 13.34 g/m*3 21.42 C 5.61667 km/h
681 05-08-2014 13:00:00 22.40833 C 12.62 g/m*3 22.41 C 5.61667 km/h
682 05-08-2014 14:00:00 22.05833 C 12.87 g/m*3 22.06 C 2.275 km/h
683 05-08-2014 15:00:00 21.85 C 13.44 g/m*3 21.85 C 2.54167 km/h
684 05-08-2014 16:00:00 22.76667 C 13.05 g/m*3 22.77 C 6.56667 km/h
685 05-08-2014 17:00:00 24.09167 C 12.81 g/m*3 24.09 C 3.46667 km/h
686 05-08-2014 18:00:00 24.4 C 11.68 g/m*3 24.4 C 6.70833 km/h
687 05-08-2014 19:00:00 21.24167 C 13.56 g/m*3 21.24 C 0.53333 km/h
688 05-08-2014 20:00:00 19.89167 C 13.81 g/m*3 19.89 C 1.46667 km/h
689 05-08-2014 21:00:00 18.05833 C 13 g/m*3 18.06 C 0.53333 km/h
690 05-08-2014 22:00:00 16.925 C 12.52 g/m*3 16.93 C 0 km/h
691 05-08-2014 23:00:00 16.08333 C 12.08 g/m*3 16.08 C 0 km/h
692 06-08-2014 00:00:00 15.15833 C 11.77 g/m*3 15.16 C 0 km/h
693 06-08-2014 01:00:00 14.43333 C 11.45 g/m*3 14.43 C 0 km/h
694 06-08-2014 02:00:00 13.89167 C 11.18 g/m*3 13.89 C 0 km/h
695 06-08-2014 03:00:00 13.53333 C 11.07 g/m*3 13.53 C 0 km/h
696 06-08-2014 04:00:00 13.13333 C 10.86 g/m*3 13.13 C 0 km/h
697 06-08-2014 05:00:00 12.8 C 10.74 g/m*3 12.8 C 0.4 km/h
698 06-08-2014 06:00:00 12.75833 C 10.74 g/m*3 12.76 C 0.13333 km/h
699 06-08-2014 07:00:00 13.00833 C 10.98 g/m*3 13.01 C 0.53333 km/h
700 06-08-2014 08:00:00 13.45833 C 11.32 g/m*3 13.46 C 1.33333 km/h
Sensor: Nr:Datum:Temp:Abs-Feuchte:Windchill:Wind:
Aussen-T/F 701 06-08-2014 09:00:00 14.61667 C 11.93 g/m*3 14.62 C 3.2 km/h
702 06-08-2014 10:00:00 16.79167 C 12.87 g/m*3 16.79 C 0.53333 km/h
703 06-08-2014 11:00:00 19.925 C 14.4 g/m*3 19.93 C 1.46667 km/h
704 06-08-2014 12:00:00 22.75 C 13.8 g/m*3 22.75 C 3.73333 km/h
705 06-08-2014 13:00:00 24.55833 C 12.11 g/m*3 24.56 C 6.43333 km/h
706 06-08-2014 14:00:00 25.48333 C 11.08 g/m*3 25.48 C 8.31667 km/h
707 06-08-2014 15:00:00 25.1 C 12.64 g/m*3 25.1 C 4.15 km/h
708 06-08-2014 16:00:00 24.33333 C 13.54 g/m*3 24.33 C 2.54167 km/h
709 06-08-2014 17:00:00 21.50833 C 14.7 g/m*3 21.51 C 0.13333 km/h
710 06-08-2014 18:00:00 20.5 C 14.43 g/m*3 20.5 C 0.13333 km/h
711 06-08-2014 19:00:00 19.16667 C 13.81 g/m*3 19.17 C 5.5 km/h
712 06-08-2014 20:00:00 17.10833 C 13.3 g/m*3 17.11 C 3.73333 km/h
713 06-08-2014 21:00:00 16.41667 C 13.19 g/m*3 16.42 C 0.53333 km/h
714 06-08-2014 22:00:00 16.025 C 13.1 g/m*3 16.02 C 0.13333 km/h
715 06-08-2014 23:00:00 15.85 C 12.96 g/m*3 15.85 C 0 km/h
716 07-08-2014 00:00:00 15.65 C 12.81 g/m*3 15.65 C 2.40833 km/h
717 07-08-2014 01:00:00 15.58333 C 12.81 g/m*3 15.58 C 0.13333 km/h
718 07-08-2014 02:00:00 15.43333 C 12.76 g/m*3 15.43 C 0 km/h
719 07-08-2014 03:00:00 15.28333 C 12.64 g/m*3 15.28 C 0.8 km/h
720 07-08-2014 04:00:00 15.21667 C 12.6 g/m*3 15.22 C 0 km/h
721 07-08-2014 05:00:00 15.55 C 12.89 g/m*3 15.55 C 0 km/h
722 07-08-2014 06:00:00 15.8 C 13.19 g/m*3 15.8 C 0.53333 km/h
723 07-08-2014 07:00:00 16 C 13.35 g/m*3 16 C 0 km/h
724 07-08-2014 08:00:00 16.25 C 13.56 g/m*3 16.25 C 1.33333 km/h
725 07-08-2014 09:00:00 17.36667 C 13.9 g/m*3 17.37 C 3.46667 km/h
Sensor: Nr:Datum:Temp:Abs-Feuchte:Windchill:Wind:
Aussen-T/F 726 07-08-2014 10:00:00 18.675 C 14.07 g/m*3 18.68 C 3.075 km/h
727 07-08-2014 11:00:00 20.33333 C 14.23 g/m*3 20.33 C 4.81667 km/h
728 07-08-2014 12:00:00 22.01667 C 14 g/m*3 22.02 C 4.94167 km/h
729 07-08-2014 13:00:00 22.65 C 13.57 g/m*3 22.65 C 4.54167 km/h
730 07-08-2014 14:00:00 23.96667 C 14.1 g/m*3 23.97 C 4.95 km/h
731 07-08-2014 15:00:00 25.75 C 13.42 g/m*3 25.75 C 8.35 km/h
732 07-08-2014 16:00:00 25.43333 C 14.23 g/m*3 25.43 C 3.60833 km/h
733 07-08-2014 17:00:00 21.08333 C 15.66 g/m*3 21.08 C 0.13333 km/h
734 07-08-2014 18:00:00 22.50833 C 15.9 g/m*3 22.51 C 0.4 km/h
735 07-08-2014 19:00:00 22.38333 C 15.87 g/m*3 22.38 C 0.13333 km/h
736 07-08-2014 20:00:00 20.11667 C 14.86 g/m*3 20.12 C 0.53333 km/h
737 07-08-2014 21:00:00 18.46667 C 14.03 g/m*3 18.47 C 0.13333 km/h
738 07-08-2014 22:00:00 17.56667 C 13.52 g/m*3 17.57 C 0 km/h
739 07-08-2014 23:00:00 16.75833 C 13.13 g/m*3 16.76 C 0 km/h
740 08-08-2014 00:00:00 16.075 C 12.76 g/m*3 16.08 C 0 km/h
741 08-08-2014 01:00:00 15.54167 C 12.49 g/m*3 15.54 C 0 km/h
742 08-08-2014 02:00:00 15.15833 C 12.3 g/m*3 15.16 C 0 km/h
743 08-08-2014 03:00:00 14.80833 C 12.15 g/m*3 14.81 C 0 km/h
744 08-08-2014 04:00:00 14.43333 C 11.89 g/m*3 14.43 C 0 km/h
745 08-08-2014 05:00:00 14.275 C 11.88 g/m*3 14.28 C 0 km/h
746 08-08-2014 06:00:00 14.58333 C 12.13 g/m*3 14.58 C 0.93333 km/h
747 08-08-2014 07:00:00 15.04167 C 12.47 g/m*3 15.04 C 0.4 km/h
748 08-08-2014 08:00:00 15.68333 C 12.9 g/m*3 15.68 C 0 km/h
749 08-08-2014 09:00:00 16.60833 C 13.54 g/m*3 16.61 C 0 km/h
750 08-08-2014 10:00:00 18.375 C 14.7 g/m*3 18.38 C 0.93333 km/h
Sensor: Nr:Datum:Temp:Abs-Feuchte:Windchill:Wind:
Aussen-T/F 751 08-08-2014 11:00:00 22.93333 C 15.49 g/m*3 22.93 C 5.49167 km/h
752 08-08-2014 12:00:00 25.45 C 14.66 g/m*3 25.45 C 8.175 km/h
753 08-08-2014 13:00:00 26.50833 C 13.88 g/m*3 26.51 C 9.55 km/h
754 08-08-2014 14:00:00 26.025 C 14.99 g/m*3 26.03 C 6.44167 km/h
755 08-08-2014 15:00:00 22.73333 C 16.82 g/m*3 22.73 C 0.93333 km/h
756 08-08-2014 16:00:00 20.86667 C 16.75 g/m*3 20.87 C 0.4 km/h
757 08-08-2014 17:00:00 20.45 C 16.84 g/m*3 20.45 C 0 km/h
758 08-08-2014 18:00:00 20.625 C 17.03 g/m*3 20.63 C 0 km/h
759 08-08-2014 19:00:00 20.35 C 16.8 g/m*3 20.35 C 0 km/h
760 08-08-2014 20:00:00 20.00833 C 16.53 g/m*3 20.01 C 0.13333 km/h
761 08-08-2014 21:00:00 19.11667 C 15.71 g/m*3 19.12 C 0 km/h
762 08-08-2014 22:00:00 18.75 C 15.42 g/m*3 18.75 C 0.13333 km/h
763 08-08-2014 23:00:00 18.625 C 15.3 g/m*3 18.63 C 0.4 km/h
764 09-08-2014 00:00:00 18.64167 C 15.24 g/m*3 18.64 C 0.13333 km/h
765 09-08-2014 01:00:00 18.8 C 15.3 g/m*3 18.8 C 0 km/h
766 09-08-2014 02:00:00 19.40833 C 15.55 g/m*3 19.41 C 2.80833 km/h
767 09-08-2014 03:00:00 18.85 C 15.56 g/m*3 18.85 C 0.26667 km/h
768 09-08-2014 04:00:00 18.69167 C 15.52 g/m*3 18.69 C 0.26667 km/h
769 09-08-2014 05:00:00 18.35 C 15.13 g/m*3 18.35 C 5.90833 km/h
770 09-08-2014 06:00:00 18.625 C 14.66 g/m*3 18.63 C 13.01667 km/h
771 09-08-2014 07:00:00 18.69167 C 14.54 g/m*3 18.69 C 10.075 km/h
772 09-08-2014 08:00:00 19.56667 C 14.97 g/m*3 19.57 C 10.74167 km/h
773 09-08-2014 09:00:00 19.875 C 15.24 g/m*3 19.88 C 10.46667 km/h
774 09-08-2014 10:00:00 19.56667 C 14.59 g/m*3 19.57 C 9.53333 km/h
775 09-08-2014 11:00:00 20.30833 C 13.08 g/m*3 20.31 C 15.83333 km/h
Sensor: Nr:Datum:Temp:Abs-Feuchte:Windchill:Wind:
Aussen-T/F 776 09-08-2014 12:00:00 21.53333 C 12.37 g/m*3 21.53 C 16.1 km/h
777 09-08-2014 13:00:00 22.125 C 12.14 g/m*3 22.13 C 11.43333 km/h
778 09-08-2014 14:00:00 22.825 C 12.35 g/m*3 22.83 C 9.40833 km/h
779 09-08-2014 15:00:00 24.24167 C 12.37 g/m*3 24.24 C 12.5 km/h
780 09-08-2014 16:00:00 24.95833 C 12.08 g/m*3 24.96 C 12.75833 km/h
781 09-08-2014 17:00:00 24.71667 C 12.46 g/m*3 24.72 C 7.79167 km/h
782 09-08-2014 18:00:00 22.90833 C 14.24 g/m*3 22.91 C 1.60833 km/h
783 09-08-2014 19:00:00 21.55833 C 14.51 g/m*3 21.56 C 0.8 km/h
784 09-08-2014 20:00:00 18.9 C 13.31 g/m*3 18.9 C 1.73333 km/h
785 09-08-2014 21:00:00 17.59167 C 12.67 g/m*3 17.59 C 0.26667 km/h
786 09-08-2014 22:00:00 16.73333 C 12.4 g/m*3 16.73 C 0 km/h
787 09-08-2014 23:00:00 16.55833 C 12.35 g/m*3 16.56 C 0.26667 km/h
788 10-08-2014 00:00:00 16.25 C 12.46 g/m*3 16.25 C 0 km/h
789 10-08-2014 01:00:00 16.20833 C 12.59 g/m*3 16.21 C 0 km/h
790 10-08-2014 02:00:00 16.3 C 12.73 g/m*3 16.3 C 0 km/h
791 10-08-2014 03:00:00 16.34167 C 12.8 g/m*3 16.34 C 0 km/h
792 10-08-2014 04:00:00 16.175 C 12.75 g/m*3 16.18 C 0 km/h
793 10-08-2014 05:00:00 15.825 C 12.37 g/m*3 15.83 C 0 km/h
794 10-08-2014 06:00:00 15.26667 C 12.03 g/m*3 15.27 C 0.26667 km/h
795 10-08-2014 07:00:00 15.58333 C 12.41 g/m*3 15.58 C 1.61667 km/h
796 10-08-2014 08:00:00 17.63333 C 13.51 g/m*3 17.63 C 1.73333 km/h
797 10-08-2014 09:00:00 19.61667 C 14.24 g/m*3 19.62 C 2.93333 km/h
798 10-08-2014 10:00:00 21.25833 C 14.91 g/m*3 21.26 C 3.86667 km/h
799 10-08-2014 11:00:00 22.8 C 15.78 g/m*3 22.8 C 4.94167 km/h
800 10-08-2014 12:00:00 24.26667 C 15.94 g/m*3 24.27 C 6.96667 km/h
Sensor: Nr:Datum:Temp:Abs-Feuchte:Windchill:Wind:
Aussen-T/F 801 10-08-2014 13:00:00 23.85833 C 16.26 g/m*3 23.86 C 4.825 km/h
802 10-08-2014 14:00:00 21.55833 C 17.22 g/m*3 21.56 C 0.8 km/h
803 10-08-2014 15:00:00 20.85833 C 16.81 g/m*3 20.86 C 2.93333 km/h
804 10-08-2014 16:00:00 21.05833 C 17.29 g/m*3 21.06 C 2.26667 km/h
805 10-08-2014 17:00:00 21.00833 C 17.3 g/m*3 21.01 C 0 km/h
806 10-08-2014 18:00:00 20.25833 C 16.84 g/m*3 20.26 C 0.13333 km/h
807 10-08-2014 19:00:00 19.85 C 16.46 g/m*3 19.85 C 0 km/h
808 10-08-2014 20:00:00 19.225 C 16.02 g/m*3 19.23 C 2.68333 km/h
809 10-08-2014 21:00:00 18.975 C 15.34 g/m*3 18.98 C 3.33333 km/h
810 10-08-2014 22:00:00 18.34167 C 14.81 g/m*3 18.34 C 2 km/h
811 10-08-2014 23:00:00 17.78333 C 14.56 g/m*3 17.78 C 1.33333 km/h
812 11-08-2014 00:00:00 17.50833 C 14.06 g/m*3 17.51 C 3.20833 km/h
813 11-08-2014 01:00:00 16.31667 C 13.02 g/m*3 16.32 C 2.8 km/h
814 11-08-2014 02:00:00 15.40833 C 11.96 g/m*3 15.41 C 2.93333 km/h
815 11-08-2014 03:00:00 14.05833 C 11.45 g/m*3 14.06 C 0.53333 km/h
816 11-08-2014 04:00:00 13.36667 C 11.03 g/m*3 13.37 C 0.4 km/h
817 11-08-2014 05:00:00 13.14167 C 10.8 g/m*3 13.14 C 1.06667 km/h
818 11-08-2014 06:00:00 12.86667 C 10.64 g/m*3 12.87 C 0.4 km/h
819 11-08-2014 07:00:00 13.10833 C 10.83 g/m*3 13.11 C 0.66667 km/h
820 11-08-2014 08:00:00 13.86667 C 11.12 g/m*3 13.87 C 3.49167 km/h
821 11-08-2014 09:00:00 15.43333 C 11.14 g/m*3 15.43 C 12.76667 km/h
822 11-08-2014 10:00:00 16.50833 C 11.25 g/m*3 16.51 C 12.5 km/h
823 11-08-2014 11:00:00 18.25833 C 11.35 g/m*3 18.26 C 10.89167 km/h
824 11-08-2014 12:00:00 19.55 C 11.21 g/m*3 19.55 C 11.025 km/h
825 11-08-2014 13:00:00 20.375 C 11.14 g/m*3 20.38 C 13.16667 km/h
Sensor: Nr:Datum:Temp:Abs-Feuchte:Windchill:Wind:
Aussen-T/F 826 11-08-2014 14:00:00 20.85 C 11.38 g/m*3 20.85 C 11.96667 km/h
827 11-08-2014 15:00:00 18.66667 C 13.41 g/m*3 18.67 C 3.06667 km/h
828 11-08-2014 16:00:00 20.51667 C 13.4 g/m*3 20.52 C 6.3 km/h
829 11-08-2014 17:00:00 21.975 C 11.47 g/m*3 21.98 C 12.49167 km/h
830 11-08-2014 18:00:00 21.24167 C 11.58 g/m*3 21.24 C 6.975 km/h
831 11-08-2014 19:00:00 20.60833 C 11.83 g/m*3 20.61 C 5.625 km/h
832 11-08-2014 20:00:00 18.75833 C 11.33 g/m*3 18.76 C 3.46667 km/h
833 11-08-2014 21:00:00 16.34167 C 11.18 g/m*3 16.34 C 2.66667 km/h
834 11-08-2014 22:00:00 15.25 C 10.96 g/m*3 15.25 C 0.53333 km/h
835 11-08-2014 23:00:00 14.18333 C 10.61 g/m*3 14.18 C 0 km/h
836 12-08-2014 00:00:00 14.28333 C 10.69 g/m*3 14.28 C 0.53333 km/h
837 12-08-2014 01:00:00 16.15833 C 10.36 g/m*3 16.16 C 6.725 km/h
838 12-08-2014 02:00:00 15.51667 C 10.73 g/m*3 15.52 C 8.85833 km/h
839 12-08-2014 03:00:00 14.46667 C 10.91 g/m*3 14.47 C 2 km/h
840 12-08-2014 04:00:00 13.975 C 10.93 g/m*3 13.98 C 2.94167 km/h
841 12-08-2014 05:00:00 14.225 C 10.76 g/m*3 14.23 C 4.81667 km/h
842 12-08-2014 06:00:00 14.1 C 10.64 g/m*3 14.1 C 1.86667 km/h
843 12-08-2014 07:00:00 13.80833 C 10.76 g/m*3 13.81 C 0.53333 km/h
844 12-08-2014 08:00:00 14.375 C 11.11 g/m*3 14.38 C 2.54167 km/h
845 12-08-2014 09:00:00 15.88333 C 11 g/m*3 15.88 C 10.61667 km/h
846 12-08-2014 10:00:00 17.10833 C 10.63 g/m*3 17.11 C 13.56667 km/h
847 12-08-2014 11:00:00 18.5 C 10.5 g/m*3 18.5 C 13.55833 km/h
848 12-08-2014 12:00:00 19.80833 C 9.91 g/m*3 19.81 C 14.5 km/h
849 12-08-2014 13:00:00 20.46667 C 9.72 g/m*3 20.47 C 14.23333 km/h
850 12-08-2014 14:00:00 21.59167 C 9.97 g/m*3 21.59 C 14.63333 km/h
Sensor: Nr:Datum:Temp:Abs-Feuchte:Windchill:Wind:
Aussen-T/F 851 12-08-2014 15:00:00 22.775 C 9.93 g/m*3 22.78 C 15.96667 km/h
852 12-08-2014 16:00:00 23.30833 C 10.01 g/m*3 23.31 C 14.89167 km/h
853 12-08-2014 17:00:00 22.31667 C 9.87 g/m*3 22.32 C 14.64167 km/h
854 12-08-2014 18:00:00 22.16667 C 10.22 g/m*3 22.17 C 9.825 km/h
855 12-08-2014 19:00:00 21.04167 C 11.29 g/m*3 21.04 C 4.15 km/h
856 12-08-2014 20:00:00 18.46667 C 11.33 g/m*3 18.47 C 2 km/h
857 12-08-2014 21:00:00 17.16667 C 11.12 g/m*3 17.17 C 0.93333 km/h
858 12-08-2014 22:00:00 16.41667 C 10.86 g/m*3 16.42 C 0 km/h
859 12-08-2014 23:00:00 15.05833 C 10.64 g/m*3 15.06 C 0 km/h
860 13-08-2014 00:00:00 14.33333 C 10.8 g/m*3 14.33 C 0 km/h
861 13-08-2014 01:00:00 14.09167 C 10.93 g/m*3 14.09 C 0 km/h
862 13-08-2014 02:00:00 13.95833 C 10.95 g/m*3 13.96 C 0 km/h
863 13-08-2014 03:00:00 14.075 C 11.01 g/m*3 14.08 C 0 km/h
864 13-08-2014 04:00:00 14.125 C 11 g/m*3 14.13 C 0 km/h
865 13-08-2014 05:00:00 14.11667 C 11.06 g/m*3 14.12 C 0 km/h
866 13-08-2014 06:00:00 13.61667 C 10.9 g/m*3 13.62 C 0 km/h
867 13-08-2014 07:00:00 14 C 11.25 g/m*3 14 C 0 km/h
868 13-08-2014 08:00:00 14.98333 C 11.68 g/m*3 14.98 C 0 km/h
869 13-08-2014 09:00:00 16.70833 C 12.16 g/m*3 16.71 C 0 km/h
870 13-08-2014 10:00:00 18.325 C 12.21 g/m*3 18.33 C 3.75 km/h
871 13-08-2014 11:00:00 19.50833 C 12.51 g/m*3 19.51 C 3.74167 km/h
872 13-08-2014 12:00:00 19.825 C 12.67 g/m*3 19.83 C 2.8 km/h
873 13-08-2014 13:00:00 19.48333 C 13.4 g/m*3 19.48 C 0.93333 km/h
874 13-08-2014 14:00:00 18.73333 C 14.17 g/m*3 18.73 C 0 km/h
875 13-08-2014 15:00:00 17.98333 C 14.17 g/m*3 17.98 C 0 km/h
Sensor: Nr:Datum:Temp:Abs-Feuchte:Windchill:Wind:
Aussen-T/F 876 13-08-2014 16:00:00 17.16667 C 13.54 g/m*3 17.17 C 0.675 km/h
877 13-08-2014 17:00:00 15.85 C 12.62 g/m*3 15.85 C 4.975 km/h
878 13-08-2014 18:00:00 15.68333 C 12.8 g/m*3 15.68 C 0 km/h
879 13-08-2014 19:00:00 15.70833 C 12.86 g/m*3 15.71 C 0 km/h
880 13-08-2014 20:00:00 15.6 C 12.89 g/m*3 15.6 C 0 km/h
881 13-08-2014 21:00:00 15.28333 C 12.59 g/m*3 15.28 C 0.13333 km/h
882 13-08-2014 22:00:00 15.13333 C 12.28 g/m*3 15.13 C 0 km/h
883 13-08-2014 23:00:00 15.15 C 12.23 g/m*3 15.15 C 4.95833 km/h
884 14-08-2014 00:00:00 14.95 C 11.89 g/m*3 14.95 C 3.74167 km/h
885 14-08-2014 01:00:00 14.58333 C 11.54 g/m*3 14.58 C 2.26667 km/h
886 14-08-2014 02:00:00 13.85833 C 11.34 g/m*3 13.86 C 0 km/h
887 14-08-2014 03:00:00 13.35 C 11.14 g/m*3 13.35 C 0 km/h
888 14-08-2014 04:00:00 13.20833 C 11.14 g/m*3 13.21 C 0.13333 km/h
889 14-08-2014 05:00:00 13.06667 C 11.05 g/m*3 13.07 C 0 km/h
890 14-08-2014 06:00:00 12.91667 C 10.94 g/m*3 12.92 C 0 km/h
891 14-08-2014 07:00:00 13.53333 C 11.31 g/m*3 13.53 C 1.74167 km/h
892 14-08-2014 08:00:00 14.86667 C 11.36 g/m*3 14.87 C 5.36667 km/h
893 14-08-2014 09:00:00 15.51667 C 11.62 g/m*3 15.52 C 5.10833 km/h
894 14-08-2014 10:00:00 16.51667 C 11.53 g/m*3 16.52 C 11 km/h
895 14-08-2014 11:00:00 17.20833 C 11.4 g/m*3 17.21 C 11.025 km/h
896 14-08-2014 12:00:00 18.96667 C 11.63 g/m*3 18.97 C 14.76667 km/h
897 14-08-2014 13:00:00 19.525 C 11.71 g/m*3 19.52 C 13.03333 km/h
898 14-08-2014 14:00:00 19.775 C 12.07 g/m*3 19.77 C 15.03333 km/h
899 14-08-2014 15:00:00 20.125 C 11.87 g/m*3 20.13 C 12.36667 km/h
900 14-08-2014 16:00:00 19.63333 C 11.8 g/m*3 19.63 C 7.25 km/h
Sensor: Nr:Datum:Temp:Abs-Feuchte:Windchill:Wind:
Aussen-T/F 901 14-08-2014 17:00:00 20.83333 C 11.78 g/m*3 20.83 C 6.56667 km/h
902 14-08-2014 18:00:00 19.16667 C 11.68 g/m*3 19.17 C 10.325 km/h
903 14-08-2014 19:00:00 16.38 C 11.29 g/m*3 16.38 C 3.04 km/h
904 14-08-2014 20:00:00 15.22727 C 11.36 g/m*3 15.23 C 0.29091 km/h
905 14-08-2014 21:00:00 14.71111 C 11.32 g/m*3 14.71 C 0 km/h
906 14-08-2014 22:00:00 14.70833 C 11.42 g/m*3 14.71 C 0 km/h
907 14-08-2014 23:00:00 14.675 C 11.25 g/m*3 14.68 C 0.93333 km/h
908 15-08-2014 00:00:00 14.26667 C 10.92 g/m*3 14.27 C 0.8 km/h
909 15-08-2014 01:00:00 13.55833 C 10.61 g/m*3 13.56 C 0 km/h
910 15-08-2014 02:00:00 13.55 C 10.56 g/m*3 13.55 C 0.26667 km/h
911 15-08-2014 03:00:00 12.99167 C 10.54 g/m*3 12.99 C 0 km/h
912 15-08-2014 04:00:00 13.20833 C 10.8 g/m*3 13.21 C 0 km/h
913 15-08-2014 05:00:00 13.39167 C 10.92 g/m*3 13.39 C 0 km/h
914 15-08-2014 06:00:00 13.525 C 10.98 g/m*3 13.53 C 0 km/h
915 15-08-2014 07:00:00 13.75 C 11.11 g/m*3 13.75 C 0 km/h
916 15-08-2014 08:00:00 14.15 C 11.21 g/m*3 14.15 C 0.8 km/h
917 15-08-2014 09:00:00 14.68333 C 11.52 g/m*3 14.68 C 3.225 km/h
918 15-08-2014 10:00:00 15.34167 C 11.82 g/m*3 15.34 C 6.575 km/h
919 15-08-2014 11:00:00 15.69167 C 11.76 g/m*3 15.69 C 3.6 km/h
920 15-08-2014 12:00:00 15.76667 C 12.09 g/m*3 15.77 C 2.93333 km/h
921 15-08-2014 13:00:00 16.18889 C 11.82 g/m*3 16.19 C 2.48889 km/h
922 15-08-2014 14:00:00 15.68333 C 11.85 g/m*3 15.68 C 3.74167 km/h
923 15-08-2014 15:00:00 15.36667 C 12.05 g/m*3 15.37 C 1.2 km/h
924 15-08-2014 16:00:00 15.625 C 12.01 g/m*3 15.63 C 1.2 km/h
925 15-08-2014 17:00:00 14.54167 C 11.69 g/m*3 14.54 C 1.06667 km/h
Sensor: Nr:Datum:Temp:Abs-Feuchte:Windchill:Wind:
Aussen-T/F 926 15-08-2014 18:00:00 16.99167 C 12.87 g/m*3 16.99 C 0.66667 km/h
927 15-08-2014 19:00:00 14.875 C 11.96 g/m*3 14.88 C 0 km/h
928 15-08-2014 20:00:00 14.41667 C 11.91 g/m*3 14.42 C 0.13333 km/h
929 15-08-2014 21:00:00 14.15833 C 11.74 g/m*3 14.16 C 0.26667 km/h
930 15-08-2014 22:00:00 13.74167 C 11.51 g/m*3 13.74 C 0 km/h
931 15-08-2014 23:00:00 13.275 C 11.19 g/m*3 13.28 C 0 km/h
932 16-08-2014 00:00:00 12.83333 C 10.89 g/m*3 12.83 C 0 km/h
933 16-08-2014 01:00:00 12.725 C 10.84 g/m*3 12.73 C 0 km/h
934 16-08-2014 02:00:00 12.95833 C 11.09 g/m*3 12.96 C 0 km/h
935 16-08-2014 03:00:00 12.9 C 11.05 g/m*3 12.9 C 0 km/h
936 16-08-2014 04:00:00 12.91667 C 11.06 g/m*3 12.92 C 0 km/h
937 16-08-2014 05:00:00 12.54167 C 10.77 g/m*3 12.54 C 0 km/h
938 16-08-2014 06:00:00 12.51667 C 10.78 g/m*3 12.52 C 0 km/h
939 16-08-2014 07:00:00 12.41667 C 10.68 g/m*3 12.42 C 0 km/h
940 16-08-2014 08:00:00 13.20833 C 11.04 g/m*3 13.21 C 0 km/h
941 16-08-2014 09:00:00 13.975 C 11.17 g/m*3 13.98 C 3.89167 km/h
942 16-08-2014 10:00:00 15 C 11.68 g/m*3 15 C 4.83333 km/h
943 16-08-2014 11:00:00 15.09167 C 12.25 g/m*3 15.09 C 0.66667 km/h
944 16-08-2014 12:00:00 16.29167 C 12.43 g/m*3 16.29 C 3.89167 km/h
945 16-08-2014 13:00:00 17.09167 C 12.62 g/m*3 17.09 C 4.69167 km/h
946 16-08-2014 14:00:00 18.4 C 11.6 g/m*3 18.4 C 8.06667 km/h
947 16-08-2014 15:00:00 20.40833 C 11.33 g/m*3 20.41 C 11.15833 km/h
948 16-08-2014 16:00:00 20.41667 C 11.61 g/m*3 20.42 C 6.7 km/h
949 16-08-2014 17:00:00 19.56667 C 11.65 g/m*3 19.57 C 7.11667 km/h
950 16-08-2014 18:00:00 17.49167 C 11.81 g/m*3 17.49 C 4.29167 km/h
Sensor: Nr:Datum:Temp:Abs-Feuchte:Windchill:Wind:
Aussen-T/F 951 16-08-2014 19:00:00 15.75833 C 11.88 g/m*3 15.76 C 4.15 km/h
952 16-08-2014 20:00:00 14.68333 C 11.72 g/m*3 14.68 C 1.73333 km/h
953 16-08-2014 21:00:00 14.9 C 11.57 g/m*3 14.9 C 1.06667 km/h
954 16-08-2014 22:00:00 14.58333 C 11.73 g/m*3 14.58 C 0 km/h
955 16-08-2014 23:00:00 14.51667 C 11.83 g/m*3 14.52 C 0 km/h
956 17-08-2014 00:00:00 14.49167 C 11.63 g/m*3 14.49 C 0 km/h
957 17-08-2014 01:00:00 13.84167 C 11.19 g/m*3 13.84 C 0 km/h
958 17-08-2014 02:00:00 13.61667 C 11.13 g/m*3 13.62 C 0 km/h
959 17-08-2014 03:00:00 13.81667 C 11.2 g/m*3 13.82 C 0 km/h
960 17-08-2014 04:00:00 13.65 C 11.16 g/m*3 13.65 C 0 km/h
961 17-08-2014 05:00:00 13.525 C 11.12 g/m*3 13.53 C 0 km/h
962 17-08-2014 06:00:00 13.21667 C 10.92 g/m*3 13.22 C 0 km/h
963 17-08-2014 07:00:00 12.75 C 10.67 g/m*3 12.75 C 0 km/h
964 17-08-2014 08:00:00 13.76667 C 10.88 g/m*3 13.77 C 3.35 km/h
965 17-08-2014 09:00:00 15.525 C 10.69 g/m*3 15.53 C 10.21667 km/h
966 17-08-2014 10:00:00 16.61667 C 10.84 g/m*3 16.62 C 11.94167 km/h
967 17-08-2014 11:00:00 17.575 C 10.62 g/m*3 17.58 C 15.03333 km/h
968 17-08-2014 12:00:00 18.49167 C 10.19 g/m*3 18.49 C 18.5 km/h
969 17-08-2014 13:00:00 18.375 C 9.89 g/m*3 18.38 C 13.7 km/h
970 17-08-2014 14:00:00 18.09167 C 9.74 g/m*3 18.09 C 14.1 km/h
971 17-08-2014 15:00:00 18.36667 C 9.72 g/m*3 18.37 C 11.55 km/h
972 17-08-2014 16:00:00 18.66667 C 9.81 g/m*3 18.67 C 13.69167 km/h
973 17-08-2014 17:00:00 18.31667 C 9.81 g/m*3 18.32 C 8.325 km/h
974 17-08-2014 18:00:00 18.375 C 10.04 g/m*3 18.38 C 8.73333 km/h
975 17-08-2014 19:00:00 17.89167 C 10.44 g/m*3 17.89 C 6.30833 km/h
Sensor: Nr:Datum:Temp:Abs-Feuchte:Windchill:Wind:
Aussen-T/F 976 17-08-2014 20:00:00 17.56667 C 10.35 g/m*3 17.57 C 7.65 km/h
977 17-08-2014 21:00:00 17.18333 C 10.11 g/m*3 17.18 C 6.30833 km/h
978 17-08-2014 22:00:00 16.775 C 9.85 g/m*3 16.77 C 7.91667 km/h
979 17-08-2014 23:00:00 16.88333 C 9.91 g/m*3 16.88 C 9.13333 km/h
980 18-08-2014 00:00:00 17.05 C 10.03 g/m*3 17.05 C 12.225 km/h
981 18-08-2014 01:00:00 16.675 C 9.96 g/m*3 16.68 C 11.29167 km/h
982 18-08-2014 02:00:00 16.21667 C 9.88 g/m*3 16.22 C 10.61667 km/h
983 18-08-2014 03:00:00 15.95 C 9.94 g/m*3 15.95 C 10.35 km/h
984 18-08-2014 04:00:00 15.70833 C 10.11 g/m*3 15.71 C 11.425 km/h
985 18-08-2014 05:00:00 15.06667 C 10.34 g/m*3 15.07 C 10.74167 km/h
986 18-08-2014 06:00:00 14.95 C 10.31 g/m*3 14.95 C 10.89167 km/h
987 18-08-2014 07:00:00 14.95 C 10.39 g/m*3 14.95 C 9.55 km/h
988 18-08-2014 08:00:00 14.23333 C 10.62 g/m*3 14.23 C 8.325 km/h
989 18-08-2014 09:00:00 13.65 C 10.86 g/m*3 13.65 C 4.28333 km/h
990 18-08-2014 10:00:00 14.26667 C 11.15 g/m*3 14.27 C 6.16667 km/h
991 18-08-2014 11:00:00 15.84167 C 11.52 g/m*3 15.84 C 9.825 km/h
992 18-08-2014 12:00:00 17.175 C 10.98 g/m*3 17.18 C 10.89167 km/h
993 18-08-2014 13:00:00 17.4 C 10.55 g/m*3 17.4 C 13.55833 km/h
994 18-08-2014 14:00:00 16.50833 C 10.77 g/m*3 16.51 C 6.85833 km/h
995 18-08-2014 15:00:00 17.51667 C 10.96 g/m*3 17.52 C 5.75833 km/h
996 18-08-2014 16:00:00 19.4 C 10.39 g/m*3 19.4 C 11.69167 km/h
997 18-08-2014 17:00:00 20.59167 C 8.18 g/m*3 20.59 C 17.96667 km/h
998 18-08-2014 18:00:00 19.525 C 8.92 g/m*3 19.52 C 11.025 km/h
999 18-08-2014 19:00:00 18.675 C 8.78 g/m*3 18.68 C 12.35833 km/h
1000 18-08-2014 20:00:00 17.03333 C 9.74 g/m*3 17.03 C 3.9 km/h
Sensor: Nr:Datum:Temp:Abs-Feuchte:Windchill:Wind:
Aussen-T/F 1001 18-08-2014 21:00:00 14.76667 C 10.43 g/m*3 14.77 C 0.13333 km/h
1002 18-08-2014 22:00:00 14.225 C 10.34 g/m*3 14.23 C 0 km/h
1003 18-08-2014 23:00:00 13.925 C 10.25 g/m*3 13.93 C 0 km/h
1004 19-08-2014 00:00:00 13.5 C 10.05 g/m*3 13.5 C 0 km/h
1005 19-08-2014 01:00:00 12.44167 C 9.65 g/m*3 12.44 C 0 km/h
1006 19-08-2014 02:00:00 11.60833 C 9.43 g/m*3 11.61 C 0 km/h
1007 19-08-2014 03:00:00 10.93333 C 9.23 g/m*3 10.93 C 0 km/h
1008 19-08-2014 04:00:00 10.525 C 9.07 g/m*3 10.53 C 0 km/h
1009 19-08-2014 05:00:00 10.29167 C 9.06 g/m*3 10.29 C 0 km/h
1010 19-08-2014 06:00:00 10.45833 C 9.19 g/m*3 10.46 C 1.46667 km/h
1011 19-08-2014 07:00:00 11.00833 C 9.46 g/m*3 11.01 C 1.6 km/h
1012 19-08-2014 08:00:00 12.3 C 10.01 g/m*3 12.3 C 6.96667 km/h
1013 19-08-2014 09:00:00 13.99167 C 10.25 g/m*3 13.99 C 9.28333 km/h
1014 19-08-2014 10:00:00 15.54167 C 10.27 g/m*3 15.54 C 14.63333 km/h
1015 19-08-2014 11:00:00 16.39167 C 10.23 g/m*3 16.39 C 15.96667 km/h
1016 19-08-2014 12:00:00 17.94167 C 10.13 g/m*3 17.94 C 15.29167 km/h
1017 19-08-2014 13:00:00 19.725 C 9.92 g/m*3 19.73 C 14.625 km/h
1018 19-08-2014 14:00:00 19.59167 C 10 g/m*3 19.59 C 16.63333 km/h
1019 19-08-2014 15:00:00 15.925 C 10.31 g/m*3 15.93 C 12.35 km/h
1020 19-08-2014 16:00:00 14.54167 C 10.94 g/m*3 14.54 C 4.175 km/h
1021 19-08-2014 17:00:00 15.13333 C 11.58 g/m*3 15.13 C 0 km/h
1022 19-08-2014 18:00:00 14.63333 C 11.02 g/m*3 14.63 C 4.69167 km/h
1023 19-08-2014 19:00:00 13.95833 C 9.37 g/m*3 13.96 C 7.65 km/h
1024 19-08-2014 20:00:00 13.89167 C 8.93 g/m*3 13.89 C 5.08333 km/h
1025 19-08-2014 21:00:00 12.86667 C 9.56 g/m*3 12.87 C 1.60833 km/h
Sensor: Nr:Datum:Temp:Abs-Feuchte:Windchill:Wind:
Aussen-T/F 1026 19-08-2014 22:00:00 11.95 C 9.56 g/m*3 11.95 C 0 km/h
1027 19-08-2014 23:00:00 11.96667 C 9.3 g/m*3 11.97 C 0 km/h
1028 20-08-2014 00:00:00 12.025 C 9 g/m*3 12.03 C 0 km/h
1029 20-08-2014 01:00:00 11.25 C 8.73 g/m*3 11.25 C 0 km/h
1030 20-08-2014 02:00:00 10.55 C 8.5 g/m*3 10.55 C 0 km/h
1031 20-08-2014 03:00:00 9.49167 C 8.26 g/m*3 9.49 C 0 km/h
1032 20-08-2014 04:00:00 8.61667 C 8.03 g/m*3 8.62 C 0 km/h
1033 20-08-2014 05:00:00 8.33333 C 7.95 g/m*3 8.33 C 0 km/h
1034 20-08-2014 06:00:00 8.14167 C 7.88 g/m*3 8.14 C 0 km/h
1035 20-08-2014 07:00:00 7.98333 C 7.85 g/m*3 7.98 C 0 km/h
1036 20-08-2014 08:00:00 8.675 C 8.26 g/m*3 8.68 C 1.33333 km/h
1037 20-08-2014 09:00:00 10.58333 C 8.97 g/m*3 10.58 C 1.06667 km/h
1038 20-08-2014 10:00:00 11.96667 C 9.42 g/m*3 11.97 C 0.4 km/h
1039 20-08-2014 11:00:00 13.79167 C 9.61 g/m*3 13.79 C 0.93333 km/h
1040 20-08-2014 12:00:00 16.14167 C 9.29 g/m*3 16.14 C 2.95 km/h
1041 20-08-2014 13:00:00 14.675 C 10.52 g/m*3 14.68 C 0.675 km/h
1042 20-08-2014 14:00:00 17.70833 C 8.87 g/m*3 17.71 C 6.16667 km/h
1043 20-08-2014 15:00:00 17.325 C 10.52 g/m*3 17.33 C 0.66667 km/h
1044 20-08-2014 16:00:00 17.79167 C 9.58 g/m*3 17.79 C 5.21667 km/h
1045 20-08-2014 17:00:00 17.55833 C 10.62 g/m*3 17.56 C 0.80833 km/h
1046 20-08-2014 18:00:00 17.16667 C 11.02 g/m*3 17.17 C 1.2 km/h
1047 20-08-2014 19:00:00 15.01667 C 10.28 g/m*3 15.02 C 2.94167 km/h
1048 20-08-2014 20:00:00 14.13333 C 10.04 g/m*3 14.13 C 0.66667 km/h
1049 20-08-2014 21:00:00 12.825 C 9.13 g/m*3 12.83 C 2.28333 km/h
1050 20-08-2014 22:00:00 11.83333 C 9.15 g/m*3 11.83 C 0 km/h
Sensor: Nr:Datum:Temp:Abs-Feuchte:Windchill:Wind:
Aussen-T/F 1051 20-08-2014 23:00:00 10.9 C 8.95 g/m*3 10.9 C 0 km/h
1052 21-08-2014 00:00:00 10.35833 C 8.72 g/m*3 10.36 C 0 km/h
1053 21-08-2014 01:00:00 9.63333 C 8.51 g/m*3 9.63 C 0 km/h
1054 21-08-2014 02:00:00 9.725 C 8.63 g/m*3 9.73 C 0 km/h
1055 21-08-2014 03:00:00 9.35 C 8.41 g/m*3 9.35 C 0 km/h
1056 21-08-2014 04:00:00 8.90833 C 8.26 g/m*3 8.91 C 0 km/h
1057 21-08-2014 05:00:00 8.54167 C 8.13 g/m*3 8.54 C 0 km/h
1058 21-08-2014 06:00:00 8.2 C 7.96 g/m*3 8.2 C 0.13333 km/h
1059 21-08-2014 07:00:00 8.20833 C 8.04 g/m*3 8.21 C 0.13333 km/h
1060 21-08-2014 08:00:00 8.76667 C 8.34 g/m*3 8.77 C 0.13333 km/h
1061 21-08-2014 09:00:00 9.94167 C 8.92 g/m*3 9.94 C 0.4 km/h
1062 21-08-2014 10:00:00 12.58333 C 9.44 g/m*3 12.58 C 6.70833 km/h
1063 21-08-2014 11:00:00 14.55833 C 9.54 g/m*3 14.56 C 3.61667 km/h
1064 21-08-2014 12:00:00 16.725 C 9.87 g/m*3 16.73 C 5.75833 km/h
1065 21-08-2014 13:00:00 15.10833 C 10.4 g/m*3 15.11 C 1.475 km/h
1066 21-08-2014 14:00:00 17.36667 C 9.68 g/m*3 17.37 C 3.48333 km/h
1067 21-08-2014 15:00:00 17.75833 C 9.83 g/m*3 17.76 C 4.825 km/h
1068 21-08-2014 16:00:00 18.6 C 9.97 g/m*3 18.6 C 4.13333 km/h
1069 21-08-2014 17:00:00 18.75833 C 9.64 g/m*3 18.76 C 7.39167 km/h
1070 21-08-2014 18:00:00 17.5 C 10.27 g/m*3 17.5 C 2 km/h
1071 21-08-2014 19:00:00 14.91667 C 10.13 g/m*3 14.92 C 2.66667 km/h
1072 21-08-2014 20:00:00 14.125 C 9.94 g/m*3 14.13 C 1.2 km/h
1073 21-08-2014 21:00:00 13.75833 C 9.86 g/m*3 13.76 C 0.13333 km/h
1074 21-08-2014 22:00:00 12.98333 C 9.67 g/m*3 12.98 C 0 km/h
1075 21-08-2014 23:00:00 11.94167 C 9.26 g/m*3 11.94 C 0 km/h
Sensor: Nr:Datum:Temp:Abs-Feuchte:Windchill:Wind:
Aussen-T/F 1076 22-08-2014 00:00:00 11 C 8.87 g/m*3 11 C 0 km/h
1077 22-08-2014 01:00:00 10.16667 C 8.57 g/m*3 10.17 C 0 km/h
1078 22-08-2014 02:00:00 9.36667 C 8.24 g/m*3 9.37 C 0 km/h
1079 22-08-2014 03:00:00 8.76667 C 8.06 g/m*3 8.77 C 0 km/h
1080 22-08-2014 04:00:00 8.25833 C 7.85 g/m*3 8.26 C 0 km/h
1081 22-08-2014 05:00:00 8.31667 C 7.96 g/m*3 8.32 C 0 km/h
1082 22-08-2014 06:00:00 9.06667 C 8.28 g/m*3 9.07 C 0 km/h
1083 22-08-2014 07:00:00 10 C 8.56 g/m*3 10 C 0 km/h
1084 22-08-2014 08:00:00 11.28333 C 8.76 g/m*3 11.28 C 3.35 km/h
1085 22-08-2014 09:00:00 12.725 C 9.12 g/m*3 12.73 C 6.99167 km/h
1086 22-08-2014 10:00:00 14.53333 C 9.66 g/m*3 14.53 C 5.61667 km/h
1087 22-08-2014 11:00:00 17.275 C 9.52 g/m*3 17.27 C 10.63333 km/h
1088 22-08-2014 12:00:00 18.23333 C 9.15 g/m*3 18.23 C 13.16667 km/h
1089 22-08-2014 13:00:00 18.63333 C 9.13 g/m*3 18.63 C 13.03333 km/h
1090 22-08-2014 14:00:00 18.51667 C 9.12 g/m*3 18.52 C 10.1 km/h
1091 22-08-2014 15:00:00 18.81667 C 9.89 g/m*3 18.82 C 6.04167 km/h
1092 22-08-2014 16:00:00 18.76667 C 10.14 g/m*3 18.77 C 7.65 km/h
1093 22-08-2014 17:00:00 17.35 C 10.95 g/m*3 17.35 C 1.2 km/h
1094 22-08-2014 18:00:00 18.89167 C 10.57 g/m*3 18.89 C 4.7 km/h
1095 22-08-2014 19:00:00 17.70833 C 10.91 g/m*3 17.71 C 2.26667 km/h
1096 22-08-2014 20:00:00 15.975 C 10.49 g/m*3 15.98 C 2 km/h
1097 22-08-2014 21:00:00 14.75833 C 10.4 g/m*3 14.76 C 0.26667 km/h
1098 22-08-2014 22:00:00 14.23333 C 10.32 g/m*3 14.23 C 0 km/h
1099 22-08-2014 23:00:00 14.33333 C 10.52 g/m*3 14.33 C 0 km/h
1100 23-08-2014 00:00:00 14.49167 C 10.27 g/m*3 14.49 C 0 km/h
Sensor: Nr:Datum:Temp:Abs-Feuchte:Windchill:Wind:
Aussen-T/F 1101 23-08-2014 01:00:00 13.70833 C 10.27 g/m*3 13.71 C 0 km/h
1102 23-08-2014 02:00:00 13.925 C 10.3 g/m*3 13.93 C 0 km/h
1103 23-08-2014 03:00:00 13.93333 C 10.33 g/m*3 13.93 C 2.275 km/h
1104 23-08-2014 04:00:00 13.81667 C 10.32 g/m*3 13.82 C 4.14167 km/h
1105 23-08-2014 05:00:00 13.58333 C 10.37 g/m*3 13.58 C 3.20833 km/h
1106 23-08-2014 06:00:00 13.28333 C 10.45 g/m*3 13.28 C 2.4 km/h
1107 23-08-2014 07:00:00 13.04167 C 10.43 g/m*3 13.04 C 0.26667 km/h
1108 23-08-2014 08:00:00 13.79167 C 10.61 g/m*3 13.79 C 5.35833 km/h
1109 23-08-2014 09:00:00 14.85 C 10.58 g/m*3 14.85 C 10.49167 km/h
1110 23-08-2014 10:00:00 16.18333 C 10.26 g/m*3 16.18 C 11.83333 km/h
1111 23-08-2014 11:00:00 17.21667 C 9.61 g/m*3 17.22 C 12.5 km/h
1112 23-08-2014 12:00:00 18.2 C 9.26 g/m*3 18.2 C 13.3 km/h
1113 23-08-2014 13:00:00 18.79167 C 9.43 g/m*3 18.79 C 13.96667 km/h
1114 23-08-2014 14:00:00 19.23333 C 9.64 g/m*3 19.23 C 13.7 km/h
1115 23-08-2014 15:00:00 16.38333 C 10.04 g/m*3 16.38 C 6.55833 km/h
1116 23-08-2014 16:00:00 14.05833 C 10.43 g/m*3 14.06 C 2.13333 km/h
1117 23-08-2014 17:00:00 12.85 C 10.21 g/m*3 12.85 C 4.825 km/h
1118 23-08-2014 18:00:00 13.79167 C 10.74 g/m*3 13.79 C 1.6 km/h
1119 23-08-2014 19:00:00 12.54167 C 10.36 g/m*3 12.54 C 0.93333 km/h
1120 23-08-2014 20:00:00 11.85833 C 9.89 g/m*3 11.86 C 1.73333 km/h
1121 23-08-2014 21:00:00 11.35833 C 9.73 g/m*3 11.36 C 1.33333 km/h
1122 23-08-2014 22:00:00 11.05833 C 9.55 g/m*3 11.06 C 1.06667 km/h
1123 23-08-2014 23:00:00 10.5 C 9.3 g/m*3 10.5 C 0.4 km/h
1124 24-08-2014 00:00:00 10.06667 C 9.06 g/m*3 10.07 C 0.26667 km/h
1125 24-08-2014 01:00:00 9.725 C 8.88 g/m*3 9.73 C 0.66667 km/h
Sensor: Nr:Datum:Temp:Abs-Feuchte:Windchill:Wind:
Aussen-T/F 1126 24-08-2014 02:00:00 10.26667 C 9.23 g/m*3 9.8 C 5.90833 km/h
1127 24-08-2014 03:00:00 10.33333 C 9.09 g/m*3 10.33 C 0.8 km/h
1128 24-08-2014 04:00:00 9.80833 C 8.91 g/m*3 9.81 C 0.53333 km/h
1129 24-08-2014 05:00:00 8.95 C 8.44 g/m*3 8.95 C 0.26667 km/h
1130 24-08-2014 06:00:00 8.90833 C 8.42 g/m*3 8.91 C 1.33333 km/h
1131 24-08-2014 07:00:00 9.53333 C 8.7 g/m*3 9.53 C 2.93333 km/h
1132 24-08-2014 08:00:00 10.06667 C 8.82 g/m*3 10.07 C 4.30833 km/h
1133 24-08-2014 09:00:00 11.16667 C 9.11 g/m*3 11.17 C 8.89167 km/h
1134 24-08-2014 10:00:00 11.93333 C 9.28 g/m*3 11.93 C 11.95833 km/h
1135 24-08-2014 11:00:00 13.25833 C 9.55 g/m*3 13.26 C 11.3 km/h
1136 24-08-2014 12:00:00 14.70833 C 9.92 g/m*3 14.71 C 8.59167 km/h
1137 24-08-2014 13:00:00 15.66667 C 9.94 g/m*3 15.67 C 10.33333 km/h
1138 24-08-2014 14:00:00 10.76667 C 9.38 g/m*3 10.77 C 1.06667 km/h
1139 24-08-2014 15:00:00 12.69167 C 10.79 g/m*3 12.69 C 0.26667 km/h
1140 24-08-2014 16:00:00 13.76667 C 11.42 g/m*3 13.77 C 0.13333 km/h
1141 24-08-2014 17:00:00 13.275 C 11.11 g/m*3 13.28 C 1.2 km/h
1142 24-08-2014 18:00:00 13.51667 C 11.3 g/m*3 13.52 C 0.4 km/h
1143 24-08-2014 19:00:00 13.575 C 11.25 g/m*3 13.58 C 0.13333 km/h
1144 24-08-2014 20:00:00 12.74167 C 10.76 g/m*3 12.74 C 0.66667 km/h
1145 24-08-2014 21:00:00 11.675 C 10.11 g/m*3 11.68 C 0.26667 km/h
1146 24-08-2014 22:00:00 11.225 C 9.85 g/m*3 11.23 C 0 km/h
1147 24-08-2014 23:00:00 10.53333 C 9.43 g/m*3 10.53 C 0 km/h
1148 25-08-2014 00:00:00 10.38333 C 9.34 g/m*3 10.38 C 0 km/h
1149 25-08-2014 01:00:00 10.23333 C 9.34 g/m*3 10.23 C 0 km/h
1150 25-08-2014 02:00:00 10.3 C 9.39 g/m*3 10.3 C 0 km/h
Sensor: Nr:Datum:Temp:Abs-Feuchte:Windchill:Wind:
Aussen-T/F 1151 25-08-2014 03:00:00 10.3 C 9.39 g/m*3 10.3 C 0 km/h
1152 25-08-2014 04:00:00 10.21667 C 9.34 g/m*3 10.22 C 0 km/h
1153 25-08-2014 05:00:00 10.025 C 9.22 g/m*3 10.03 C 0 km/h
1154 25-08-2014 06:00:00 9.75 C 9.06 g/m*3 9.75 C 0 km/h
1155 25-08-2014 07:00:00 9.925 C 9.16 g/m*3 9.93 C 0 km/h
1156 25-08-2014 08:00:00 10.45 C 9.47 g/m*3 10.45 C 0.26667 km/h
1157 25-08-2014 09:00:00 11.16667 C 9.91 g/m*3 11.17 C 0 km/h
1158 25-08-2014 10:00:00 12.775 C 10.96 g/m*3 12.78 C 0 km/h
1159 25-08-2014 11:00:00 14.25833 C 11.95 g/m*3 14.26 C 0.26667 km/h
1160 25-08-2014 12:00:00 15.80833 C 12.11 g/m*3 15.81 C 4.96667 km/h
1161 25-08-2014 13:00:00 18.45833 C 11.44 g/m*3 18.46 C 10.88333 km/h
1162 25-08-2014 14:00:00 18.25 C 11.64 g/m*3 18.25 C 6.58333 km/h
1163 25-08-2014 15:00:00 16.41667 C 12.32 g/m*3 16.42 C 1.06667 km/h
1164 25-08-2014 16:00:00 16.325 C 11.98 g/m*3 16.33 C 6.175 km/h
1165 25-08-2014 17:00:00 16.04167 C 12.13 g/m*3 16.04 C 1.73333 km/h
1166 25-08-2014 18:00:00 15.39167 C 12.27 g/m*3 15.39 C 0 km/h
1167 25-08-2014 19:00:00 14.91667 C 12.17 g/m*3 14.92 C 0 km/h
1168 25-08-2014 20:00:00 14.44167 C 11.9 g/m*3 14.44 C 0 km/h
1169 25-08-2014 21:00:00 14.2 C 11.84 g/m*3 14.2 C 0 km/h
1170 25-08-2014 22:00:00 14.00833 C 11.71 g/m*3 14.01 C 0 km/h
1171 25-08-2014 23:00:00 13.68333 C 11.47 g/m*3 13.68 C 0.13333 km/h
1172 26-08-2014 00:00:00 13.39167 C 11.27 g/m*3 13.39 C 0 km/h
1173 26-08-2014 01:00:00 13.15 C 11.1 g/m*3 13.15 C 0.26667 km/h
1174 26-08-2014 02:00:00 12.9 C 11.02 g/m*3 12.9 C 0.53333 km/h
1175 26-08-2014 03:00:00 12.81667 C 10.94 g/m*3 12.82 C 0 km/h
Sensor: Nr:Datum:Temp:Abs-Feuchte:Windchill:Wind:
Aussen-T/F 1176 26-08-2014 04:00:00 12.79167 C 10.97 g/m*3 12.79 C 0.26667 km/h
1177 26-08-2014 05:00:00 12.7 C 10.91 g/m*3 12.7 C 0 km/h
1178 26-08-2014 06:00:00 12.7 C 10.91 g/m*3 12.7 C 0 km/h
1179 26-08-2014 07:00:00 12.78333 C 10.97 g/m*3 12.78 C 0 km/h
1180 26-08-2014 08:00:00 13.1 C 11.18 g/m*3 13.1 C 0.13333 km/h
1181 26-08-2014 09:00:00 14.13333 C 11.92 g/m*3 14.13 C 0.4 km/h
1182 26-08-2014 10:00:00 15.70833 C 13.13 g/m*3 15.71 C 1.86667 km/h
1183 26-08-2014 11:00:00 16.45 C 13.47 g/m*3 16.45 C 3.61667 km/h
1184 26-08-2014 12:00:00 16.475 C 13.53 g/m*3 16.48 C 1.33333 km/h
1185 26-08-2014 13:00:00 17.31667 C 14.07 g/m*3 17.32 C 2.675 km/h
1186 26-08-2014 14:00:00 17.525 C 13.71 g/m*3 17.52 C 3.075 km/h
1187 26-08-2014 15:00:00 17.425 C 14.1 g/m*3 17.43 C 1.46667 km/h
1188 26-08-2014 16:00:00 16.73333 C 13.66 g/m*3 16.73 C 0.53333 km/h
1189 26-08-2014 17:00:00 16.44167 C 13.51 g/m*3 16.44 C 0 km/h
1190 26-08-2014 18:00:00 16.43333 C 13.57 g/m*3 16.43 C 0 km/h
1191 26-08-2014 19:00:00 16.06667 C 13.27 g/m*3 16.07 C 0.13333 km/h
1192 26-08-2014 20:00:00 15.34167 C 12.69 g/m*3 15.34 C 1.33333 km/h
1193 26-08-2014 21:00:00 14.49167 C 12.06 g/m*3 14.49 C 2.66667 km/h
1194 26-08-2014 22:00:00 14.24167 C 11.87 g/m*3 14.24 C 0.4 km/h
1195 26-08-2014 23:00:00 13.95833 C 11.67 g/m*3 13.96 C 0.93333 km/h
1196 27-08-2014 00:00:00 13.80833 C 11.61 g/m*3 13.81 C 0.66667 km/h
1197 27-08-2014 01:00:00 13.64167 C 11.53 g/m*3 13.64 C 0 km/h
1198 27-08-2014 02:00:00 13.59167 C 11.53 g/m*3 13.59 C 0 km/h
1199 27-08-2014 03:00:00 13.55833 C 11.5 g/m*3 13.56 C 0 km/h
1200 27-08-2014 04:00:00 13.4 C 11.39 g/m*3 13.4 C 0 km/h
Sensor: Nr:Datum:Temp:Abs-Feuchte:Windchill:Wind:
Aussen-T/F 1201 27-08-2014 05:00:00 13.18333 C 11.24 g/m*3 13.18 C 0 km/h
1202 27-08-2014 06:00:00 12.63333 C 10.86 g/m*3 12.63 C 0 km/h
1203 27-08-2014 07:00:00 12.33333 C 10.66 g/m*3 12.33 C 0 km/h
1204 27-08-2014 08:00:00 13.28182 C 11.39 g/m*3 13.28 C 0 km/h
1205 27-08-2014 09:00:00 13.425 C 11.41 g/m*3 13.43 C 0 km/h
1206 27-08-2014 10:00:00 14.325 C 11.98 g/m*3 14.33 C 0 km/h
1207 27-08-2014 11:00:00 15.475 C 11.85 g/m*3 15.48 C 3.46667 km/h
1208 27-08-2014 12:00:00 16.04167 C 12.26 g/m*3 16.04 C 2.00833 km/h
1209 27-08-2014 13:00:00 18.08333 C 12.41 g/m*3 18.08 C 3.2 km/h
1210 27-08-2014 14:00:00 18.33333 C 13.03 g/m*3 18.33 C 3.75 km/h
1211 27-08-2014 15:00:00 20.79167 C 12.34 g/m*3 20.79 C 4.4 km/h
1212 27-08-2014 16:00:00 20.48333 C 12.7 g/m*3 20.48 C 1.86667 km/h
1213 27-08-2014 17:00:00 19.31667 C 13.13 g/m*3 19.32 C 1.86667 km/h
1214 27-08-2014 18:00:00 17.325 C 13.27 g/m*3 17.33 C 0.13333 km/h
1215 27-08-2014 19:00:00 16.75 C 12.9 g/m*3 16.75 C 0.26667 km/h
1216 27-08-2014 20:00:00 15.01667 C 11.96 g/m*3 15.02 C 0.53333 km/h
1217 27-08-2014 21:00:00 14.61667 C 11.88 g/m*3 14.62 C 0 km/h
1218 27-08-2014 22:00:00 14.05833 C 11.47 g/m*3 14.06 C 0 km/h
1219 27-08-2014 23:00:00 13.35833 C 11.04 g/m*3 13.36 C 0 km/h
1220 28-08-2014 00:00:00 12.78333 C 10.74 g/m*3 12.78 C 0 km/h
1221 28-08-2014 01:00:00 12.4 C 10.59 g/m*3 12.4 C 0 km/h
1222 28-08-2014 02:00:00 12.13333 C 10.42 g/m*3 12.13 C 0 km/h
1223 28-08-2014 03:00:00 12.09167 C 10.4 g/m*3 12.09 C 0 km/h
1224 28-08-2014 04:00:00 11.75 C 10.19 g/m*3 11.75 C 0 km/h
1225 28-08-2014 05:00:00 11.73333 C 10.19 g/m*3 11.73 C 0 km/h
Sensor: Nr:Datum:Temp:Abs-Feuchte:Windchill:Wind:
Aussen-T/F 1226 28-08-2014 06:00:00 11.69167 C 10.24 g/m*3 11.69 C 0 km/h
1227 28-08-2014 07:00:00 11.61667 C 10.19 g/m*3 11.62 C 0 km/h
1228 28-08-2014 08:00:00 11.875 C 10.36 g/m*3 11.88 C 0 km/h
1229 28-08-2014 09:00:00 12.79167 C 10.97 g/m*3 12.79 C 0 km/h
1230 28-08-2014 10:00:00 14.7 C 12.34 g/m*3 14.7 C 0 km/h
1231 28-08-2014 11:00:00 16.75 C 13.68 g/m*3 16.75 C 2 km/h
1232 28-08-2014 12:00:00 19.64167 C 14.55 g/m*3 19.64 C 0.66667 km/h
1233 28-08-2014 13:00:00 19.575 C 14.65 g/m*3 19.58 C 0.53333 km/h
1234 28-08-2014 14:00:00 21.4 C 15.3 g/m*3 21.4 C 2.14167 km/h
1235 28-08-2014 15:00:00 21.15 C 14.58 g/m*3 21.15 C 3.475 km/h
1236 28-08-2014 16:00:00 20.59167 C 15.15 g/m*3 20.59 C 0.66667 km/h
1237 28-08-2014 17:00:00 19.975 C 14.67 g/m*3 19.98 C 2.13333 km/h
1238 28-08-2014 18:00:00 19.50833 C 14.97 g/m*3 19.51 C 0.53333 km/h
1239 28-08-2014 19:00:00 18.60833 C 14.73 g/m*3 18.61 C 0 km/h
1240 28-08-2014 20:00:00 17.61667 C 14.05 g/m*3 17.62 C 0 km/h
1241 28-08-2014 21:00:00 16.8 C 13.65 g/m*3 16.8 C 0.13333 km/h
1242 28-08-2014 22:00:00 16.74167 C 13.68 g/m*3 16.74 C 0 km/h
1243 28-08-2014 23:00:00 16.25 C 13.31 g/m*3 16.25 C 0 km/h
1244 29-08-2014 00:00:00 16.11667 C 13.25 g/m*3 16.12 C 0 km/h
1245 29-08-2014 01:00:00 16.05833 C 13.26 g/m*3 16.06 C 0 km/h
1246 29-08-2014 02:00:00 16.125 C 13.32 g/m*3 16.13 C 0.13333 km/h
1247 29-08-2014 03:00:00 16.33333 C 13.48 g/m*3 16.33 C 0 km/h
1248 29-08-2014 04:00:00 16.3 C 13.46 g/m*3 16.3 C 0 km/h
1249 29-08-2014 05:00:00 16.00833 C 13.22 g/m*3 16.01 C 0 km/h
1250 29-08-2014 06:00:00 15.875 C 13.12 g/m*3 15.88 C 0 km/h
Sensor: Nr:Datum:Temp:Abs-Feuchte:Windchill:Wind:
Aussen-T/F 1251 29-08-2014 07:00:00 15.725 C 13 g/m*3 15.73 C 0 km/h
1252 29-08-2014 08:00:00 16 C 13.17 g/m*3 16 C 0.26667 km/h
1253 29-08-2014 09:00:00 17.15833 C 13.32 g/m*3 17.16 C 3.06667 km/h
1254 29-08-2014 10:00:00 17.98333 C 13.41 g/m*3 17.98 C 2.675 km/h
1255 29-08-2014 11:00:00 18.49167 C 13.35 g/m*3 18.49 C 3.75 km/h
1256 29-08-2014 12:00:00 20.08333 C 13.79 g/m*3 20.08 C 3.48333 km/h
1257 29-08-2014 13:00:00 22.30833 C 14.13 g/m*3 22.31 C 6.725 km/h
1258 29-08-2014 14:00:00 23.80833 C 13.42 g/m*3 23.81 C 7.38333 km/h
1259 29-08-2014 15:00:00 23.5 C 13.83 g/m*3 23.5 C 7.25 km/h
1260 29-08-2014 16:00:00 22.725 C 14.16 g/m*3 22.73 C 9.8 km/h
1261 29-08-2014 17:00:00 20.74167 C 14.38 g/m*3 20.74 C 6.58333 km/h
1262 29-08-2014 18:00:00 19.06667 C 14.23 g/m*3 19.07 C 3.36667 km/h
1263 29-08-2014 19:00:00 18.05 C 14.39 g/m*3 18.05 C 0.26667 km/h
1264 29-08-2014 20:00:00 16.975 C 13.74 g/m*3 16.98 C 0 km/h
1265 29-08-2014 21:00:00 16.33333 C 13.35 g/m*3 16.33 C 0 km/h
1266 29-08-2014 22:00:00 15.96667 C 13.14 g/m*3 15.97 C 0.4 km/h
1267 29-08-2014 23:00:00 15.53333 C 12.85 g/m*3 15.53 C 0 km/h
1268 30-08-2014 00:00:00 15.36667 C 12.72 g/m*3 15.37 C 0 km/h
1269 30-08-2014 01:00:00 14.54167 C 12.1 g/m*3 14.54 C 0 km/h
1270 30-08-2014 02:00:00 14.475 C 12.08 g/m*3 14.48 C 0 km/h
1271 30-08-2014 03:00:00 14.1 C 11.78 g/m*3 14.1 C 0 km/h
1272 30-08-2014 04:00:00 13.475 C 11.33 g/m*3 13.48 C 0 km/h
1273 30-08-2014 05:00:00 13.06667 C 11.09 g/m*3 13.07 C 0 km/h
1274 30-08-2014 06:00:00 13.29167 C 11.31 g/m*3 13.29 C 0 km/h
1275 30-08-2014 07:00:00 13.63333 C 11.47 g/m*3 13.63 C 0.4 km/h
Sensor: Nr:Datum:Temp:Abs-Feuchte:Windchill:Wind:
Aussen-T/F 1276 30-08-2014 08:00:00 14.175 C 11.77 g/m*3 14.18 C 4.55 km/h
1277 30-08-2014 09:00:00 15.44167 C 12.21 g/m*3 15.44 C 6.575 km/h
1278 30-08-2014 10:00:00 17.075 C 12.62 g/m*3 17.08 C 5.49167 km/h
1279 30-08-2014 11:00:00 17.98333 C 12.71 g/m*3 17.98 C 4.15 km/h
1280 30-08-2014 12:00:00 19.425 C 12.71 g/m*3 19.43 C 8.48333 km/h
1281 30-08-2014 13:00:00 19.78333 C 13 g/m*3 19.78 C 6.03333 km/h
1282 30-08-2014 14:00:00 20.575 C 13.08 g/m*3 20.58 C 7.65833 km/h
1283 30-08-2014 15:00:00 21.125 C 13.07 g/m*3 21.13 C 10.33333 km/h
1284 30-08-2014 16:00:00 19.40833 C 13.05 g/m*3 19.41 C 4.15 km/h
1285 30-08-2014 17:00:00 16.825 C 13.33 g/m*3 16.83 C 1.875 km/h
1286 30-08-2014 18:00:00 16.475 C 13.4 g/m*3 16.48 C 0.4 km/h
1287 30-08-2014 19:00:00 16.26667 C 13.29 g/m*3 16.27 C 0 km/h
1288 30-08-2014 20:00:00 15.89167 C 13.08 g/m*3 15.89 C 0.13333 km/h
1289 30-08-2014 21:00:00 15.73333 C 13 g/m*3 15.73 C 0 km/h
1290 30-08-2014 22:00:00 15.775 C 13.04 g/m*3 15.78 C 0 km/h
1291 30-08-2014 23:00:00 15.68333 C 13.02 g/m*3 15.68 C 2.425 km/h
1292 31-08-2014 00:00:00 15.125 C 12.17 g/m*3 15.13 C 3.625 km/h
1293 31-08-2014 01:00:00 14.65 C 12.05 g/m*3 14.65 C 0 km/h
1294 31-08-2014 02:00:00 14.475 C 12.05 g/m*3 14.48 C 0 km/h
1295 31-08-2014 03:00:00 14.375 C 11.97 g/m*3 14.38 C 0 km/h
1296 31-08-2014 04:00:00 14.275 C 11.9 g/m*3 14.28 C 0 km/h
1297 31-08-2014 05:00:00 13.90833 C 11.63 g/m*3 13.91 C 0 km/h
1298 31-08-2014 06:00:00 13.76667 C 11.53 g/m*3 13.77 C 0 km/h
1299 31-08-2014 07:00:00 13.85833 C 11.6 g/m*3 13.86 C 0 km/h
1300 31-08-2014 08:00:00 13.9 C 11.63 g/m*3 13.9 C 0 km/h
Sensor: Nr:Datum:Temp:Abs-Feuchte:Windchill:Wind:
Aussen-T/F 1301 31-08-2014 09:00:00 15 C 11.86 g/m*3 15 C 0.8 km/h
1302 31-08-2014 10:00:00 16.275 C 11.73 g/m*3 16.27 C 4.14167 km/h
1303 31-08-2014 11:00:00 17.25833 C 11.99 g/m*3 17.26 C 2.4 km/h
1304 31-08-2014 12:00:00 17.51667 C 11.8 g/m*3 17.52 C 8.2 km/h
1305 31-08-2014 13:00:00 18.06667 C 11.91 g/m*3 18.07 C 10.09167 km/h
1306 31-08-2014 14:00:00 17.99167 C 12.14 g/m*3 17.99 C 3.35 km/h
1307 31-08-2014 15:00:00 14.69167 C 11.37 g/m*3 14.69 C 2.55 km/h
1308 31-08-2014 16:00:00 14.5 C 11.85 g/m*3 14.5 C 0 km/h
1309 31-08-2014 17:00:00 14.09167 C 11.66 g/m*3 14.09 C 0 km/h
1310 31-08-2014 18:00:00 13.81667 C 11.56 g/m*3 13.82 C 0 km/h
1311 31-08-2014 19:00:00 13.74167 C 11.52 g/m*3 13.74 C 0 km/h
1312 31-08-2014 20:00:00 13.38333 C 11.26 g/m*3 13.38 C 0.4 km/h
1313 31-08-2014 21:00:00 13.175 C 11.12 g/m*3 13.18 C 0.8 km/h
1314 31-08-2014 22:00:00 12.53333 C 10.69 g/m*3 12.53 C 0 km/h
1315 31-08-2014 23:00:00 12.44167 C 10.69 g/m*3 12.44 C 0 km/h
1316 01-09-2014 00:00:00 12.45 C 10.74 g/m*3 12.45 C 0 km/h
1317 01-09-2014 01:00:00 12.4 C 10.71 g/m*3 12.4 C 0 km/h
1318 01-09-2014 02:00:00 12.70833 C 10.91 g/m*3 12.71 C 0 km/h
1319 01-09-2014 03:00:00 12.8 C 10.98 g/m*3 12.8 C 2.26667 km/h
1320 01-09-2014 04:00:00 12.80833 C 10.98 g/m*3 12.81 C 0.4 km/h
1321 01-09-2014 05:00:00 12.73333 C 10.93 g/m*3 12.73 C 0 km/h
1322 01-09-2014 06:00:00 12.7 C 10.91 g/m*3 12.7 C 0 km/h
1323 01-09-2014 07:00:00 12.76667 C 10.95 g/m*3 12.77 C 0 km/h
1324 01-09-2014 08:00:00 13.225 C 11.25 g/m*3 13.23 C 0 km/h
1325 01-09-2014 09:00:00 14.04167 C 11.39 g/m*3 14.04 C 2.66667 km/h
Sensor: Nr:Datum:Temp:Abs-Feuchte:Windchill:Wind:
Aussen-T/F 1326 01-09-2014 10:00:00 14.825 C 11.29 g/m*3 14.83 C 2.66667 km/h
1327 01-09-2014 11:00:00 16.00833 C 11.35 g/m*3 16.01 C 6.16667 km/h
1328 01-09-2014 12:00:00 16.49167 C 11.38 g/m*3 16.49 C 4.26667 km/h
1329 01-09-2014 13:00:00 17.33333 C 11.85 g/m*3 17.33 C 2 km/h
1330 01-09-2014 14:00:00 18.03333 C 11.73 g/m*3 18.03 C 4.54167 km/h
1331 01-09-2014 15:00:00 18.75833 C 11.66 g/m*3 18.76 C 3.06667 km/h
1332 01-09-2014 16:00:00 17.325 C 12.38 g/m*3 17.33 C 0.53333 km/h
1333 01-09-2014 17:00:00 15.90833 C 12.33 g/m*3 15.91 C 0 km/h
1334 01-09-2014 18:00:00 15.84167 C 12.44 g/m*3 15.84 C 0 km/h
1335 01-09-2014 19:00:00 15.3 C 12.25 g/m*3 15.3 C 0 km/h
1336 01-09-2014 20:00:00 14.79167 C 11.88 g/m*3 14.79 C 0.4 km/h
1337 01-09-2014 21:00:00 14.45833 C 11.65 g/m*3 14.46 C 0.13333 km/h
1338 01-09-2014 22:00:00 13.80833 C 11.19 g/m*3 13.81 C 0 km/h
1339 01-09-2014 23:00:00 13.01667 C 10.77 g/m*3 13.02 C 0 km/h
1340 02-09-2014 00:00:00 12.71667 C 10.75 g/m*3 12.72 C 0 km/h
1341 02-09-2014 01:00:00 12.45833 C 10.54 g/m*3 12.46 C 0 km/h
1342 02-09-2014 02:00:00 11.70833 C 10.1 g/m*3 11.71 C 0 km/h
1343 02-09-2014 03:00:00 11.375 C 9.94 g/m*3 11.38 C 0 km/h
1344 02-09-2014 04:00:00 11.33333 C 9.91 g/m*3 11.33 C 0 km/h
1345 02-09-2014 05:00:00 11.26667 C 9.9 g/m*3 11.27 C 0 km/h
1346 02-09-2014 06:00:00 11.01667 C 9.74 g/m*3 11.02 C 0 km/h
1347 02-09-2014 07:00:00 10.775 C 9.64 g/m*3 10.78 C 0 km/h
1348 02-09-2014 08:00:00 10.85 C 9.72 g/m*3 10.85 C 0 km/h
1349 02-09-2014 09:00:00 11.20833 C 9.94 g/m*3 11.21 C 0 km/h
1350 02-09-2014 10:00:00 11.95 C 10.41 g/m*3 11.95 C 0 km/h
Sensor: Nr:Datum:Temp:Abs-Feuchte:Windchill:Wind:
Aussen-T/F 1351 02-09-2014 11:00:00 13.73333 C 11.32 g/m*3 13.73 C 0 km/h
1352 02-09-2014 12:00:00 15.81667 C 12.08 g/m*3 15.82 C 1.075 km/h
1353 02-09-2014 13:00:00 20.025 C 12.16 g/m*3 20.02 C 8.45833 km/h
1354 02-09-2014 14:00:00 20.84167 C 11.47 g/m*3 20.84 C 6.70833 km/h
1355 02-09-2014 15:00:00 21.725 C 11.83 g/m*3 21.73 C 6.30833 km/h
1356 02-09-2014 16:00:00 18.8 C 13.09 g/m*3 18.8 C 1.46667 km/h
1357 02-09-2014 17:00:00 17.69167 C 13.22 g/m*3 17.69 C 0.93333 km/h
1358 02-09-2014 18:00:00 17.09167 C 13.03 g/m*3 17.09 C 0.4 km/h
1359 02-09-2014 19:00:00 16.45 C 12.88 g/m*3 16.45 C 0 km/h
1360 02-09-2014 20:00:00 16.24167 C 12.85 g/m*3 16.24 C 0 km/h
1361 02-09-2014 21:00:00 15.61667 C 12.44 g/m*3 15.62 C 0 km/h
1362 02-09-2014 22:00:00 15.40833 C 12.48 g/m*3 15.41 C 0 km/h
1363 02-09-2014 23:00:00 14.75833 C 11.98 g/m*3 14.76 C 0 km/h
1364 03-09-2014 00:00:00 14.725 C 12.15 g/m*3 14.73 C 0 km/h
1365 03-09-2014 01:00:00 14.98333 C 12.39 g/m*3 14.98 C 0 km/h
1366 03-09-2014 02:00:00 15 C 12.36 g/m*3 15 C 0 km/h
1367 03-09-2014 03:00:00 14.24167 C 11.75 g/m*3 14.24 C 0 km/h
1368 03-09-2014 04:00:00 13.29167 C 11.05 g/m*3 13.29 C 0 km/h
1369 03-09-2014 05:00:00 12.475 C 10.54 g/m*3 12.48 C 0 km/h
1370 03-09-2014 06:00:00 12.00833 C 10.24 g/m*3 12.01 C 0 km/h
1371 03-09-2014 07:00:00 11.725 C 10.08 g/m*3 11.73 C 0 km/h
1372 03-09-2014 08:00:00 12.56667 C 10.67 g/m*3 12.57 C 0.26667 km/h
1373 03-09-2014 09:00:00 13.875 C 10.75 g/m*3 13.88 C 1.86667 km/h
1374 03-09-2014 10:00:00 15.06667 C 10.78 g/m*3 15.07 C 3.48333 km/h
1375 03-09-2014 11:00:00 16.00833 C 10.78 g/m*3 16.01 C 6.975 km/h
Sensor: Nr:Datum:Temp:Abs-Feuchte:Windchill:Wind:
Aussen-T/F 1376 03-09-2014 12:00:00 16.73333 C 11.06 g/m*3 16.73 C 7.25833 km/h
1377 03-09-2014 13:00:00 16.85 C 11.16 g/m*3 16.85 C 7.8 km/h
1378 03-09-2014 14:00:00 16.80833 C 11.35 g/m*3 16.81 C 7.24167 km/h
1379 03-09-2014 15:00:00 16.85833 C 11.61 g/m*3 16.86 C 5.90833 km/h
1380 03-09-2014 16:00:00 17.28333 C 11.96 g/m*3 17.28 C 2.66667 km/h
1381 03-09-2014 17:00:00 16.74167 C 12.5 g/m*3 16.74 C 0 km/h
1382 03-09-2014 18:00:00 16.3 C 12.75 g/m*3 16.3 C 0 km/h
1383 03-09-2014 19:00:00 16.08333 C 12.64 g/m*3 16.08 C 0 km/h
1384 03-09-2014 20:00:00 15.575 C 12.23 g/m*3 15.58 C 0 km/h
1385 03-09-2014 21:00:00 15.25 C 12.09 g/m*3 15.25 C 0 km/h
1386 03-09-2014 22:00:00 15.16667 C 12.05 g/m*3 15.17 C 0 km/h
1387 03-09-2014 23:00:00 15.175 C 12.09 g/m*3 15.18 C 0 km/h
1388 04-09-2014 00:00:00 14.98333 C 11.93 g/m*3 14.98 C 0 km/h
1389 04-09-2014 01:00:00 14.56667 C 11.6 g/m*3 14.57 C 0 km/h
1390 04-09-2014 02:00:00 14.25833 C 11.51 g/m*3 14.26 C 0 km/h
1391 04-09-2014 03:00:00 13.45 C 11.02 g/m*3 13.45 C 0 km/h
1392 04-09-2014 04:00:00 13.34167 C 11.12 g/m*3 13.34 C 0 km/h
1393 04-09-2014 05:00:00 13.64167 C 11.35 g/m*3 13.64 C 0 km/h
1394 04-09-2014 06:00:00 13.88333 C 11.5 g/m*3 13.88 C 0 km/h
1395 04-09-2014 07:00:00 14.31667 C 11.89 g/m*3 14.32 C 0 km/h
1396 04-09-2014 08:00:00 15.01667 C 12.33 g/m*3 15.02 C 0 km/h
1397 04-09-2014 09:00:00 16.05833 C 12.81 g/m*3 16.06 C 0 km/h
1398 04-09-2014 10:00:00 18.06667 C 13.2 g/m*3 18.07 C 0 km/h
1399 04-09-2014 11:00:00 19.38333 C 13.15 g/m*3 19.38 C 6.05 km/h
1400 04-09-2014 12:00:00 19.81667 C 13.26 g/m*3 19.82 C 8.46667 km/h
Sensor: Nr:Datum:Temp:Abs-Feuchte:Windchill:Wind:
Aussen-T/F 1401 04-09-2014 13:00:00 19.65 C 13.18 g/m*3 19.65 C 6.84167 km/h
1402 04-09-2014 14:00:00 20.025 C 13.49 g/m*3 20.02 C 8.20833 km/h
1403 04-09-2014 15:00:00 20.14167 C 13.5 g/m*3 20.14 C 4.825 km/h
1404 04-09-2014 16:00:00 19.68333 C 13.49 g/m*3 19.68 C 2.28333 km/h
1405 04-09-2014 17:00:00 19.05 C 14.06 g/m*3 19.05 C 0 km/h
1406 04-09-2014 18:00:00 17.90833 C 13.94 g/m*3 17.91 C 0 km/h
1407 04-09-2014 19:00:00 17.30833 C 13.71 g/m*3 17.31 C 0 km/h
1408 04-09-2014 20:00:00 17.04167 C 13.6 g/m*3 17.04 C 0 km/h
1409 04-09-2014 21:00:00 16.85 C 13.58 g/m*3 16.85 C 0 km/h
1410 04-09-2014 22:00:00 16.8 C 13.58 g/m*3 16.8 C 0 km/h
1411 04-09-2014 23:00:00 16.525 C 13.36 g/m*3 16.52 C 0 km/h
1412 05-09-2014 00:00:00 16.01667 C 13.08 g/m*3 16.02 C 0 km/h
1413 05-09-2014 01:00:00 15.7 C 12.92 g/m*3 15.7 C 0 km/h
1414 05-09-2014 02:00:00 15.88333 C 13.12 g/m*3 15.88 C 0 km/h
1415 05-09-2014 03:00:00 16 C 13.22 g/m*3 16 C 0 km/h
1416 05-09-2014 04:00:00 15.93333 C 13.16 g/m*3 15.93 C 0 km/h
1417 05-09-2014 05:00:00 15.88333 C 13.12 g/m*3 15.88 C 0 km/h
1418 05-09-2014 06:00:00 15.70833 C 12.98 g/m*3 15.71 C 0 km/h
1419 05-09-2014 07:00:00 15.70833 C 12.98 g/m*3 15.71 C 0 km/h
1420 05-09-2014 08:00:00 16.11667 C 13.38 g/m*3 16.12 C 0 km/h
1421 05-09-2014 09:00:00 16.7 C 13.71 g/m*3 16.7 C 0 km/h
1422 05-09-2014 10:00:00 18.025 C 14.13 g/m*3 18.02 C 0 km/h
1423 05-09-2014 11:00:00 19.48333 C 14.68 g/m*3 19.48 C 0 km/h
1424 05-09-2014 12:00:00 20.23333 C 15.02 g/m*3 20.23 C 0 km/h
1425 05-09-2014 13:00:00 22.45833 C 16.06 g/m*3 22.46 C 0 km/h
Sensor: Nr:Datum:Temp:Abs-Feuchte:Windchill:Wind:
Aussen-T/F 1426 05-09-2014 14:00:00 22.61667 C 16.45 g/m*3 22.62 C 0 km/h
1427 05-09-2014 15:00:00 22.25833 C 15.91 g/m*3 22.26 C 0 km/h
1428 05-09-2014 16:00:00 22.15 C 16.07 g/m*3 22.15 C 0 km/h
1429 05-09-2014 17:00:00 21.65833 C 16.1 g/m*3 21.66 C 0 km/h
1430 05-09-2014 18:00:00 20.33333 C 15.43 g/m*3 20.33 C 0 km/h
1431 05-09-2014 19:00:00 18.99167 C 14.67 g/m*3 18.99 C 0 km/h
1432 05-09-2014 20:00:00 18.125 C 14.13 g/m*3 18.13 C 0 km/h
1433 05-09-2014 21:00:00 17.29167 C 13.61 g/m*3 17.29 C 0 km/h
1434 05-09-2014 22:00:00 16.56667 C 13.19 g/m*3 16.57 C 0 km/h
1435 05-09-2014 23:00:00 15.975 C 12.88 g/m*3 15.98 C 0 km/h
1436 06-09-2014 00:00:00 15.68333 C 12.81 g/m*3 15.68 C 0 km/h
1437 06-09-2014 01:00:00 15.59167 C 12.76 g/m*3 15.59 C 0 km/h
1438 06-09-2014 02:00:00 15.125 C 12.45 g/m*3 15.13 C 0 km/h
1439 06-09-2014 03:00:00 14.73333 C 12.24 g/m*3 14.73 C 0 km/h
1440 06-09-2014 04:00:00 14.11667 C 11.78 g/m*3 14.12 C 0 km/h
1441 06-09-2014 05:00:00 13.925 C 11.69 g/m*3 13.93 C 0 km/h
1442 06-09-2014 06:00:00 13.85 C 11.64 g/m*3 13.85 C 0 km/h
1443 06-09-2014 07:00:00 13.76667 C 11.65 g/m*3 13.77 C 0 km/h
1444 06-09-2014 08:00:00 13.96667 C 11.8 g/m*3 13.97 C 0 km/h
1445 06-09-2014 09:00:00 14.39167 C 12.11 g/m*3 14.39 C 0 km/h
1446 06-09-2014 10:00:00 15.13333 C 12.67 g/m*3 15.13 C 0 km/h
1447 06-09-2014 11:00:00 17.11667 C 14.17 g/m*3 17.12 C 0 km/h
1448 06-09-2014 12:00:00 19.25833 C 15.03 g/m*3 19.26 C 0 km/h
1449 06-09-2014 13:00:00 20.925 C 16.08 g/m*3 20.93 C 0 km/h
1450 06-09-2014 14:00:00 21.04167 C 15.9 g/m*3 21.04 C 0 km/h
Sensor: Nr:Datum:Temp:Abs-Feuchte:Windchill:Wind:
Aussen-T/F 1451 06-09-2014 15:00:00 21.38333 C 16.3 g/m*3 21.38 C 0 km/h
1452 06-09-2014 16:00:00 22.90833 C 15.81 g/m*3 22.91 C 1.2 km/h
1453 06-09-2014 17:00:00 20.76667 C 15.89 g/m*3 20.77 C 0.66667 km/h
1454 06-09-2014 18:00:00 23.55 C 16.6 g/m*3 23.55 C 0.26667 km/h
1455 06-09-2014 19:00:00 20.86667 C 15.8 g/m*3 20.87 C 0.26667 km/h
1456 06-09-2014 20:00:00 18.6 C 14.76 g/m*3 18.6 C 0 km/h
1457 06-09-2014 21:00:00 17.99167 C 14.44 g/m*3 17.99 C 0 km/h
1458 06-09-2014 22:00:00 17.325 C 13.95 g/m*3 17.33 C 0 km/h
1459 06-09-2014 23:00:00 16.925 C 13.78 g/m*3 16.93 C 0 km/h
1460 07-09-2014 00:00:00 16.6 C 13.56 g/m*3 16.6 C 0 km/h
1461 07-09-2014 01:00:00 16.1 C 13.2 g/m*3 16.1 C 0 km/h
1462 07-09-2014 02:00:00 15.925 C 13.16 g/m*3 15.93 C 0 km/h
1463 07-09-2014 03:00:00 16.26667 C 13.43 g/m*3 16.27 C 1.33333 km/h
1464 07-09-2014 04:00:00 16.35833 C 13.5 g/m*3 16.36 C 0.66667 km/h
1465 07-09-2014 05:00:00 16.51667 C 13.56 g/m*3 16.52 C 0.66667 km/h
1466 07-09-2014 06:00:00 16.75833 C 13.7 g/m*3 16.76 C 0.26667 km/h
1467 07-09-2014 07:00:00 17.03333 C 13.91 g/m*3 17.03 C 0 km/h
1468 07-09-2014 08:00:00 17.21667 C 13.91 g/m*3 17.22 C 0 km/h
1469 07-09-2014 09:00:00 17.56667 C 13.68 g/m*3 17.57 C 2.4 km/h
1470 07-09-2014 10:00:00 18.15 C 13.56 g/m*3 18.15 C 6.16667 km/h
1471 07-09-2014 11:00:00 18 C 13.21 g/m*3 18 C 6.45 km/h
1472 07-09-2014 12:00:00 18.51667 C 13.26 g/m*3 18.52 C 3.46667 km/h
1473 07-09-2014 14:00:00 20.77143 C 14.54 g/m*3 20.77 C 3.9 km/h
1474 07-09-2014 15:00:00 22.025 C 13.69 g/m*3 22.03 C 5.09167 km/h
1475 07-09-2014 16:00:00 22.80833 C 13.82 g/m*3 22.81 C 3.73333 km/h
Sensor: Nr:Datum:Temp:Abs-Feuchte:Windchill:Wind:
Aussen-T/F 1476 07-09-2014 17:00:00 23.125 C 13.37 g/m*3 23.13 C 5.625 km/h
1477 07-09-2014 18:00:00 21.94167 C 13.6 g/m*3 21.94 C 5.075 km/h
1478 07-09-2014 19:00:00 18.375 C 13.61 g/m*3 18.38 C 0.13333 km/h
1479 07-09-2014 20:00:00 17.075 C 13.11 g/m*3 17.08 C 0 km/h
1480 07-09-2014 21:00:00 16.85 C 13.12 g/m*3 16.85 C 0 km/h
1481 07-09-2014 22:00:00 16.725 C 13.09 g/m*3 16.73 C 0 km/h
1482 07-09-2014 23:00:00 16.38333 C 12.89 g/m*3 16.38 C 0.13333 km/h
1483 08-09-2014 00:00:00 15.71667 C 12.5 g/m*3 15.72 C 0 km/h
1484 08-09-2014 01:00:00 15.41667 C 12.43 g/m*3 15.42 C 0 km/h
1485 08-09-2014 02:00:00 15.05 C 12.22 g/m*3 15.05 C 0 km/h
1486 08-09-2014 03:00:00 15.04167 C 12.32 g/m*3 15.04 C 0 km/h
1487 08-09-2014 04:00:00 14.83333 C 12.17 g/m*3 14.83 C 0 km/h
1488 08-09-2014 05:00:00 14.33333 C 11.88 g/m*3 14.33 C 0 km/h
1489 08-09-2014 06:00:00 14.325 C 11.94 g/m*3 14.33 C 0 km/h
1490 08-09-2014 07:00:00 14.33333 C 11.94 g/m*3 14.33 C 0 km/h
1491 08-09-2014 08:00:00 14.94167 C 12.39 g/m*3 14.94 C 0 km/h
1492 08-09-2014 09:00:00 16.11667 C 13.01 g/m*3 16.12 C 0.13333 km/h
1493 08-09-2014 10:00:00 17.28333 C 13.15 g/m*3 17.28 C 0.4 km/h
1494 08-09-2014 11:00:00 17.78333 C 13.49 g/m*3 17.78 C 0.13333 km/h
1495 08-09-2014 12:00:00 18.53333 C 13.71 g/m*3 18.53 C 0.53333 km/h
1496 08-09-2014 13:00:00 21.96667 C 14.16 g/m*3 21.97 C 5.375 km/h
1497 08-09-2014 14:00:00 22.85833 C 13.2 g/m*3 22.86 C 6.16667 km/h
1498 08-09-2014 15:00:00 23.36667 C 12.96 g/m*3 23.37 C 6.425 km/h
1499 08-09-2014 16:00:00 24.25833 C 12.68 g/m*3 24.26 C 7.11667 km/h
1500 08-09-2014 17:00:00 23.41667 C 12.8 g/m*3 23.42 C 5.35 km/h
Sensor: Nr:Datum:Temp:Abs-Feuchte:Windchill:Wind:
Aussen-T/F 1501 08-09-2014 18:00:00 22.36667 C 12.49 g/m*3 22.37 C 7.25833 km/h
1502 08-09-2014 19:00:00 21.00833 C 12.33 g/m*3 21.01 C 4.94167 km/h
1503 08-09-2014 20:00:00 17.9 C 12.53 g/m*3 17.9 C 1.86667 km/h
1504 08-09-2014 21:00:00 16.29167 C 12.02 g/m*3 16.29 C 0.93333 km/h
1505 08-09-2014 22:00:00 15.56667 C 11.82 g/m*3 15.57 C 0.13333 km/h
1506 08-09-2014 23:00:00 15.30833 C 11.8 g/m*3 15.31 C 0.4 km/h
1507 09-09-2014 00:00:00 14.48333 C 11.36 g/m*3 14.48 C 0.26667 km/h
1508 09-09-2014 01:00:00 13.825 C 11.13 g/m*3 13.83 C 0 km/h
1509 09-09-2014 02:00:00 13.4 C 10.96 g/m*3 13.4 C 0.13333 km/h
1510 09-09-2014 03:00:00 12.90833 C 10.71 g/m*3 12.91 C 0 km/h
1511 09-09-2014 04:00:00 12.50833 C 10.54 g/m*3 12.51 C 0 km/h
1512 09-09-2014 05:00:00 12.1 C 10.29 g/m*3 12.1 C 0 km/h
1513 09-09-2014 06:00:00 11.675 C 10.04 g/m*3 11.68 C 0.13333 km/h
1514 09-09-2014 07:00:00 11.6 C 10.06 g/m*3 11.6 C 0.26667 km/h
1515 09-09-2014 08:00:00 12.21667 C 10.48 g/m*3 12.22 C 0.13333 km/h
1516 09-09-2014 09:00:00 12.975 C 10.82 g/m*3 12.98 C 0.4 km/h
1517 09-09-2014 10:00:00 14.40833 C 11.23 g/m*3 14.41 C 2.53333 km/h
1518 09-09-2014 11:00:00 15.95833 C 11.53 g/m*3 15.96 C 2.66667 km/h
1519 09-09-2014 12:00:00 17.26667 C 11.15 g/m*3 17.27 C 4.95 km/h
1520 09-09-2014 13:00:00 19.30833 C 11.45 g/m*3 19.31 C 6.025 km/h
1521 09-09-2014 14:00:00 20.175 C 10.88 g/m*3 20.18 C 7.51667 km/h
1522 09-09-2014 15:00:00 21.025 C 10.62 g/m*3 21.03 C 7.79167 km/h
1523 09-09-2014 16:00:00 21.84167 C 10.24 g/m*3 21.84 C 8.19167 km/h
1524 09-09-2014 17:00:00 21.91667 C 9.82 g/m*3 21.92 C 8.05833 km/h
1525 09-09-2014 18:00:00 21.45 C 10.12 g/m*3 21.45 C 6.83333 km/h
Sensor: Nr:Datum:Temp:Abs-Feuchte:Windchill:Wind:
Aussen-T/F 1526 09-09-2014 19:00:00 19.45833 C 10.35 g/m*3 19.46 C 7.24167 km/h
1527 09-09-2014 20:00:00 15.9 C 10.54 g/m*3 15.9 C 1.74167 km/h
1528 09-09-2014 21:00:00 13.85 C 10.21 g/m*3 13.85 C 0.53333 km/h
1529 09-09-2014 22:00:00 12.975 C 10.07 g/m*3 12.98 C 0.13333 km/h
1530 09-09-2014 23:00:00 12.36667 C 9.88 g/m*3 12.37 C 0 km/h
1531 10-09-2014 00:00:00 11.675 C 9.63 g/m*3 11.68 C 0 km/h
1532 10-09-2014 01:00:00 11.56667 C 9.73 g/m*3 11.57 C 0 km/h
1533 10-09-2014 02:00:00 11.625 C 9.79 g/m*3 11.63 C 0 km/h
1534 10-09-2014 03:00:00 11.63333 C 9.8 g/m*3 11.63 C 0 km/h
1535 10-09-2014 04:00:00 11.65833 C 9.91 g/m*3 11.66 C 0.26667 km/h
1536 10-09-2014 05:00:00 11.83333 C 10.02 g/m*3 11.83 C 0.4 km/h
1537 10-09-2014 06:00:00 11.95833 C 10.1 g/m*3 11.96 C 0 km/h
1538 10-09-2014 07:00:00 12.24167 C 10.28 g/m*3 12.24 C 0.13333 km/h
1539 10-09-2014 08:00:00 12.9 C 10.68 g/m*3 12.9 C 0.66667 km/h
1540 10-09-2014 09:00:00 14.06667 C 11.14 g/m*3 14.07 C 0.8 km/h
1541 10-09-2014 10:00:00 15.10833 C 11.25 g/m*3 15.11 C 6.04167 km/h
1542 10-09-2014 11:00:00 15.86667 C 11.06 g/m*3 15.87 C 6.56667 km/h
1543 10-09-2014 12:00:00 16.55833 C 10.7 g/m*3 16.56 C 9.275 km/h
1544 10-09-2014 13:00:00 16.85833 C 10.51 g/m*3 16.86 C 8.20833 km/h
1545 10-09-2014 14:00:00 17.44167 C 10.16 g/m*3 17.44 C 8.61667 km/h
1546 10-09-2014 15:00:00 17.14167 C 10.01 g/m*3 17.14 C 8.88333 km/h
1547 10-09-2014 16:00:00 17.31667 C 9.7 g/m*3 17.32 C 8.60833 km/h
1548 10-09-2014 17:00:00 17.15833 C 9.11 g/m*3 17.16 C 9.00833 km/h
1549 10-09-2014 18:00:00 16.98333 C 9.08 g/m*3 16.98 C 6.975 km/h
1550 10-09-2014 19:00:00 15.84167 C 9.69 g/m*3 15.84 C 2.80833 km/h
Sensor: Nr:Datum:Temp:Abs-Feuchte:Windchill:Wind:
Aussen-T/F 1551 10-09-2014 20:00:00 14.5 C 10.2 g/m*3 14.5 C 0.53333 km/h
1552 10-09-2014 21:00:00 14.375 C 10.4 g/m*3 14.38 C 0.4 km/h
1553 10-09-2014 22:00:00 13.84167 C 10.31 g/m*3 13.84 C 0.26667 km/h
1554 10-09-2014 23:00:00 12.54167 C 9.98 g/m*3 12.54 C 0.26667 km/h
1555 11-09-2014 00:00:00 12.3 C 10.04 g/m*3 12.3 C 0.13333 km/h
1556 11-09-2014 01:00:00 12.10833 C 10.02 g/m*3 12.11 C 0.26667 km/h
1557 11-09-2014 02:00:00 12.00833 C 10.07 g/m*3 12.01 C 0.26667 km/h
1558 11-09-2014 03:00:00 12.14167 C 10.18 g/m*3 12.14 C 0.93333 km/h
1559 11-09-2014 04:00:00 12.56667 C 10.45 g/m*3 12.57 C 0.26667 km/h
1560 11-09-2014 05:00:00 12.60833 C 10.42 g/m*3 12.61 C 0.13333 km/h
1561 11-09-2014 06:00:00 12.54167 C 10.51 g/m*3 12.54 C 0.4 km/h
1562 11-09-2014 07:00:00 13.025 C 10.8 g/m*3 13.03 C 0.53333 km/h
1563 11-09-2014 08:00:00 13.76667 C 11.19 g/m*3 13.77 C 0.93333 km/h
1564 11-09-2014 09:00:00 14.825 C 11.52 g/m*3 14.83 C 5.75833 km/h
1565 11-09-2014 10:00:00 15.85 C 11.58 g/m*3 15.85 C 6.44167 km/h
1566 11-09-2014 11:00:00 16.76667 C 11.36 g/m*3 16.77 C 8.2 km/h
1567 11-09-2014 12:00:00 17.75833 C 11.28 g/m*3 17.76 C 8.45833 km/h
1568 11-09-2014 13:00:00 18.19167 C 11.13 g/m*3 18.19 C 10.23333 km/h
1569 11-09-2014 14:00:00 18.81667 C 10.85 g/m*3 18.82 C 12.76667 km/h
1570 11-09-2014 15:00:00 19.39167 C 10.58 g/m*3 19.39 C 9.275 km/h
1571 11-09-2014 16:00:00 18.91667 C 10.07 g/m*3 18.92 C 10.225 km/h
1572 11-09-2014 17:00:00 18.975 C 9.9 g/m*3 18.98 C 9.95 km/h
1573 11-09-2014 18:00:00 18.14167 C 10.87 g/m*3 18.14 C 3.48333 km/h
1574 11-09-2014 19:00:00 15.95 C 10.78 g/m*3 15.95 C 1.34167 km/h
1575 11-09-2014 20:00:00 14.675 C 9.84 g/m*3 14.68 C 1.60833 km/h
Sensor: Nr:Datum:Temp:Abs-Feuchte:Windchill:Wind:
Aussen-T/F 1576 11-09-2014 21:00:00 13.40833 C 9.77 g/m*3 13.41 C 1.06667 km/h
1577 11-09-2014 22:00:00 12.56667 C 9.64 g/m*3 12.57 C 0.4 km/h
1578 11-09-2014 23:00:00 11.76667 C 9.53 g/m*3 11.77 C 0 km/h
1579 12-09-2014 00:00:00 11.15833 C 9.35 g/m*3 11.16 C 0 km/h
1580 12-09-2014 01:00:00 10.54167 C 9.12 g/m*3 10.54 C 0 km/h
1581 12-09-2014 02:00:00 10.05833 C 8.95 g/m*3 10.06 C 0.13333 km/h
1582 12-09-2014 03:00:00 9.7 C 8.8 g/m*3 9.7 C 0.13333 km/h
1583 12-09-2014 04:00:00 9.825 C 8.92 g/m*3 9.82 C 0 km/h
1584 12-09-2014 05:00:00 9.40833 C 8.69 g/m*3 9.41 C 0.13333 km/h
1585 12-09-2014 06:00:00 8.93333 C 8.43 g/m*3 8.93 C 0 km/h
1586 12-09-2014 07:00:00 9.31667 C 8.73 g/m*3 9.32 C 0 km/h
1587 12-09-2014 08:00:00 10 C 9.11 g/m*3 10 C 0.26667 km/h
1588 12-09-2014 09:00:00 11.03333 C 9.71 g/m*3 11.03 C 0.26667 km/h
1589 12-09-2014 10:00:00 12.45833 C 10.09 g/m*3 12.46 C 4 km/h
1590 12-09-2014 11:00:00 14.175 C 10.54 g/m*3 14.18 C 7.50833 km/h
1591 12-09-2014 12:00:00 16.36667 C 11.21 g/m*3 16.37 C 9.55 km/h
1592 12-09-2014 13:00:00 18.21667 C 11.4 g/m*3 18.22 C 12.35833 km/h
1593 12-09-2014 14:00:00 19.99167 C 10.61 g/m*3 19.99 C 14.9 km/h
1594 12-09-2014 15:00:00 19.4 C 10.51 g/m*3 19.4 C 13.96667 km/h
1595 12-09-2014 16:00:00 18.95 C 10.64 g/m*3 18.95 C 10.49167 km/h
1596 12-09-2014 17:00:00 18.34167 C 10.88 g/m*3 18.34 C 12.5 km/h
1597 12-09-2014 18:00:00 17.65 C 11.27 g/m*3 17.65 C 6.975 km/h
1598 12-09-2014 19:00:00 17.20833 C 11.42 g/m*3 17.21 C 4.15 km/h
1599 12-09-2014 20:00:00 16.74167 C 11.65 g/m*3 16.74 C 3.46667 km/h
1600 12-09-2014 21:00:00 16.54167 C 11.73 g/m*3 16.54 C 3.34167 km/h
Sensor: Nr:Datum:Temp:Abs-Feuchte:Windchill:Wind:
Aussen-T/F 1601 12-09-2014 22:00:00 16.5 C 11.75 g/m*3 16.5 C 2.53333 km/h
1602 12-09-2014 23:00:00 16.4 C 11.84 g/m*3 16.4 C 0.8 km/h
1603 13-09-2014 00:00:00 16.14167 C 11.93 g/m*3 16.14 C 0.4 km/h
1604 13-09-2014 01:00:00 15.88333 C 11.91 g/m*3 15.88 C 0.53333 km/h
1605 13-09-2014 02:00:00 15.325 C 11.68 g/m*3 15.33 C 0.4 km/h
1606 13-09-2014 03:00:00 15.21667 C 11.8 g/m*3 15.22 C 0.13333 km/h
1607 13-09-2014 04:00:00 15.16667 C 11.97 g/m*3 15.17 C 0 km/h
1608 13-09-2014 05:00:00 14.86667 C 11.96 g/m*3 14.87 C 0 km/h
1609 13-09-2014 06:00:00 14.95833 C 11.84 g/m*3 14.96 C 0.4 km/h
1610 13-09-2014 07:00:00 15.125 C 11.76 g/m*3 15.13 C 2.80833 km/h
1611 13-09-2014 08:00:00 15.2 C 11.74 g/m*3 15.2 C 2.275 km/h
1612 13-09-2014 09:00:00 15.7 C 11.85 g/m*3 15.7 C 4.68333 km/h
1613 13-09-2014 10:00:00 15.9 C 11.87 g/m*3 15.9 C 6.84167 km/h
1614 13-09-2014 11:00:00 15.88333 C 11.91 g/m*3 15.88 C 5.75833 km/h
1615 13-09-2014 12:00:00 16.29167 C 12.12 g/m*3 16.29 C 4.675 km/h
1616 13-09-2014 13:00:00 17.15833 C 12.54 g/m*3 17.16 C 5.61667 km/h
1617 13-09-2014 14:00:00 17.525 C 12.64 g/m*3 17.52 C 6.83333 km/h
1618 13-09-2014 15:00:00 17.45833 C 12.73 g/m*3 17.46 C 3.875 km/h
1619 13-09-2014 16:00:00 17.56667 C 12.82 g/m*3 17.57 C 5.5 km/h
1620 13-09-2014 17:00:00 17.775 C 12.57 g/m*3 17.77 C 6.3 km/h
1621 13-09-2014 18:00:00 17.29167 C 12.56 g/m*3 17.29 C 2.4 km/h
1622 13-09-2014 19:00:00 16.41667 C 12.61 g/m*3 16.42 C 0.4 km/h
1623 13-09-2014 20:00:00 16.35 C 12.48 g/m*3 16.35 C 1.33333 km/h
1624 13-09-2014 21:00:00 16.175 C 12.45 g/m*3 16.18 C 0 km/h
1625 13-09-2014 22:00:00 15.85 C 12.31 g/m*3 15.85 C 0 km/h
Sensor: Nr:Datum:Temp:Abs-Feuchte:Windchill:Wind:
Aussen-T/F 1626 13-09-2014 23:00:00 15.68333 C 12.3 g/m*3 15.68 C 0 km/h
1627 14-09-2014 00:00:00 15.6 C 12.23 g/m*3 15.6 C 0 km/h
1628 14-09-2014 01:00:00 15.625 C 12.31 g/m*3 15.63 C 0 km/h
1629 14-09-2014 02:00:00 15.64167 C 12.27 g/m*3 15.64 C 0.13333 km/h
1630 14-09-2014 03:00:00 15.45 C 12.21 g/m*3 15.45 C 0 km/h
1631 14-09-2014 04:00:00 15.3 C 12.1 g/m*3 15.3 C 0 km/h
1632 14-09-2014 05:00:00 15.21667 C 11.92 g/m*3 15.22 C 0.26667 km/h
1633 14-09-2014 06:00:00 15.13333 C 11.76 g/m*3 15.13 C 0.66667 km/h
1634 14-09-2014 07:00:00 14.95833 C 11.55 g/m*3 14.96 C 0.93333 km/h
1635 14-09-2014 08:00:00 15.03333 C 11.66 g/m*3 15.03 C 0.66667 km/h
1636 14-09-2014 09:00:00 15.425 C 11.75 g/m*3 15.43 C 0.93333 km/h
1637 14-09-2014 10:00:00 16.05833 C 11.99 g/m*3 16.06 C 2.66667 km/h
1638 14-09-2014 11:00:00 16.80833 C 12.23 g/m*3 16.81 C 3.6 km/h
1639 14-09-2014 12:00:00 17.06667 C 12.43 g/m*3 17.07 C 1.46667 km/h
1640 14-09-2014 13:00:00 17.72 C 12.75 g/m*3 17.72 C 0.96 km/h
1641 14-09-2014 14:00:00 18.55833 C 13.24 g/m*3 18.56 C 0.93333 km/h
1642 14-09-2014 15:00:00 18.625 C 13.34 g/m*3 18.63 C 0.4 km/h
1643 14-09-2014 16:00:00 20.3 C 13.66 g/m*3 20.3 C 2.4 km/h
1644 14-09-2014 17:00:00 21.6 C 13.67 g/m*3 21.6 C 2.93333 km/h
1645 14-09-2014 18:00:00 20.7 C 14 g/m*3 20.7 C 0.93333 km/h
1646 14-09-2014 19:00:00 18.425 C 13.51 g/m*3 18.43 C 0 km/h
1647 14-09-2014 20:00:00 16.18333 C 12.59 g/m*3 16.18 C 0.26667 km/h
1648 14-09-2014 21:00:00 15.60833 C 12.3 g/m*3 15.61 C 0 km/h
1649 14-09-2014 22:00:00 15.00833 C 12.11 g/m*3 15.01 C 0 km/h
1650 14-09-2014 23:00:00 14.225 C 11.59 g/m*3 14.23 C 0 km/h
Sensor: Nr:Datum:Temp:Abs-Feuchte:Windchill:Wind:
Aussen-T/F 1651 15-09-2014 00:00:00 13.58333 C 11.28 g/m*3 13.58 C 0 km/h
1652 15-09-2014 01:00:00 13.05833 C 10.93 g/m*3 13.06 C 0 km/h
1653 15-09-2014 02:00:00 12.55 C 10.65 g/m*3 12.55 C 0 km/h
1654 15-09-2014 03:00:00 12.26667 C 10.51 g/m*3 12.27 C 0 km/h
1655 15-09-2014 04:00:00 12.775 C 10.86 g/m*3 12.78 C 0.13333 km/h
1656 15-09-2014 05:00:00 12.86667 C 10.99 g/m*3 12.87 C 0 km/h
1657 15-09-2014 06:00:00 12.99167 C 11.11 g/m*3 12.99 C 0 km/h
1658 15-09-2014 07:00:00 13.1 C 11.18 g/m*3 13.1 C 0.26667 km/h
1659 15-09-2014 08:00:00 13.28333 C 11.31 g/m*3 13.28 C 0 km/h
1660 15-09-2014 09:00:00 13.76667 C 11.65 g/m*3 13.77 C 0 km/h
1661 15-09-2014 10:00:00 14.22 C 11.98 g/m*3 14.22 C 0.32 km/h
1662 15-09-2014 11:00:00 16.625 C 13.29 g/m*3 16.63 C 1.86667 km/h
1663 15-09-2014 12:00:00 19.025 C 13.83 g/m*3 19.02 C 6.025 km/h
1664 15-09-2014 13:00:00 20.26667 C 14.04 g/m*3 20.27 C 3.33333 km/h
1665 15-09-2014 14:00:00 19.80833 C 14.44 g/m*3 19.81 C 1.06667 km/h
1666 15-09-2014 15:00:00 20.93333 C 14.29 g/m*3 20.93 C 5.48333 km/h
1667 15-09-2014 16:00:00 21.91667 C 14.49 g/m*3 21.92 C 6.29167 km/h
1668 15-09-2014 17:00:00 20.95 C 14.64 g/m*3 20.95 C 2.53333 km/h
1669 15-09-2014 18:00:00 19.51667 C 14.66 g/m*3 19.52 C 0.4 km/h
1670 15-09-2014 19:00:00 17.99167 C 13.79 g/m*3 17.99 C 0.13333 km/h
1671 15-09-2014 20:00:00 16.53333 C 13.04 g/m*3 16.53 C 0.4 km/h
1672 15-09-2014 21:00:00 16.09167 C 12.83 g/m*3 16.09 C 0.13333 km/h
1673 15-09-2014 22:00:00 15.59167 C 12.63 g/m*3 15.59 C 0 km/h
1674 15-09-2014 23:00:00 15.1 C 12.34 g/m*3 15.1 C 0 km/h
1675 16-09-2014 00:00:00 14.5 C 11.98 g/m*3 14.5 C 0 km/h
Sensor: Nr:Datum:Temp:Abs-Feuchte:Windchill:Wind:
Aussen-T/F 1676 16-09-2014 01:00:00 14.13333 C 11.77 g/m*3 14.13 C 0 km/h
1677 16-09-2014 02:00:00 13.66667 C 11.46 g/m*3 13.67 C 0 km/h
1678 16-09-2014 03:00:00 13.25833 C 11.18 g/m*3 13.26 C 0 km/h
1679 16-09-2014 04:00:00 13.45833 C 11.36 g/m*3 13.46 C 0 km/h
1680 16-09-2014 05:00:00 13.70833 C 11.61 g/m*3 13.71 C 0 km/h
1681 16-09-2014 06:00:00 13.775 C 11.65 g/m*3 13.78 C 0 km/h
1682 16-09-2014 07:00:00 13.9 C 11.75 g/m*3 13.9 C 0.13333 km/h
1683 16-09-2014 08:00:00 14.10833 C 11.9 g/m*3 14.11 C 0.93333 km/h
1684 16-09-2014 09:00:00 14.6 C 12.26 g/m*3 14.6 C 1.6 km/h
1685 16-09-2014 10:00:00 15.43333 C 12.9 g/m*3 15.43 C 0.8 km/h
1686 16-09-2014 11:00:00 17.20833 C 13.69 g/m*3 17.21 C 5.63333 km/h
1687 16-09-2014 12:00:00 19.05833 C 14.05 g/m*3 19.06 C 4.68333 km/h
1688 16-09-2014 13:00:00 22.09167 C 14.99 g/m*3 22.09 C 7.10833 km/h
1689 16-09-2014 14:00:00 23.09167 C 14.96 g/m*3 23.09 C 6.44167 km/h
1690 16-09-2014 15:00:00 21.69167 C 15.16 g/m*3 21.69 C 2.94167 km/h
1691 16-09-2014 16:00:00 24.63333 C 14.86 g/m*3 24.63 C 4.95 km/h
1692 16-09-2014 17:00:00 22.30833 C 14.98 g/m*3 22.31 C 1.2 km/h
1693 16-09-2014 18:00:00 20.45 C 14.77 g/m*3 20.45 C 0.4 km/h
1694 16-09-2014 19:00:00 18.53333 C 13.81 g/m*3 18.53 C 1.06667 km/h
1695 16-09-2014 20:00:00 16.85 C 12.94 g/m*3 16.85 C 0.26667 km/h
1696 16-09-2014 21:00:00 16.025 C 12.61 g/m*3 16.02 C 0 km/h
1697 16-09-2014 22:00:00 15.35 C 12.28 g/m*3 15.35 C 0 km/h
1698 16-09-2014 23:00:00 14.55 C 11.8 g/m*3 14.55 C 0 km/h
1699 17-09-2014 00:00:00 13.91667 C 11.5 g/m*3 13.92 C 0 km/h
1700 17-09-2014 01:00:00 13.625 C 11.33 g/m*3 13.63 C 0 km/h
Sensor: Nr:Datum:Temp:Abs-Feuchte:Windchill:Wind:
Aussen-T/F 1701 17-09-2014 02:00:00 13.2 C 11.09 g/m*3 13.2 C 0 km/h
1702 17-09-2014 03:00:00 12.63333 C 10.75 g/m*3 12.63 C 0 km/h
1703 17-09-2014 04:00:00 12.15 C 10.43 g/m*3 12.15 C 0 km/h
1704 17-09-2014 05:00:00 12.24167 C 10.54 g/m*3 12.24 C 0 km/h
1705 17-09-2014 06:00:00 12.35833 C 10.68 g/m*3 12.36 C 0 km/h
1706 17-09-2014 07:00:00 12.175 C 10.56 g/m*3 12.18 C 0 km/h
1707 17-09-2014 08:00:00 12.35 C 10.67 g/m*3 12.35 C 0 km/h
1708 17-09-2014 09:00:00 12.86667 C 11.02 g/m*3 12.87 C 0 km/h
1709 17-09-2014 10:00:00 13.6 C 11.53 g/m*3 13.6 C 0 km/h
1710 17-09-2014 11:00:00 14.88333 C 12.51 g/m*3 14.88 C 0 km/h
1711 17-09-2014 12:00:00 16.725 C 13.84 g/m*3 16.73 C 0.66667 km/h
1712 17-09-2014 13:00:00 20.76667 C 15.32 g/m*3 20.77 C 2.66667 km/h
1713 17-09-2014 14:00:00 22.73333 C 15.59 g/m*3 22.73 C 3.61667 km/h
1714 17-09-2014 15:00:00 22.15 C 15.5 g/m*3 22.15 C 0.94167 km/h
1715 17-09-2014 16:00:00 22.575 C 15.43 g/m*3 22.58 C 0.4 km/h
1716 17-09-2014 17:00:00 21.29167 C 15.34 g/m*3 21.29 C 0 km/h
1717 17-09-2014 18:00:00 20.225 C 15.15 g/m*3 20.23 C 0 km/h
1718 17-09-2014 19:00:00 18.45 C 14.13 g/m*3 18.45 C 0 km/h
1719 17-09-2014 20:00:00 17.20833 C 13.38 g/m*3 17.21 C 0 km/h
1720 17-09-2014 21:00:00 16.35833 C 12.81 g/m*3 16.36 C 0 km/h
1721 17-09-2014 22:00:00 15.64167 C 12.47 g/m*3 15.64 C 0 km/h
1722 17-09-2014 23:00:00 15.10833 C 12.21 g/m*3 15.11 C 0 km/h
1723 18-09-2014 00:00:00 14.73333 C 12.07 g/m*3 14.73 C 0 km/h
1724 18-09-2014 01:00:00 14.43333 C 11.9 g/m*3 14.43 C 0 km/h
1725 18-09-2014 02:00:00 14.28333 C 11.9 g/m*3 14.28 C 0 km/h
Sensor: Nr:Datum:Temp:Abs-Feuchte:Windchill:Wind:
Aussen-T/F 1726 18-09-2014 03:00:00 14.29167 C 11.91 g/m*3 14.29 C 0 km/h
1727 18-09-2014 04:00:00 14.825 C 12.35 g/m*3 14.83 C 0.4 km/h
1728 18-09-2014 05:00:00 15.08333 C 12.56 g/m*3 15.08 C 0.53333 km/h
1729 18-09-2014 06:00:00 15.2 C 12.63 g/m*3 15.2 C 0 km/h
1730 18-09-2014 07:00:00 15.21667 C 12.73 g/m*3 15.22 C 0 km/h
1731 18-09-2014 08:00:00 15.675 C 13.09 g/m*3 15.68 C 0 km/h
1732 18-09-2014 09:00:00 16.23333 C 13.54 g/m*3 16.23 C 0 km/h
1733 18-09-2014 10:00:00 17.175 C 14.33 g/m*3 17.18 C 0 km/h
1734 18-09-2014 11:00:00 17.90833 C 14.95 g/m*3 17.91 C 0 km/h
1735 18-09-2014 12:00:00 18.91667 C 15.47 g/m*3 18.92 C 0 km/h
1736 18-09-2014 13:00:00 19.83333 C 16 g/m*3 19.83 C 0 km/h
1737 18-09-2014 14:00:00 21.13333 C 16.54 g/m*3 21.13 C 0.4 km/h
1738 18-09-2014 15:00:00 22.31667 C 16.7 g/m*3 22.32 C 0.93333 km/h
1739 18-09-2014 16:00:00 21.64167 C 16.6 g/m*3 21.64 C 0.26667 km/h
1740 18-09-2014 17:00:00 20.25833 C 16.49 g/m*3 20.26 C 0 km/h
1741 18-09-2014 18:00:00 19.94167 C 16.43 g/m*3 19.94 C 0.4 km/h
1742 18-09-2014 19:00:00 19.04167 C 15.82 g/m*3 19.04 C 0 km/h
1743 18-09-2014 20:00:00 18.075 C 14.97 g/m*3 18.08 C 0 km/h
1744 18-09-2014 21:00:00 17.71667 C 14.76 g/m*3 17.72 C 0 km/h
1745 18-09-2014 22:00:00 17.875 C 14.94 g/m*3 17.88 C 0 km/h
1746 18-09-2014 23:00:00 17.89167 C 14.96 g/m*3 17.89 C 0 km/h
1747 19-09-2014 00:00:00 17.39167 C 14.52 g/m*3 17.39 C 0 km/h
1748 19-09-2014 01:00:00 16.9 C 14.1 g/m*3 16.9 C 0 km/h
1749 19-09-2014 02:00:00 16.475 C 13.74 g/m*3 16.48 C 0 km/h
1750 19-09-2014 03:00:00 16.14167 C 13.47 g/m*3 16.14 C 0 km/h
Sensor: Nr:Datum:Temp:Abs-Feuchte:Windchill:Wind:
Aussen-T/F 1751 19-09-2014 04:00:00 16.275 C 13.58 g/m*3 16.27 C 0 km/h
1752 19-09-2014 05:00:00 15.825 C 13.21 g/m*3 15.83 C 0 km/h
1753 19-09-2014 06:00:00 15.84167 C 13.3 g/m*3 15.84 C 0 km/h
1754 19-09-2014 07:00:00 16.33333 C 13.73 g/m*3 16.33 C 0.4 km/h
1755 19-09-2014 08:00:00 16.68333 C 14.06 g/m*3 16.68 C 0 km/h
1756 19-09-2014 09:00:00 17.18333 C 14.48 g/m*3 17.18 C 0.13333 km/h
1757 19-09-2014 10:00:00 17.83333 C 15.06 g/m*3 17.83 C 0.26667 km/h
1758 19-09-2014 11:00:00 18.275 C 15.46 g/m*3 18.27 C 0.13333 km/h
1759 19-09-2014 12:00:00 19.60833 C 16.51 g/m*3 19.61 C 3.35833 km/h
1760 19-09-2014 13:00:00 22.7 C 17.12 g/m*3 22.7 C 5.36667 km/h
1761 19-09-2014 14:00:00 23.00833 C 17.02 g/m*3 23.01 C 4.96667 km/h
1762 19-09-2014 15:00:00 21.70833 C 17.16 g/m*3 21.71 C 0.13333 km/h
1763 19-09-2014 16:00:00 21.45833 C 17.29 g/m*3 21.46 C 0.26667 km/h
1764 19-09-2014 17:00:00 21.70833 C 17.35 g/m*3 21.71 C 0.53333 km/h
1765 19-09-2014 18:00:00 20.76667 C 16.39 g/m*3 20.77 C 1.6 km/h
1766 19-09-2014 19:00:00 19.25833 C 15.35 g/m*3 19.26 C 2.66667 km/h
1767 19-09-2014 20:00:00 18.375 C 14.84 g/m*3 18.38 C 0.26667 km/h
1768 19-09-2014 21:00:00 17.8 C 14.57 g/m*3 17.8 C 0.13333 km/h
1769 19-09-2014 22:00:00 17.075 C 13.99 g/m*3 17.08 C 0 km/h
1770 19-09-2014 23:00:00 16.73333 C 13.81 g/m*3 16.73 C 0 km/h
1771 20-09-2014 00:00:00 16.53333 C 13.74 g/m*3 16.53 C 0 km/h
1772 20-09-2014 01:00:00 16.55 C 13.8 g/m*3 16.55 C 0 km/h
1773 20-09-2014 02:00:00 16.44167 C 13.71 g/m*3 16.44 C 0 km/h
1774 20-09-2014 03:00:00 15.925 C 13.29 g/m*3 15.93 C 0 km/h
1775 20-09-2014 04:00:00 15.7 C 13.11 g/m*3 15.7 C 0 km/h
Sensor: Nr:Datum:Temp:Abs-Feuchte:Windchill:Wind:
Aussen-T/F 1776 20-09-2014 05:00:00 15.475 C 12.93 g/m*3 15.48 C 0 km/h
1777 20-09-2014 06:00:00 15.63333 C 13.06 g/m*3 15.63 C 0.26667 km/h
1778 20-09-2014 07:00:00 15.225 C 12.74 g/m*3 15.23 C 0 km/h
1779 20-09-2014 08:00:00 16.04167 C 13.44 g/m*3 16.04 C 0 km/h
1780 20-09-2014 09:00:00 17.05 C 14.27 g/m*3 17.05 C 1.33333 km/h
1781 20-09-2014 10:00:00 18.14167 C 14.81 g/m*3 18.14 C 0.93333 km/h
1782 20-09-2014 11:00:00 19.375 C 15.17 g/m*3 19.38 C 0.4 km/h
1783 20-09-2014 12:00:00 20.5 C 15.93 g/m*3 20.5 C 0 km/h
1784 20-09-2014 13:00:00 20.63333 C 15.97 g/m*3 20.63 C 0.26667 km/h
1785 20-09-2014 14:00:00 17.66667 C 14.43 g/m*3 17.67 C 0.66667 km/h
1786 20-09-2014 15:00:00 17.33333 C 14.24 g/m*3 17.33 C 1.875 km/h
1787 20-09-2014 16:00:00 18.50833 C 15.41 g/m*3 18.51 C 0.26667 km/h
1788 20-09-2014 17:00:00 19.06667 C 15.76 g/m*3 19.07 C 0 km/h
1789 20-09-2014 18:00:00 18.25833 C 15.06 g/m*3 18.26 C 0 km/h
1790 20-09-2014 19:00:00 17.75833 C 14.69 g/m*3 17.76 C 0 km/h
1791 20-09-2014 20:00:00 16.63333 C 13.73 g/m*3 16.63 C 0.66667 km/h
1792 20-09-2014 21:00:00 15.65833 C 12.99 g/m*3 15.66 C 0 km/h
1793 20-09-2014 22:00:00 15.56667 C 13.01 g/m*3 15.57 C 0 km/h
1794 20-09-2014 23:00:00 15.90833 C 13.2 g/m*3 15.91 C 1.73333 km/h
1795 21-09-2014 00:00:00 15.45833 C 12.9 g/m*3 15.46 C 0 km/h
1796 21-09-2014 01:00:00 15.70833 C 13.12 g/m*3 15.71 C 1.875 km/h
1797 21-09-2014 02:00:00 15.775 C 13.17 g/m*3 15.78 C 0 km/h
1798 21-09-2014 03:00:00 15.76667 C 13.17 g/m*3 15.77 C 0 km/h
1799 21-09-2014 04:00:00 15.75833 C 13.16 g/m*3 15.76 C 0 km/h
1800 21-09-2014 05:00:00 15.8 C 13.19 g/m*3 15.8 C 0 km/h
Sensor: Nr:Datum:Temp:Abs-Feuchte:Windchill:Wind:
Aussen-T/F 1801 21-09-2014 06:00:00 15.675 C 13.09 g/m*3 15.68 C 0 km/h
1802 21-09-2014 07:00:00 15.40833 C 12.89 g/m*3 15.41 C 0 km/h
1803 21-09-2014 08:00:00 15.69167 C 13.15 g/m*3 15.69 C 0 km/h
1804 21-09-2014 09:00:00 15.96667 C 13.46 g/m*3 15.97 C 0 km/h
1805 21-09-2014 10:00:00 16.3 C 13.73 g/m*3 16.3 C 0 km/h
1806 21-09-2014 11:00:00 16.575 C 13.96 g/m*3 16.58 C 0 km/h
1807 21-09-2014 12:00:00 16.59167 C 13.83 g/m*3 16.59 C 3.76667 km/h
1808 21-09-2014 13:00:00 16.36667 C 13.26 g/m*3 16.37 C 7.775 km/h
1809 21-09-2014 14:00:00 16.55 C 13.2 g/m*3 16.55 C 5.91667 km/h
1810 21-09-2014 15:00:00 17.01667 C 13.25 g/m*3 17.02 C 7.25 km/h
1811 21-09-2014 16:00:00 16.80833 C 12.8 g/m*3 16.81 C 6.98333 km/h
1812 21-09-2014 17:00:00 16.425 C 12.13 g/m*3 16.43 C 7.50833 km/h
1813 21-09-2014 18:00:00 16.33333 C 11.89 g/m*3 16.33 C 4.55 km/h
1814 21-09-2014 19:00:00 14.925 C 11.57 g/m*3 14.93 C 2.95 km/h
1815 21-09-2014 20:00:00 13.45 C 10.86 g/m*3 13.45 C 0.53333 km/h
1816 21-09-2014 21:00:00 12.63333 C 10.53 g/m*3 12.63 C 0 km/h
1817 21-09-2014 22:00:00 12.15 C 10.18 g/m*3 12.15 C 0 km/h
1818 21-09-2014 23:00:00 11.94167 C 10.04 g/m*3 11.94 C 0 km/h
1819 22-09-2014 00:00:00 12.11667 C 10.05 g/m*3 12.12 C 0 km/h
1820 22-09-2014 01:00:00 11.95833 C 10.07 g/m*3 11.96 C 0 km/h
1821 22-09-2014 02:00:00 11.925 C 9.98 g/m*3 11.93 C 0 km/h
1822 22-09-2014 03:00:00 12.29167 C 10.08 g/m*3 12.29 C 0 km/h
1823 22-09-2014 04:00:00 12.64167 C 10.2 g/m*3 12.64 C 0.80833 km/h
1824 22-09-2014 05:00:00 12.55833 C 10.07 g/m*3 12.56 C 0.66667 km/h
1825 22-09-2014 06:00:00 12.175 C 9.82 g/m*3 12.18 C 3.61667 km/h
Sensor: Nr:Datum:Temp:Abs-Feuchte:Windchill:Wind:
Aussen-T/F 1826 22-09-2014 07:00:00 11.26667 C 9.49 g/m*3 11.27 C 0 km/h
1827 22-09-2014 08:00:00 11.525 C 9.53 g/m*3 11.53 C 0.26667 km/h
1828 22-09-2014 09:00:00 12.98333 C 9.5 g/m*3 12.98 C 5.1 km/h
1829 22-09-2014 10:00:00 13.63333 C 9.16 g/m*3 13.63 C 8.71667 km/h
1830 22-09-2014 11:00:00 13.69167 C 9.28 g/m*3 13.69 C 10.49167 km/h
1831 22-09-2014 12:00:00 14.39167 C 9.34 g/m*3 14.39 C 11.425 km/h
1832 22-09-2014 13:00:00 15.08333 C 9.29 g/m*3 15.08 C 14.76667 km/h
1833 22-09-2014 14:00:00 14.075 C 9.39 g/m*3 14.08 C 19.86667 km/h
1834 22-09-2014 15:00:00 12.89167 C 9.44 g/m*3 12.89 C 9.41667 km/h
1835 22-09-2014 16:00:00 13.75833 C 9.48 g/m*3 13.76 C 9.95 km/h
1836 22-09-2014 17:00:00 14.4 C 9.15 g/m*3 14.4 C 9.28333 km/h
1837 22-09-2014 18:00:00 14.65 C 9.17 g/m*3 14.65 C 5.35833 km/h
1838 22-09-2014 19:00:00 11.9 C 9.36 g/m*3 11.9 C 0.4 km/h
1839 22-09-2014 20:00:00 10.85 C 9.11 g/m*3 10.85 C 0.66667 km/h
1840 22-09-2014 21:00:00 10.25 C 8.87 g/m*3 10.25 C 0 km/h
1841 22-09-2014 22:00:00 9.86667 C 8.75 g/m*3 9.87 C 0 km/h
1842 22-09-2014 23:00:00 9.88333 C 8.74 g/m*3 9.88 C 0 km/h
1843 23-09-2014 00:00:00 9.11667 C 8.43 g/m*3 9.12 C 0 km/h
1844 23-09-2014 01:00:00 8.56667 C 8.19 g/m*3 8.57 C 0 km/h
1845 23-09-2014 02:00:00 8.025 C 7.95 g/m*3 8.03 C 0 km/h
1846 23-09-2014 03:00:00 7.66667 C 7.81 g/m*3 7.67 C 0 km/h
1847 23-09-2014 04:00:00 7.28333 C 7.66 g/m*3 7.28 C 0 km/h
1848 23-09-2014 05:00:00 6.75 C 7.39 g/m*3 6.75 C 0 km/h
1849 23-09-2014 06:00:00 6.875 C 7.5 g/m*3 6.88 C 1.20833 km/h
1850 23-09-2014 07:00:00 6.75833 C 7.43 g/m*3 6.76 C 2.68333 km/h
Sensor: Nr:Datum:Temp:Abs-Feuchte:Windchill:Wind:
Aussen-T/F 1851 23-09-2014 08:00:00 6.95 C 7.57 g/m*3 6.95 C 0.93333 km/h
1852 23-09-2014 09:00:00 7.69167 C 7.94 g/m*3 7.69 C 2.13333 km/h
1853 23-09-2014 10:00:00 8.65833 C 8.38 g/m*3 8.66 C 3.73333 km/h
1854 23-09-2014 11:00:00 9.90833 C 8.73 g/m*3 9.91 C 1.2 km/h
1855 23-09-2014 12:00:00 10.99167 C 9.22 g/m*3 10.99 C 0 km/h
1856 23-09-2014 13:00:00 13.04167 C 9.93 g/m*3 13.04 C 0 km/h
1857 23-09-2014 14:00:00 13.975 C 9.8 g/m*3 13.98 C 0.4 km/h
1858 23-09-2014 15:00:00 14.10833 C 9.34 g/m*3 14.11 C 0 km/h
1859 23-09-2014 16:00:00 16.45 C 8.83 g/m*3 16.45 C 0.53333 km/h
1860 23-09-2014 17:00:00 15.00833 C 9.44 g/m*3 15.01 C 0 km/h
1861 23-09-2014 18:00:00 12.61667 C 9.51 g/m*3 12.62 C 0 km/h
1862 23-09-2014 19:00:00 10.98333 C 8.91 g/m*3 10.98 C 0 km/h
1863 23-09-2014 20:00:00 9.95833 C 8.57 g/m*3 9.96 C 0 km/h
1864 23-09-2014 21:00:00 9.15 C 8.32 g/m*3 9.15 C 0 km/h
1865 23-09-2014 22:00:00 9.00833 C 8.31 g/m*3 9.01 C 0 km/h
1866 23-09-2014 23:00:00 8.33333 C 8 g/m*3 8.33 C 0 km/h
1867 24-09-2014 00:00:00 8.24167 C 8.05 g/m*3 8.24 C 0 km/h
1868 24-09-2014 01:00:00 8.325 C 8.1 g/m*3 8.32 C 0 km/h
1869 24-09-2014 02:00:00 7.96667 C 7.92 g/m*3 7.97 C 0 km/h
1870 24-09-2014 03:00:00 7.69167 C 7.79 g/m*3 7.69 C 0 km/h
1871 24-09-2014 04:00:00 7.55 C 7.74 g/m*3 7.55 C 0 km/h
1872 24-09-2014 05:00:00 7.325 C 7.68 g/m*3 7.33 C 0 km/h
1873 24-09-2014 06:00:00 7.29167 C 7.66 g/m*3 7.29 C 0 km/h
1874 24-09-2014 07:00:00 7.06667 C 7.55 g/m*3 7.07 C 0 km/h
1875 24-09-2014 08:00:00 7.2 C 7.63 g/m*3 7.2 C 0 km/h
Sensor: Nr:Datum:Temp:Abs-Feuchte:Windchill:Wind:
Aussen-T/F 1876 24-09-2014 09:00:00 7.7 C 7.89 g/m*3 7.7 C 0 km/h
1877 24-09-2014 10:00:00 8.475 C 8.26 g/m*3 8.48 C 0 km/h
1878 24-09-2014 11:00:00 10.15833 C 8.87 g/m*3 10.16 C 0 km/h
1879 24-09-2014 12:00:00 12.9 C 9.46 g/m*3 12.9 C 0 km/h
1880 24-09-2014 13:00:00 15.08333 C 9.81 g/m*3 15.08 C 0 km/h
1881 24-09-2014 14:00:00 15.75833 C 10.18 g/m*3 15.76 C 0 km/h
1882 24-09-2014 15:00:00 15.04167 C 10.93 g/m*3 15.04 C 0 km/h
1883 24-09-2014 16:00:00 16.25833 C 10.43 g/m*3 16.26 C 0 km/h
1884 24-09-2014 17:00:00 15.80833 C 10.54 g/m*3 15.81 C 0 km/h
1885 24-09-2014 18:00:00 14.03333 C 10.57 g/m*3 14.03 C 0 km/h
1886 24-09-2014 19:00:00 13.11667 C 10.38 g/m*3 13.12 C 0 km/h
1887 24-09-2014 20:00:00 13.69167 C 9.96 g/m*3 13.69 C 0 km/h
1888 24-09-2014 21:00:00 13.88333 C 10.01 g/m*3 13.88 C 5.5 km/h
1889 24-09-2014 22:00:00 13.04167 C 10.16 g/m*3 13.04 C 3.86667 km/h
1890 24-09-2014 23:00:00 12.9 C 10.08 g/m*3 12.9 C 3.88333 km/h
1891 25-09-2014 00:00:00 12.425 C 9.84 g/m*3 12.43 C 0.4 km/h
1892 25-09-2014 01:00:00 11.925 C 9.62 g/m*3 11.93 C 0.8 km/h
1893 25-09-2014 02:00:00 11.4 C 9.57 g/m*3 11.4 C 1.06667 km/h
1894 25-09-2014 03:00:00 11.39167 C 9.61 g/m*3 11.39 C 1.46667 km/h
1895 25-09-2014 04:00:00 11.41667 C 9.62 g/m*3 11.42 C 0.8 km/h
1896 25-09-2014 05:00:00 11.625 C 9.77 g/m*3 11.63 C 0.53333 km/h
1897 25-09-2014 06:00:00 11.6 C 9.7 g/m*3 11.6 C 0 km/h
1898 25-09-2014 07:00:00 11.60833 C 9.7 g/m*3 11.61 C 1.86667 km/h
1899 25-09-2014 08:00:00 12.125 C 9.83 g/m*3 12.13 C 4.00833 km/h
1900 25-09-2014 09:00:00 12.675 C 10.03 g/m*3 12.68 C 5.89167 km/h
Sensor: Nr:Datum:Temp:Abs-Feuchte:Windchill:Wind:
Aussen-T/F 1901 25-09-2014 10:00:00 13.65833 C 10.37 g/m*3 13.66 C 2.275 km/h
1902 25-09-2014 11:00:00 14.46667 C 10.65 g/m*3 14.47 C 4.275 km/h
1903 25-09-2014 12:00:00 15.56667 C 10.7 g/m*3 15.57 C 7.38333 km/h
1904 25-09-2014 13:00:00 16.01667 C 10.74 g/m*3 16.02 C 4.81667 km/h
1905 25-09-2014 14:00:00 16.35 C 11.19 g/m*3 16.35 C 1.33333 km/h
1906 25-09-2014 15:00:00 16.94167 C 10.68 g/m*3 16.94 C 5.09167 km/h
1907 25-09-2014 16:00:00 17.83333 C 9.72 g/m*3 17.83 C 7.79167 km/h
1908 25-09-2014 17:00:00 17.41667 C 9.77 g/m*3 17.42 C 6.575 km/h
1909 25-09-2014 18:00:00 15.9 C 10.1 g/m*3 15.9 C 3.88333 km/h
1910 25-09-2014 19:00:00 13.675 C 10.16 g/m*3 13.68 C 1.33333 km/h
1911 25-09-2014 20:00:00 13.39167 C 10.16 g/m*3 13.39 C 1.06667 km/h
1912 25-09-2014 21:00:00 13.125 C 10.15 g/m*3 13.13 C 0.66667 km/h
1913 25-09-2014 22:00:00 12.89167 C 10.12 g/m*3 12.89 C 0 km/h
1914 25-09-2014 23:00:00 12.875 C 10.03 g/m*3 12.88 C 1.06667 km/h
1915 26-09-2014 00:00:00 12.46667 C 9.86 g/m*3 12.47 C 0.53333 km/h
1916 26-09-2014 01:00:00 12.74167 C 9.88 g/m*3 12.74 C 0.13333 km/h
1917 26-09-2014 02:00:00 12.46667 C 9.88 g/m*3 12.47 C 0 km/h
1918 26-09-2014 03:00:00 11.90833 C 9.62 g/m*3 11.91 C 0 km/h
1919 26-09-2014 04:00:00 11.10833 C 9.31 g/m*3 11.11 C 0 km/h
1920 26-09-2014 05:00:00 10.68333 C 9.17 g/m*3 10.68 C 0 km/h
1921 26-09-2014 06:00:00 10.65833 C 9.18 g/m*3 10.66 C 0 km/h
1922 26-09-2014 07:00:00 10.925 C 9.3 g/m*3 10.93 C 0 km/h
1923 26-09-2014 08:00:00 11.74167 C 9.62 g/m*3 11.74 C 0 km/h
1924 26-09-2014 09:00:00 12.85 C 9.82 g/m*3 12.85 C 8.06667 km/h
1925 26-09-2014 10:00:00 13.85833 C 10.15 g/m*3 13.86 C 9 km/h
Sensor: Nr:Datum:Temp:Abs-Feuchte:Windchill:Wind:
Aussen-T/F 1926 26-09-2014 11:00:00 15.15833 C 10.77 g/m*3 15.16 C 8.20833 km/h
1927 26-09-2014 12:00:00 16.48333 C 11.18 g/m*3 16.48 C 10.48333 km/h
1928 26-09-2014 13:00:00 17.275 C 11.41 g/m*3 17.27 C 8.20833 km/h
1929 26-09-2014 14:00:00 17.975 C 11.71 g/m*3 17.98 C 7.25 km/h
1930 26-09-2014 15:00:00 17.20833 C 12.26 g/m*3 17.21 C 1.34167 km/h
1931 26-09-2014 16:00:00 16.76667 C 12.79 g/m*3 16.77 C 0.13333 km/h
1932 26-09-2014 17:00:00 16.89167 C 12.88 g/m*3 16.89 C 0.26667 km/h
1933 26-09-2014 18:00:00 16.26667 C 12.6 g/m*3 16.27 C 0.26667 km/h
1934 26-09-2014 19:00:00 15.64167 C 12.29 g/m*3 15.64 C 0.8 km/h
1935 26-09-2014 20:00:00 15.80833 C 12.44 g/m*3 15.81 C 3.46667 km/h
1936 26-09-2014 21:00:00 15.53333 C 12.32 g/m*3 15.53 C 0.8 km/h
1937 26-09-2014 22:00:00 14.925 C 12.13 g/m*3 14.93 C 0 km/h
1938 26-09-2014 23:00:00 14.63333 C 12.02 g/m*3 14.63 C 0 km/h
1939 27-09-2014 00:00:00 14.43333 C 11.89 g/m*3 14.43 C 0 km/h
1940 27-09-2014 01:00:00 14.56667 C 11.99 g/m*3 14.57 C 0 km/h
1941 27-09-2014 02:00:00 14.56667 C 11.99 g/m*3 14.57 C 0 km/h
1942 27-09-2014 03:00:00 14.4 C 11.87 g/m*3 14.4 C 0 km/h
1943 27-09-2014 04:00:00 14.3 C 11.79 g/m*3 14.3 C 0 km/h
1944 27-09-2014 05:00:00 14.18333 C 11.73 g/m*3 14.18 C 0 km/h
1945 27-09-2014 06:00:00 14.1 C 11.77 g/m*3 14.1 C 0 km/h
1946 27-09-2014 07:00:00 14.03333 C 11.72 g/m*3 14.03 C 0 km/h
1947 27-09-2014 08:00:00 14.06667 C 11.77 g/m*3 14.07 C 0 km/h
1948 27-09-2014 09:00:00 14.89167 C 12.28 g/m*3 14.89 C 0 km/h
1949 27-09-2014 10:00:00 16.31667 C 12.74 g/m*3 16.32 C 0 km/h
1950 27-09-2014 11:00:00 17.23333 C 12.59 g/m*3 17.23 C 0 km/h
Sensor: Nr:Datum:Temp:Abs-Feuchte:Windchill:Wind:
Aussen-T/F 1951 27-09-2014 12:00:00 17.59167 C 12.6 g/m*3 17.59 C 0 km/h
1952 27-09-2014 13:00:00 18.675 C 13.2 g/m*3 18.68 C 0 km/h
1953 27-09-2014 14:00:00 19.04167 C 13.55 g/m*3 19.04 C 0 km/h
1954 27-09-2014 15:00:00 18.48333 C 13.09 g/m*3 18.48 C 0 km/h
1955 27-09-2014 16:00:00 19.29167 C 12.78 g/m*3 19.29 C 1.60833 km/h
1956 27-09-2014 17:00:00 18.53333 C 13.16 g/m*3 18.53 C 0.4 km/h
1957 27-09-2014 18:00:00 17.09167 C 12.8 g/m*3 17.09 C 0.4 km/h
1958 27-09-2014 19:00:00 15.675 C 12.05 g/m*3 15.68 C 0.93333 km/h
1959 27-09-2014 20:00:00 14.56667 C 11.56 g/m*3 14.57 C 0 km/h
1960 27-09-2014 21:00:00 13.49167 C 11.02 g/m*3 13.49 C 0 km/h
1961 27-09-2014 22:00:00 12.73333 C 10.68 g/m*3 12.73 C 0 km/h
1962 27-09-2014 23:00:00 12.125 C 10.31 g/m*3 12.13 C 0 km/h
1963 28-09-2014 00:00:00 11.70833 C 10.12 g/m*3 11.71 C 0 km/h
1964 28-09-2014 01:00:00 11.38333 C 9.95 g/m*3 11.38 C 0 km/h
1965 28-09-2014 02:00:00 10.94167 C 9.67 g/m*3 10.94 C 0 km/h
1966 28-09-2014 03:00:00 11 C 9.77 g/m*3 11 C 0 km/h
1967 28-09-2014 04:00:00 10.8 C 9.68 g/m*3 10.8 C 0 km/h
1968 28-09-2014 05:00:00 10.58333 C 9.55 g/m*3 10.58 C 0 km/h
1969 28-09-2014 06:00:00 10.39167 C 9.44 g/m*3 10.39 C 0 km/h
1970 28-09-2014 07:00:00 10.65 C 9.6 g/m*3 10.65 C 0 km/h
1971 28-09-2014 08:00:00 10.775 C 9.67 g/m*3 10.78 C 1.06667 km/h
1972 28-09-2014 09:00:00 11.01667 C 9.82 g/m*3 11.02 C 0.93333 km/h
1973 28-09-2014 10:00:00 12.09167 C 10.54 g/m*3 12.09 C 0.66667 km/h
1974 28-09-2014 11:00:00 13.33333 C 11.37 g/m*3 13.33 C 1.46667 km/h
1975 28-09-2014 12:00:00 15.33333 C 12.38 g/m*3 15.33 C 0.13333 km/h
Sensor: Nr:Datum:Temp:Abs-Feuchte:Windchill:Wind:
Aussen-T/F 1976 28-09-2014 13:00:00 17.55833 C 13.7 g/m*3 17.56 C 0 km/h
1977 28-09-2014 14:00:00 18.53333 C 14.41 g/m*3 18.53 C 0.4 km/h
1978 28-09-2014 15:00:00 19.65833 C 14.88 g/m*3 19.66 C 0.53333 km/h
1979 28-09-2014 16:00:00 19.96667 C 15.03 g/m*3 19.97 C 0.26667 km/h
1980 28-09-2014 17:00:00 19 C 14.69 g/m*3 19 C 1.2 km/h
1981 28-09-2014 18:00:00 18.16667 C 14.23 g/m*3 18.17 C 0.13333 km/h
1982 28-09-2014 19:00:00 16.95833 C 13.51 g/m*3 16.96 C 0.53333 km/h
1983 28-09-2014 20:00:00 16.7 C 13.29 g/m*3 16.7 C 0.8 km/h
1984 28-09-2014 21:00:00 15.78333 C 12.74 g/m*3 15.78 C 0 km/h
1985 28-09-2014 22:00:00 14.88333 C 12.22 g/m*3 14.88 C 0 km/h
1986 28-09-2014 23:00:00 14.24167 C 11.86 g/m*3 14.24 C 0 km/h
1987 29-09-2014 00:00:00 13.75 C 11.52 g/m*3 13.75 C 0 km/h
1988 29-09-2014 01:00:00 13.075 C 11.05 g/m*3 13.08 C 0 km/h
1989 29-09-2014 02:00:00 12.69167 C 10.81 g/m*3 12.69 C 0 km/h
1990 29-09-2014 03:00:00 12.39167 C 10.69 g/m*3 12.39 C 0 km/h
1991 29-09-2014 04:00:00 12.44167 C 10.74 g/m*3 12.44 C 0 km/h
1992 29-09-2014 05:00:00 12.29167 C 10.64 g/m*3 12.29 C 0 km/h
1993 29-09-2014 06:00:00 12.08333 C 10.5 g/m*3 12.08 C 0 km/h
1994 29-09-2014 07:00:00 11.925 C 10.4 g/m*3 11.93 C 0 km/h
1995 29-09-2014 08:00:00 12.275 C 10.64 g/m*3 12.28 C 0 km/h
1996 29-09-2014 09:00:00 12.9 C 11.1 g/m*3 12.9 C 0 km/h
1997 29-09-2014 10:00:00 14.23333 C 12.11 g/m*3 14.23 C 0 km/h
1998 29-09-2014 11:00:00 15.85833 C 13.31 g/m*3 15.86 C 0 km/h
1999 29-09-2014 12:00:00 16.94167 C 13.85 g/m*3 16.94 C 0 km/h
2000 29-09-2014 13:00:00 19.05833 C 14.38 g/m*3 19.06 C 1.2 km/h
Sensor: Nr:Datum:Temp:Abs-Feuchte:Windchill:Wind:
Aussen-T/F 2001 29-09-2014 14:00:00 19.6 C 14.42 g/m*3 19.6 C 2.14167 km/h
2002 29-09-2014 15:00:00 20.35 C 14.63 g/m*3 20.35 C 2 km/h
2003 29-09-2014 16:00:00 19.44167 C 14.61 g/m*3 19.44 C 0.4 km/h
2004 29-09-2014 17:00:00 18.34167 C 14.08 g/m*3 18.34 C 0.4 km/h
2005 29-09-2014 18:00:00 17.65833 C 13.85 g/m*3 17.66 C 0.13333 km/h
2006 29-09-2014 19:00:00 17.18333 C 13.78 g/m*3 17.18 C 0.53333 km/h
2007 29-09-2014 20:00:00 17.01667 C 13.66 g/m*3 17.02 C 1.33333 km/h
2008 29-09-2014 21:00:00 16.4 C 13.45 g/m*3 16.4 C 0.13333 km/h
2009 29-09-2014 22:00:00 16.09167 C 13.29 g/m*3 16.09 C 0 km/h
2010 29-09-2014 23:00:00 15.95833 C 13.28 g/m*3 15.96 C 0 km/h
2011 30-09-2014 00:00:00 15.55833 C 12.96 g/m*3 15.56 C 0 km/h
2012 30-09-2014 01:00:00 15.325 C 12.78 g/m*3 15.33 C 0 km/h
2013 30-09-2014 02:00:00 15.29167 C 12.79 g/m*3 15.29 C 0 km/h
2014 30-09-2014 03:00:00 15.30833 C 12.8 g/m*3 15.31 C 0 km/h
2015 30-09-2014 04:00:00 15.24167 C 12.75 g/m*3 15.24 C 0 km/h
2016 30-09-2014 05:00:00 14.60833 C 12.27 g/m*3 14.61 C 0 km/h
2017 30-09-2014 06:00:00 14.66667 C 12.31 g/m*3 14.67 C 0 km/h
2018 30-09-2014 07:00:00 14.80833 C 12.42 g/m*3 14.81 C 0.53333 km/h
2019 30-09-2014 08:00:00 14.70833 C 12.34 g/m*3 14.71 C 0 km/h
2020 30-09-2014 09:00:00 15.05833 C 12.61 g/m*3 15.06 C 0 km/h
2021 30-09-2014 10:00:00 15.85833 C 13.15 g/m*3 15.86 C 2.275 km/h
2022 30-09-2014 11:00:00 17.725 C 13.62 g/m*3 17.73 C 4.16667 km/h
2023 30-09-2014 12:00:00 19.025 C 13.93 g/m*3 19.02 C 6.45833 km/h
2024 30-09-2014 13:00:00 19.05 C 13.84 g/m*3 19.05 C 3.75833 km/h
2025 30-09-2014 14:00:00 19.8 C 14.09 g/m*3 19.8 C 3.08333 km/h
Sensor: Nr:Datum:Temp:Abs-Feuchte:Windchill:Wind:
Aussen-T/F 2026 30-09-2014 15:00:00 20.38333 C 14.21 g/m*3 20.38 C 5.36667 km/h
2027 30-09-2014 16:00:00 20.41667 C 14.33 g/m*3 20.42 C 1.33333 km/h
2028 30-09-2014 17:00:00 19.91667 C 14.85 g/m*3 19.92 C 0.4 km/h
2029 30-09-2014 18:00:00 18.375 C 14.44 g/m*3 18.38 C 0 km/h
2030 30-09-2014 19:00:00 17.275 C 13.86 g/m*3 17.27 C 0 km/h
2031 30-09-2014 20:00:00 16.94167 C 13.7 g/m*3 16.94 C 0 km/h
2032 30-09-2014 21:00:00 16.70833 C 13.59 g/m*3 16.71 C 0 km/h
2033 30-09-2014 22:00:00 16.2 C 13.23 g/m*3 16.2 C 0 km/h
2034 30-09-2014 23:00:00 15.775 C 13 g/m*3 15.78 C 0 km/h
2035 01-10-2014 00:00:00 15.68333 C 12.97 g/m*3 15.68 C 0 km/h
2036 01-10-2014 01:00:00 15.425 C 12.76 g/m*3 15.43 C 0 km/h
2037 01-10-2014 02:00:00 15.19167 C 12.64 g/m*3 15.19 C 0 km/h
2038 01-10-2014 03:00:00 15.10833 C 12.63 g/m*3 15.11 C 0 km/h
2039 01-10-2014 04:00:00 14.9 C 12.48 g/m*3 14.9 C 0 km/h
2040 01-10-2014 05:00:00 14.75833 C 12.38 g/m*3 14.76 C 0 km/h
2041 01-10-2014 06:00:00 14.6 C 12.26 g/m*3 14.6 C 0 km/h
2042 01-10-2014 07:00:00 14.475 C 12.17 g/m*3 14.48 C 0 km/h
2043 01-10-2014 08:00:00 14.35833 C 12.08 g/m*3 14.36 C 0 km/h
2044 01-10-2014 09:00:00 14.40833 C 12.12 g/m*3 14.41 C 0 km/h
2045 01-10-2014 10:00:00 14.74167 C 12.37 g/m*3 14.74 C 0 km/h
2046 01-10-2014 11:00:00 15.55 C 12.73 g/m*3 15.55 C 0 km/h
2047 01-10-2014 12:00:00 16.36667 C 13.06 g/m*3 16.37 C 0 km/h
2048 01-10-2014 13:00:00 19.2 C 14.25 g/m*3 19.2 C 0 km/h
2049 01-10-2014 14:00:00 19.25 C 14.29 g/m*3 19.25 C 0 km/h
2050 01-10-2014 15:00:00 18.775 C 14.15 g/m*3 18.77 C 0 km/h
Sensor: Nr:Datum:Temp:Abs-Feuchte:Windchill:Wind:
Aussen-T/F 2051 01-10-2014 16:00:00 18.89167 C 14.1 g/m*3 18.89 C 0 km/h
2052 01-10-2014 17:00:00 17.73333 C 13.71 g/m*3 17.73 C 0 km/h
2053 01-10-2014 18:00:00 16.75833 C 13.13 g/m*3 16.76 C 0 km/h
2054 01-10-2014 19:00:00 16.25833 C 12.94 g/m*3 16.26 C 0 km/h
2055 01-10-2014 20:00:00 15.80833 C 12.69 g/m*3 15.81 C 0 km/h
2056 01-10-2014 21:00:00 14.875 C 12.11 g/m*3 14.88 C 0 km/h
2057 01-10-2014 22:00:00 14.16667 C 11.68 g/m*3 14.17 C 0 km/h
2058 01-10-2014 23:00:00 13.78333 C 11.55 g/m*3 13.78 C 0 km/h
2059 02-10-2014 00:00:00 13.5 C 11.35 g/m*3 13.5 C 0 km/h
2060 02-10-2014 01:00:00 13.425 C 11.29 g/m*3 13.43 C 0 km/h
2061 02-10-2014 02:00:00 13.26667 C 11.19 g/m*3 13.27 C 0 km/h
2062 02-10-2014 03:00:00 12.79167 C 10.91 g/m*3 12.79 C 0 km/h
2063 02-10-2014 04:00:00 12.60833 C 10.85 g/m*3 12.61 C 0 km/h
2064 02-10-2014 05:00:00 12.40833 C 10.71 g/m*3 12.41 C 0 km/h
2065 02-10-2014 06:00:00 12.24167 C 10.6 g/m*3 12.24 C 0 km/h
2066 02-10-2014 07:00:00 12.1 C 10.51 g/m*3 12.1 C 0 km/h
2067 02-10-2014 08:00:00 12.18333 C 10.56 g/m*3 12.18 C 0 km/h
2068 02-10-2014 09:00:00 12.34167 C 10.71 g/m*3 12.34 C 0 km/h
2069 02-10-2014 10:00:00 12.71667 C 10.99 g/m*3 12.72 C 0 km/h
2070 02-10-2014 11:00:00 13.36667 C 11.47 g/m*3 13.37 C 0 km/h
2071 02-10-2014 12:00:00 14.40833 C 12.18 g/m*3 14.41 C 0 km/h
2072 02-10-2014 13:00:00 17.19167 C 13.65 g/m*3 17.19 C 0 km/h
2073 02-10-2014 14:00:00 18.13333 C 14.24 g/m*3 18.13 C 0 km/h
2074 02-10-2014 15:00:00 18.325 C 14.11 g/m*3 18.33 C 0 km/h
2075 02-10-2014 16:00:00 18.225 C 14.02 g/m*3 18.23 C 0 km/h
Sensor: Nr:Datum:Temp:Abs-Feuchte:Windchill:Wind:
Aussen-T/F 2076 02-10-2014 17:00:00 17.60833 C 13.77 g/m*3 17.61 C 0 km/h
2077 02-10-2014 18:00:00 16.8 C 13.17 g/m*3 16.8 C 0 km/h
2078 02-10-2014 19:00:00 15.71667 C 12.49 g/m*3 15.72 C 0 km/h
2079 02-10-2014 20:00:00 14.89167 C 12.02 g/m*3 14.89 C 0 km/h
2080 02-10-2014 21:00:00 13.98333 C 11.49 g/m*3 13.98 C 0 km/h
2081 02-10-2014 22:00:00 13.45833 C 11.2 g/m*3 13.46 C 0 km/h
2082 02-10-2014 23:00:00 12.9 C 10.89 g/m*3 12.9 C 0 km/h
2083 03-10-2014 00:00:00 12.55833 C 10.7 g/m*3 12.56 C 0 km/h
2084 03-10-2014 01:00:00 12.03333 C 10.38 g/m*3 12.03 C 0 km/h
2085 03-10-2014 02:00:00 11.63333 C 10.16 g/m*3 11.63 C 0 km/h
2086 03-10-2014 03:00:00 11.73333 C 10.27 g/m*3 11.73 C 0 km/h
2087 03-10-2014 04:00:00 11.90833 C 10.38 g/m*3 11.91 C 0 km/h
2088 03-10-2014 05:00:00 11.975 C 10.43 g/m*3 11.98 C 0 km/h
2089 03-10-2014 06:00:00 11.625 C 10.2 g/m*3 11.63 C 0 km/h
2090 03-10-2014 07:00:00 11.125 C 9.89 g/m*3 11.13 C 0 km/h
2091 03-10-2014 08:00:00 11 C 9.83 g/m*3 11 C 0 km/h
2092 03-10-2014 09:00:00 11.34167 C 10.05 g/m*3 11.34 C 0 km/h
2093 03-10-2014 10:00:00 11.825 C 10.42 g/m*3 11.83 C 0 km/h
2094 03-10-2014 11:00:00 12.85 C 11.12 g/m*3 12.85 C 0 km/h
2095 03-10-2014 12:00:00 13.85 C 11.83 g/m*3 13.85 C 0 km/h
2096 03-10-2014 13:00:00 16.45 C 13.5 g/m*3 16.45 C 0 km/h
2097 03-10-2014 14:00:00 17.90833 C 14.12 g/m*3 17.91 C 0 km/h
2098 03-10-2014 15:00:00 19.15833 C 14.2 g/m*3 19.16 C 1.34167 km/h
2099 03-10-2014 16:00:00 19.18333 C 14.35 g/m*3 19.18 C 0.26667 km/h
2100 03-10-2014 17:00:00 17.60833 C 13.52 g/m*3 17.61 C 0 km/h
Sensor: Nr:Datum:Temp:Abs-Feuchte:Windchill:Wind:
Aussen-T/F 2101 03-10-2014 18:00:00 16.5 C 12.79 g/m*3 16.5 C 0 km/h
2102 03-10-2014 19:00:00 15.00833 C 11.87 g/m*3 15.01 C 0 km/h
2103 03-10-2014 20:00:00 14.19167 C 11.41 g/m*3 14.19 C 0 km/h
2104 03-10-2014 21:00:00 13.325 C 10.89 g/m*3 13.33 C 0.13333 km/h
2105 03-10-2014 22:00:00 12.61667 C 10.54 g/m*3 12.62 C 0 km/h
2106 03-10-2014 23:00:00 12.3 C 10.42 g/m*3 12.3 C 0 km/h
2107 04-10-2014 00:00:00 11.58333 C 9.99 g/m*3 11.58 C 0 km/h
2108 04-10-2014 01:00:00 11.125 C 9.79 g/m*3 11.13 C 0 km/h
2109 04-10-2014 02:00:00 10.69167 C 9.52 g/m*3 10.69 C 0 km/h
2110 04-10-2014 03:00:00 10.48333 C 9.45 g/m*3 10.48 C 0 km/h
2111 04-10-2014 04:00:00 10.49167 C 9.5 g/m*3 10.49 C 0 km/h
2112 04-10-2014 05:00:00 10.18333 C 9.32 g/m*3 10.18 C 0 km/h
2113 04-10-2014 06:00:00 9.94167 C 9.17 g/m*3 9.94 C 0 km/h
2114 04-10-2014 07:00:00 9.9 C 9.15 g/m*3 9.9 C 0 km/h
2115 04-10-2014 08:00:00 9.85833 C 9.13 g/m*3 9.86 C 0 km/h
2116 04-10-2014 09:00:00 10.35833 C 9.5 g/m*3 10.36 C 0 km/h
2117 04-10-2014 10:00:00 11 C 9.89 g/m*3 11 C 0 km/h
2118 04-10-2014 11:00:00 12.03333 C 10.57 g/m*3 12.03 C 0 km/h
2119 04-10-2014 12:00:00 13.5 C 11.58 g/m*3 13.5 C 0 km/h
2120 04-10-2014 13:00:00 16.425 C 12.49 g/m*3 16.43 C 0 km/h
2121 04-10-2014 14:00:00 17.7 C 12.07 g/m*3 17.7 C 0 km/h
2122 04-10-2014 15:00:00 18.8 C 11.6 g/m*3 18.8 C 1.88333 km/h
2123 04-10-2014 16:00:00 18.25 C 12.04 g/m*3 18.25 C 2.4 km/h
2124 04-10-2014 17:00:00 16.45 C 12.14 g/m*3 16.45 C 0.4 km/h
2125 04-10-2014 18:00:00 15.1 C 11.65 g/m*3 15.1 C 0.13333 km/h
Sensor: Nr:Datum:Temp:Abs-Feuchte:Windchill:Wind:
Aussen-T/F 2126 04-10-2014 19:00:00 13.98333 C 10.99 g/m*3 13.98 C 0 km/h
2127 04-10-2014 20:00:00 13.53333 C 10.88 g/m*3 13.53 C 0 km/h
2128 04-10-2014 21:00:00 13.10833 C 10.66 g/m*3 13.11 C 0 km/h
2129 04-10-2014 22:00:00 12.50833 C 10.4 g/m*3 12.51 C 0 km/h
2130 04-10-2014 23:00:00 11.86667 C 10.13 g/m*3 11.87 C 0 km/h
2131 05-10-2014 00:00:00 11.53333 C 9.97 g/m*3 11.53 C 0 km/h
2132 05-10-2014 01:00:00 11.25 C 9.86 g/m*3 11.25 C 0 km/h
2133 05-10-2014 02:00:00 10.91667 C 9.66 g/m*3 10.92 C 0.53333 km/h
2134 05-10-2014 03:00:00 10.71667 C 9.54 g/m*3 10.72 C 0 km/h
2135 05-10-2014 04:00:00 10.69167 C 9.61 g/m*3 10.69 C 0 km/h
2136 05-10-2014 05:00:00 10.975 C 9.79 g/m*3 10.98 C 0 km/h
2137 05-10-2014 06:00:00 10.95833 C 9.78 g/m*3 10.96 C 0 km/h
2138 05-10-2014 07:00:00 10.95 C 9.78 g/m*3 10.95 C 0 km/h
2139 05-10-2014 08:00:00 11.55833 C 10.16 g/m*3 11.56 C 0 km/h
2140 05-10-2014 09:00:00 12.01667 C 10.45 g/m*3 12.02 C 0 km/h
2141 05-10-2014 10:00:00 12.51667 C 10.76 g/m*3 12.52 C 0 km/h
2142 05-10-2014 11:00:00 13.25833 C 10.95 g/m*3 13.26 C 0.53333 km/h
2143 05-10-2014 12:00:00 14.84167 C 11.32 g/m*3 14.84 C 0.66667 km/h
2144 05-10-2014 13:00:00 15.725 C 11.52 g/m*3 15.73 C 2.4 km/h
2145 05-10-2014 14:00:00 15.75 C 11.72 g/m*3 15.75 C 5.225 km/h
2146 05-10-2014 15:00:00 15.81667 C 11.78 g/m*3 15.82 C 3.6 km/h
2147 05-10-2014 16:00:00 15.85833 C 11.73 g/m*3 15.86 C 6.01667 km/h
2148 05-10-2014 17:00:00 15.325 C 11.52 g/m*3 15.33 C 4.54167 km/h
2149 05-10-2014 18:00:00 14.53333 C 11.28 g/m*3 14.53 C 0.93333 km/h
2150 05-10-2014 19:00:00 13.34167 C 10.82 g/m*3 13.34 C 0 km/h
Sensor: Nr:Datum:Temp:Abs-Feuchte:Windchill:Wind:
Aussen-T/F 2151 05-10-2014 20:00:00 13.1 C 10.9 g/m*3 13.1 C 0 km/h
2152 05-10-2014 21:00:00 13.14167 C 10.87 g/m*3 13.14 C 0.13333 km/h
2153 05-10-2014 22:00:00 13.05 C 10.81 g/m*3 13.05 C 0 km/h
2154 05-10-2014 23:00:00 12.75833 C 10.69 g/m*3 12.76 C 0 km/h
2155 06-10-2014 00:00:00 12.53333 C 10.58 g/m*3 12.53 C 0 km/h
2156 06-10-2014 01:00:00 12.33333 C 10.45 g/m*3 12.33 C 0 km/h
2157 06-10-2014 02:00:00 12.20833 C 10.36 g/m*3 12.21 C 0 km/h
2158 06-10-2014 03:00:00 12.2 C 10.36 g/m*3 12.2 C 0 km/h
2159 06-10-2014 04:00:00 12.25833 C 10.4 g/m*3 12.26 C 0 km/h
2160 06-10-2014 05:00:00 12.3 C 10.42 g/m*3 12.3 C 0 km/h
2161 06-10-2014 06:00:00 12.40833 C 10.49 g/m*3 12.41 C 0 km/h
2162 06-10-2014 07:00:00 12.575 C 10.6 g/m*3 12.58 C 0 km/h
2163 06-10-2014 08:00:00 12.84167 C 10.76 g/m*3 12.84 C 0.53333 km/h
2164 06-10-2014 09:00:00 13.35833 C 10.94 g/m*3 13.36 C 2.13333 km/h
2165 06-10-2014 10:00:00 14.04167 C 11.1 g/m*3 14.04 C 5.09167 km/h
2166 06-10-2014 11:00:00 15.025 C 11.49 g/m*3 15.03 C 3.2 km/h
2167 06-10-2014 12:00:00 16.2 C 11.68 g/m*3 16.2 C 4.00833 km/h
2168 06-10-2014 13:00:00 17.31667 C 11.93 g/m*3 17.32 C 5.48333 km/h
2169 06-10-2014 14:00:00 17.73333 C 11.85 g/m*3 17.73 C 6.025 km/h
2170 06-10-2014 15:00:00 18.025 C 11.87 g/m*3 18.02 C 6.7 km/h
2171 06-10-2014 16:00:00 18.5 C 11.97 g/m*3 18.5 C 5.20833 km/h
2172 06-10-2014 17:00:00 17.40833 C 12.05 g/m*3 17.41 C 2.8 km/h
2173 06-10-2014 18:00:00 15.45 C 11.65 g/m*3 15.45 C 1.06667 km/h
2174 06-10-2014 19:00:00 13.83333 C 10.98 g/m*3 13.83 C 0.53333 km/h
2175 06-10-2014 20:00:00 13.16667 C 10.79 g/m*3 13.17 C 0 km/h
Sensor: Nr:Datum:Temp:Abs-Feuchte:Windchill:Wind:
Aussen-T/F 2176 06-10-2014 21:00:00 13.51667 C 11.01 g/m*3 13.52 C 0.66667 km/h
2177 06-10-2014 22:00:00 13.74167 C 11 g/m*3 13.74 C 1.475 km/h
2178 06-10-2014 23:00:00 14.225 C 11.05 g/m*3 14.23 C 3.86667 km/h
2179 07-10-2014 00:00:00 14.15 C 11 g/m*3 14.15 C 3.06667 km/h
2180 07-10-2014 01:00:00 13.96667 C 10.95 g/m*3 13.97 C 3.46667 km/h
2181 07-10-2014 02:00:00 13.85 C 11 g/m*3 13.85 C 2.13333 km/h
2182 07-10-2014 03:00:00 13.44167 C 11.01 g/m*3 13.44 C 2.66667 km/h
2183 07-10-2014 04:00:00 13.3 C 11.07 g/m*3 13.3 C 1.86667 km/h
2184 07-10-2014 05:00:00 13.25833 C 11.14 g/m*3 13.26 C 0.4 km/h
2185 07-10-2014 06:00:00 13.26667 C 11.18 g/m*3 13.27 C 2.26667 km/h
2186 07-10-2014 07:00:00 13.35 C 11.25 g/m*3 13.35 C 1.2 km/h
2187 07-10-2014 08:00:00 13.70833 C 11.56 g/m*3 13.71 C 2.94167 km/h
2188 07-10-2014 09:00:00 14.425 C 12.03 g/m*3 14.43 C 2.13333 km/h
2189 07-10-2014 10:00:00 15.05 C 12.35 g/m*3 15.05 C 7.78333 km/h
2190 07-10-2014 11:00:00 14.925 C 11.82 g/m*3 14.93 C 11.26667 km/h
2191 07-10-2014 12:00:00 14.80833 C 11.61 g/m*3 14.81 C 13.7 km/h
2192 07-10-2014 13:00:00 16.05833 C 11.67 g/m*3 16.06 C 14.36667 km/h
2193 07-10-2014 14:00:00 16.78333 C 11.32 g/m*3 16.78 C 11.7 km/h
2194 07-10-2014 15:00:00 16.04167 C 11.63 g/m*3 16.04 C 3.625 km/h
2195 07-10-2014 16:00:00 14.40833 C 10.74 g/m*3 14.41 C 7.78333 km/h
2196 07-10-2014 17:00:00 13.1 C 9.8 g/m*3 13.1 C 7.78333 km/h
2197 07-10-2014 18:00:00 12.70833 C 9.99 g/m*3 12.71 C 3.06667 km/h
2198 07-10-2014 19:00:00 12.23333 C 10.04 g/m*3 12.23 C 1.46667 km/h
2199 07-10-2014 20:00:00 12.08333 C 9.93 g/m*3 12.08 C 1.46667 km/h
2200 07-10-2014 21:00:00 11.34167 C 9.74 g/m*3 11.34 C 0.13333 km/h
Sensor: Nr:Datum:Temp:Abs-Feuchte:Windchill:Wind:
Aussen-T/F 2201 07-10-2014 22:00:00 11.33333 C 9.87 g/m*3 11.33 C 0 km/h
2202 07-10-2014 23:00:00 11.64167 C 10.04 g/m*3 11.64 C 1.2 km/h
2203 08-10-2014 00:00:00 11.50833 C 9.96 g/m*3 11.51 C 0.53333 km/h
2204 08-10-2014 01:00:00 11.36667 C 9.94 g/m*3 11.37 C 0 km/h
2205 08-10-2014 02:00:00 11.28333 C 9.88 g/m*3 11.28 C 0 km/h
2206 08-10-2014 03:00:00 11.075 C 9.77 g/m*3 11.08 C 0 km/h
2207 08-10-2014 04:00:00 11.05833 C 9.85 g/m*3 11.06 C 0 km/h
2208 08-10-2014 05:00:00 11.13333 C 9.89 g/m*3 11.13 C 0 km/h
2209 08-10-2014 06:00:00 11.25 C 9.96 g/m*3 11.25 C 0 km/h
2210 08-10-2014 07:00:00 11.34167 C 10.02 g/m*3 11.34 C 0 km/h
2211 08-10-2014 08:00:00 11.775 C 10.3 g/m*3 11.78 C 0 km/h
2212 08-10-2014 09:00:00 12.50833 C 10.78 g/m*3 12.51 C 0 km/h
2213 08-10-2014 10:00:00 13.425 C 11.39 g/m*3 13.43 C 0 km/h
2214 08-10-2014 11:00:00 14.39167 C 11.78 g/m*3 14.39 C 0 km/h
2215 08-10-2014 12:00:00 14.29167 C 11.74 g/m*3 14.29 C 0 km/h
2216 08-10-2014 13:00:00 14.14167 C 11.8 g/m*3 14.14 C 0.93333 km/h
2217 08-10-2014 14:00:00 14.17 C 11.86 g/m*3 14.17 C 0.16 km/h
2218 08-10-2014 15:00:00 15.0625 C 12.61 g/m*3 15.06 C 1.6 km/h
2219 08-10-2014 16:00:00 15.21667 C 12.72 g/m*3 15.22 C 0 km/h
2220 08-10-2014 17:00:00 15.2 C 12.72 g/m*3 15.2 C 0 km/h
2221 08-10-2014 19:00:00 15.25556 C 12.76 g/m*3 15.26 C 0.17778 km/h
2222 08-10-2014 20:00:00 15.16667 C 12.69 g/m*3 15.17 C 0 km/h
2223 08-10-2014 21:00:00 15.26667 C 12.88 g/m*3 15.27 C 0.53333 km/h
2224 08-10-2014 22:00:00 15.85833 C 13.37 g/m*3 15.86 C 0.93333 km/h
2225 08-10-2014 23:00:00 16.16667 C 13.62 g/m*3 16.17 C 0.93333 km/h
Sensor: Nr:Datum:Temp:Abs-Feuchte:Windchill:Wind:
Aussen-T/F 2226 09-10-2014 00:00:00 16.19167 C 13.65 g/m*3 16.19 C 0 km/h
2227 09-10-2014 01:00:00 16.35833 C 13.78 g/m*3 16.36 C 4.28333 km/h
2228 09-10-2014 02:00:00 16.80833 C 13.8 g/m*3 16.81 C 6.43333 km/h
2229 09-10-2014 03:00:00 16.00833 C 13.21 g/m*3 16.01 C 1.86667 km/h
2230 09-10-2014 04:00:00 15.61667 C 12.99 g/m*3 15.62 C 1.2 km/h
2231 09-10-2014 05:00:00 15.55 C 12.99 g/m*3 15.55 C 1.2 km/h
2232 09-10-2014 06:00:00 15.6 C 13.03 g/m*3 15.6 C 0.13333 km/h
2233 09-10-2014 07:00:00 15.61111 C 13.04 g/m*3 15.61 C 0 km/h
2234 09-10-2014 11:00:00 16.9 C 14.24 g/m*3 16.9 C 0 km/h
2235 09-10-2014 12:00:00 16.96 C 14.29 g/m*3 16.96 C 0 km/h
2236 09-10-2014 14:00:00 15.54 C 12.67 g/m*3 15.54 C 7.24 km/h
2237 09-10-2014 15:00:00 15.41667 C 12.65 g/m*3 15.42 C 0.53333 km/h
2238 09-10-2014 16:00:00 15.15 C 12.61 g/m*3 15.15 C 0.94167 km/h
2239 09-10-2014 17:00:00 14.94167 C 12.52 g/m*3 14.94 C 0.53333 km/h
2240 09-10-2014 18:00:00 14.8 C 12.41 g/m*3 14.8 C 0 km/h
2241 09-10-2014 19:00:00 13.625 C 11.55 g/m*3 13.63 C 0 km/h
2242 09-10-2014 20:00:00 13.4 C 11.39 g/m*3 13.4 C 0 km/h
2243 09-10-2014 21:00:00 13.65 C 11.57 g/m*3 13.65 C 0 km/h
2244 09-10-2014 22:00:00 12.88333 C 11.02 g/m*3 12.88 C 1.74167 km/h
2245 09-10-2014 23:00:00 12.375 C 10.69 g/m*3 12.38 C 0 km/h
2246 10-10-2014 00:00:00 12.15833 C 10.55 g/m*3 12.16 C 0 km/h
2247 10-10-2014 01:00:00 12.19167 C 10.57 g/m*3 12.19 C 0 km/h
2248 10-10-2014 02:00:00 12.25833 C 10.61 g/m*3 12.26 C 0 km/h
2249 10-10-2014 03:00:00 12.60833 C 10.86 g/m*3 12.61 C 0 km/h
2250 10-10-2014 04:00:00 12.65833 C 10.92 g/m*3 12.66 C 0 km/h
Sensor: Nr:Datum:Temp:Abs-Feuchte:Windchill:Wind:
Aussen-T/F 2251 10-10-2014 05:00:00 12.725 C 10.99 g/m*3 12.73 C 0 km/h
2252 10-10-2014 06:00:00 12.69167 C 10.91 g/m*3 12.69 C 0.13333 km/h
2253 10-10-2014 07:00:00 12.83333 C 11.1 g/m*3 12.83 C 0 km/h
2254 10-10-2014 10:00:00 14.06667 C 12.01 g/m*3 14.07 C 0 km/h
2255 10-10-2014 11:00:00 14.675 C 12.28 g/m*3 14.68 C 0.93333 km/h
2256 10-10-2014 12:00:00 15.99167 C 12.7 g/m*3 15.99 C 0.53333 km/h
2257 10-10-2014 13:00:00 17.03333 C 12.72 g/m*3 17.03 C 1.46667 km/h
2258 10-10-2014 14:00:00 17.25 C 12.93 g/m*3 17.25 C 2.13333 km/h
2259 10-10-2014 15:00:00 16.40833 C 13.11 g/m*3 16.41 C 0 km/h
2260 10-10-2014 16:00:00 15.95833 C 13 g/m*3 15.96 C 0 km/h
2261 10-10-2014 17:00:00 15.75 C 12.93 g/m*3 15.75 C 0 km/h
2262 10-10-2014 18:00:00 15.10833 C 12.52 g/m*3 15.11 C 0 km/h
2263 10-10-2014 19:00:00 14.35833 C 11.96 g/m*3 14.36 C 0 km/h
2264 10-10-2014 20:00:00 14.13333 C 11.84 g/m*3 14.13 C 0 km/h
2265 10-10-2014 21:00:00 13.81667 C 11.66 g/m*3 13.82 C 0 km/h
2266 10-10-2014 22:00:00 13.79167 C 11.67 g/m*3 13.79 C 0 km/h
2267 10-10-2014 23:00:00 13.71667 C 11.62 g/m*3 13.72 C 0 km/h
2268 11-10-2014 00:00:00 13.83333 C 11.7 g/m*3 13.83 C 0 km/h
2269 11-10-2014 01:00:00 14.01667 C 11.83 g/m*3 14.02 C 0 km/h
2270 11-10-2014 02:00:00 13.49167 C 11.46 g/m*3 13.49 C 0 km/h
2271 11-10-2014 03:00:00 13.48333 C 11.49 g/m*3 13.48 C 0 km/h
2272 11-10-2014 04:00:00 13.56667 C 11.56 g/m*3 13.57 C 0 km/h
2273 11-10-2014 05:00:00 13.61667 C 11.61 g/m*3 13.62 C 0.13333 km/h
2274 11-10-2014 06:00:00 13.24167 C 11.36 g/m*3 13.24 C 0 km/h
2275 11-10-2014 07:00:00 13.55 C 11.62 g/m*3 13.55 C 0 km/h
Sensor: Nr:Datum:Temp:Abs-Feuchte:Windchill:Wind:
Aussen-T/F 2276 11-10-2014 08:00:00 13.66667 C 11.7 g/m*3 13.67 C 0 km/h
2277 11-10-2014 09:00:00 13.98333 C 11.93 g/m*3 13.98 C 0.26667 km/h
2278 11-10-2014 10:00:00 14.13333 C 12.04 g/m*3 14.13 C 0.4 km/h
2279 11-10-2014 11:00:00 14.66667 C 12.34 g/m*3 14.67 C 0 km/h
2280 11-10-2014 12:00:00 15.975 C 13.15 g/m*3 15.98 C 1.06667 km/h
2281 11-10-2014 13:00:00 16.81667 C 13.36 g/m*3 16.82 C 0.4 km/h
2282 11-10-2014 14:00:00 17.16667 C 13.71 g/m*3 17.17 C 1.6 km/h
2283 11-10-2014 15:00:00 17.625 C 13.83 g/m*3 17.63 C 1.33333 km/h
2284 11-10-2014 16:00:00 17.71667 C 13.69 g/m*3 17.72 C 0.4 km/h
2285 11-10-2014 17:00:00 17.06667 C 13.4 g/m*3 17.07 C 0.13333 km/h
2286 11-10-2014 18:00:00 15.85833 C 12.57 g/m*3 15.86 C 0.4 km/h
2287 11-10-2014 19:00:00 14.76667 C 12.09 g/m*3 14.77 C 1.33333 km/h
2288 11-10-2014 20:00:00 14.25833 C 11.76 g/m*3 14.26 C 1.06667 km/h
2289 11-10-2014 21:00:00 14.68333 C 11.62 g/m*3 14.68 C 0.8 km/h
2290 11-10-2014 22:00:00 14.03333 C 11.28 g/m*3 14.03 C 1.73333 km/h
2291 11-10-2014 23:00:00 13.46667 C 10.88 g/m*3 13.47 C 0.4 km/h
2292 12-10-2014 00:00:00 12.2 C 10.4 g/m*3 12.2 C 0 km/h
2293 12-10-2014 01:00:00 11.63333 C 10.1 g/m*3 11.63 C 0 km/h
2294 12-10-2014 02:00:00 11.04167 C 9.75 g/m*3 11.04 C 0 km/h
2295 12-10-2014 03:00:00 10.325 C 9.33 g/m*3 10.33 C 0 km/h
2296 12-10-2014 04:00:00 9.975 C 9.19 g/m*3 9.98 C 0.26667 km/h
2297 12-10-2014 05:00:00 10.24167 C 9.35 g/m*3 10.24 C 0.53333 km/h
2298 12-10-2014 06:00:00 9.975 C 9.19 g/m*3 9.98 C 0.4 km/h
2299 12-10-2014 07:00:00 9.725 C 9.06 g/m*3 9.73 C 0.66667 km/h
2300 12-10-2014 08:00:00 9.70833 C 9.12 g/m*3 9.71 C 1.06667 km/h
Sensor: Nr:Datum:Temp:Abs-Feuchte:Windchill:Wind:
Aussen-T/F 2301 12-10-2014 09:00:00 9.96667 C 9.28 g/m*3 9.97 C 0.4 km/h
2302 12-10-2014 10:00:00 10.5 C 9.6 g/m*3 10.5 C 1.34167 km/h
2303 12-10-2014 11:00:00 11.45 C 10.19 g/m*3 11.45 C 2.80833 km/h
2304 12-10-2014 12:00:00 13.02727 C 10.95 g/m*3 13.03 C 6.12727 km/h
2305 12-10-2014 13:00:00 14.65 C 11.17 g/m*3 14.65 C 4.675 km/h
2306 12-10-2014 14:00:00 15.85 C 11.54 g/m*3 15.85 C 3.2 km/h
2307 12-10-2014 15:00:00 17.04167 C 11.82 g/m*3 17.04 C 5.625 km/h
2308 12-10-2014 16:00:00 16.65 C 12.36 g/m*3 16.65 C 1.6 km/h
2309 12-10-2014 17:00:00 15.75 C 11.89 g/m*3 15.75 C 2.15 km/h
2310 12-10-2014 18:00:00 14.4 C 11.65 g/m*3 14.4 C 0 km/h
2311 12-10-2014 19:00:00 13.7 C 11.44 g/m*3 13.7 C 0.13333 km/h
2312 12-10-2014 20:00:00 13.625 C 11.51 g/m*3 13.63 C 0.93333 km/h
2313 12-10-2014 21:00:00 13.89167 C 11.74 g/m*3 13.89 C 3.475 km/h
2314 12-10-2014 22:00:00 14.13333 C 11.89 g/m*3 14.13 C 1.33333 km/h
2315 12-10-2014 23:00:00 14.00833 C 11.83 g/m*3 14.01 C 0 km/h
2316 13-10-2014 00:00:00 13.99167 C 11.81 g/m*3 13.99 C 0 km/h
2317 13-10-2014 01:00:00 14.03333 C 11.85 g/m*3 14.03 C 0.13333 km/h
2318 13-10-2014 02:00:00 13.70833 C 11.61 g/m*3 13.71 C 0 km/h
2319 13-10-2014 03:00:00 13.71667 C 11.66 g/m*3 13.72 C 0 km/h
2320 13-10-2014 04:00:00 13.58333 C 11.62 g/m*3 13.58 C 0 km/h
2321 13-10-2014 05:00:00 13.775 C 11.78 g/m*3 13.78 C 0 km/h
2322 13-10-2014 06:00:00 13.91667 C 11.88 g/m*3 13.92 C 0.13333 km/h
2323 13-10-2014 07:00:00 13.8 C 11.8 g/m*3 13.8 C 0 km/h
2324 13-10-2014 08:00:00 13.88333 C 11.86 g/m*3 13.88 C 1.46667 km/h
2325 13-10-2014 09:00:00 14.78333 C 12.53 g/m*3 14.78 C 0.53333 km/h
Sensor: Nr:Datum:Temp:Abs-Feuchte:Windchill:Wind:
Aussen-T/F 2326 13-10-2014 10:00:00 15.54167 C 13.12 g/m*3 15.54 C 0 km/h
2327 13-10-2014 11:00:00 16.075 C 13.55 g/m*3 16.08 C 0.13333 km/h
2328 13-10-2014 12:00:00 16.675 C 14.05 g/m*3 16.68 C 0.66667 km/h
2329 13-10-2014 13:00:00 16.55 C 13.85 g/m*3 16.55 C 0.66667 km/h
2330 13-10-2014 14:00:00 16.925 C 13.95 g/m*3 16.93 C 0.93333 km/h
2331 13-10-2014 15:00:00 18.06667 C 13.56 g/m*3 18.07 C 3.21667 km/h
2332 13-10-2014 16:00:00 17.81667 C 13.04 g/m*3 17.82 C 4.16667 km/h
2333 13-10-2014 17:00:00 16.63333 C 12.98 g/m*3 16.63 C 0.93333 km/h
2334 13-10-2014 18:00:00 14.94167 C 12.12 g/m*3 14.94 C 0.13333 km/h
2335 13-10-2014 19:00:00 13.9 C 11.51 g/m*3 13.9 C 0.13333 km/h
2336 13-10-2014 20:00:00 13.325 C 11.11 g/m*3 13.33 C 0.26667 km/h
2337 13-10-2014 21:00:00 13.05 C 11.03 g/m*3 13.05 C 0.66667 km/h
2338 13-10-2014 22:00:00 12.55833 C 10.7 g/m*3 12.56 C 0 km/h
2339 13-10-2014 23:00:00 12.03333 C 10.42 g/m*3 12.03 C 0 km/h
2340 14-10-2014 00:00:00 11.69167 C 10.24 g/m*3 11.69 C 0 km/h
2341 14-10-2014 01:00:00 11.425 C 10.07 g/m*3 11.43 C 0 km/h
2342 14-10-2014 02:00:00 10.825 C 9.7 g/m*3 10.83 C 0 km/h
2343 14-10-2014 03:00:00 10.45 C 9.47 g/m*3 10.45 C 0 km/h
2344 14-10-2014 04:00:00 10.075 C 9.25 g/m*3 10.07 C 0 km/h
2345 14-10-2014 05:00:00 10.075 C 9.28 g/m*3 10.07 C 0.13333 km/h
2346 14-10-2014 06:00:00 10.275 C 9.46 g/m*3 10.28 C 0 km/h
2347 14-10-2014 07:00:00 10.29167 C 9.48 g/m*3 10.29 C 0 km/h
2348 14-10-2014 08:00:00 10.13333 C 9.37 g/m*3 10.13 C 0.93333 km/h
2349 14-10-2014 09:00:00 10.60833 C 9.67 g/m*3 10.61 C 0 km/h
2350 14-10-2014 10:00:00 11.6 C 10.29 g/m*3 11.6 C 0.4 km/h
Sensor: Nr:Datum:Temp:Abs-Feuchte:Windchill:Wind:
Aussen-T/F 2351 14-10-2014 11:00:00 12.775 C 11.07 g/m*3 12.78 C 0.26667 km/h
2352 14-10-2014 12:00:00 14.19167 C 11.88 g/m*3 14.19 C 0.66667 km/h
2353 14-10-2014 13:00:00 15.51667 C 12.37 g/m*3 15.52 C 1.34167 km/h
2354 14-10-2014 14:00:00 16.8 C 12.1 g/m*3 16.8 C 3.61667 km/h
2355 14-10-2014 15:00:00 17.25833 C 12.05 g/m*3 17.26 C 4.43333 km/h
2356 14-10-2014 16:00:00 17.23333 C 11.92 g/m*3 17.23 C 3.88333 km/h
2357 14-10-2014 17:00:00 15.65833 C 11.76 g/m*3 15.66 C 0.53333 km/h
2358 14-10-2014 18:00:00 14.10833 C 11.31 g/m*3 14.11 C 0.4 km/h
2359 14-10-2014 19:00:00 13.13333 C 10.82 g/m*3 13.13 C 0 km/h
2360 14-10-2014 20:00:00 12.37273 C 10.47 g/m*3 12.37 C 0 km/h
2361 14-10-2014 21:00:00 11.78333 C 10.18 g/m*3 11.78 C 0 km/h
2362 14-10-2014 22:00:00 11.44167 C 9.98 g/m*3 11.44 C 0 km/h
2363 14-10-2014 23:00:00 11.34167 C 10.01 g/m*3 11.34 C 0 km/h
2364 15-10-2014 00:00:00 11.45833 C 10.1 g/m*3 11.46 C 0.4 km/h
2365 15-10-2014 01:00:00 11.33333 C 10.02 g/m*3 11.33 C 1.46667 km/h
2366 15-10-2014 02:00:00 11.2 C 9.93 g/m*3 11.2 C 2.53333 km/h
2367 15-10-2014 03:00:00 11.025 C 9.82 g/m*3 11.03 C 0.66667 km/h
2368 15-10-2014 04:00:00 10.73333 C 9.62 g/m*3 10.73 C 0.4 km/h
2369 15-10-2014 05:00:00 10.09167 C 9.19 g/m*3 10.09 C 0.4 km/h
2370 15-10-2014 06:00:00 9.36667 C 8.77 g/m*3 9.37 C 1.86667 km/h
2371 15-10-2014 07:00:00 9.225 C 8.77 g/m*3 8.81 C 5.21667 km/h
2372 15-10-2014 08:00:00 9.28333 C 8.8 g/m*3 8.92 C 5.08333 km/h
2373 15-10-2014 09:00:00 9.40833 C 8.87 g/m*3 9.41 C 3.06667 km/h
2374 15-10-2014 10:00:00 9.5 C 8.92 g/m*3 9.5 C 0.93333 km/h
2375 15-10-2014 11:00:00 10.51667 C 9.56 g/m*3 10.52 C 0.26667 km/h
Sensor: Nr:Datum:Temp:Abs-Feuchte:Windchill:Wind:
Aussen-T/F 2376 15-10-2014 12:00:00 12.375 C 10.46 g/m*3 12.38 C 2.14167 km/h
2377 15-10-2014 13:00:00 14.18333 C 10.87 g/m*3 14.18 C 0.66667 km/h
2378 15-10-2014 14:00:00 15.30833 C 10.79 g/m*3 15.31 C 3.75833 km/h
2379 15-10-2014 15:00:00 14.58333 C 11.16 g/m*3 14.58 C 0 km/h
2380 15-10-2014 16:00:00 14.52 C 11.32 g/m*3 14.52 C 0.16 km/h
2381 15-10-2014 17:00:00 14.3 C 11.4 g/m*3 14.3 C 0 km/h
2382 15-10-2014 19:00:00 12.88333 C 10.58 g/m*3 12.88 C 0 km/h
2383 15-10-2014 20:00:00 12.50833 C 10.41 g/m*3 12.51 C 0 km/h
2384 15-10-2014 21:00:00 12.31667 C 10.33 g/m*3 12.32 C 0 km/h
2385 15-10-2014 22:00:00 12.1 C 10.29 g/m*3 12.1 C 0 km/h
2386 15-10-2014 23:00:00 12.11667 C 10.39 g/m*3 12.12 C 0 km/h
2387 16-10-2014 00:00:00 12.425 C 10.65 g/m*3 12.43 C 0.4 km/h
2388 16-10-2014 01:00:00 12.65833 C 10.88 g/m*3 12.66 C 0 km/h
2389 16-10-2014 02:00:00 12.575 C 10.82 g/m*3 12.58 C 0.13333 km/h
2390 16-10-2014 03:00:00 12.475 C 10.76 g/m*3 12.48 C 0 km/h
2391 16-10-2014 04:00:00 12.4 C 10.71 g/m*3 12.4 C 0.13333 km/h
2392 16-10-2014 05:00:00 12.625 C 10.86 g/m*3 12.63 C 0 km/h
2393 16-10-2014 06:00:00 12.69167 C 10.97 g/m*3 12.69 C 0 km/h
2394 16-10-2014 07:00:00 12.81667 C 11.1 g/m*3 12.82 C 0 km/h
2395 16-10-2014 10:00:00 14.46667 C 12.08 g/m*3 14.47 C 4.26667 km/h
2396 16-10-2014 11:00:00 16.00909 C 12.37 g/m*3 16.01 C 7.90909 km/h
2397 16-10-2014 12:00:00 16.45 C 12.46 g/m*3 16.45 C 3.8 km/h
2398 16-10-2014 13:00:00 15.58182 C 12.51 g/m*3 15.58 C 3.5 km/h
2399 16-10-2014 14:00:00 16.55 C 12.98 g/m*3 16.55 C 3.46667 km/h
2400 16-10-2014 15:00:00 16.4 C 12.7 g/m*3 16.4 C 5.65 km/h
Sensor: Nr:Datum:Temp:Abs-Feuchte:Windchill:Wind:
Aussen-T/F 2401 16-10-2014 16:00:00 17 C 12.43 g/m*3 17 C 4.1 km/h
2402 16-10-2014 17:00:00 16.66 C 12.38 g/m*3 16.66 C 2.56 km/h
2403 16-10-2014 18:00:00 15.5125 C 11.99 g/m*3 15.51 C 1.6 km/h
2404 16-10-2014 19:00:00 14.625 C 11.94 g/m*3 14.63 C 0.2 km/h
2405 16-10-2014 20:00:00 14.55833 C 11.76 g/m*3 14.56 C 0.13333 km/h
2406 16-10-2014 21:00:00 14.33333 C 11.53 g/m*3 14.33 C 0 km/h
2407 16-10-2014 22:00:00 13.35833 C 11.13 g/m*3 13.36 C 0 km/h
2408 16-10-2014 23:00:00 12.96667 C 10.98 g/m*3 12.97 C 0 km/h
2409 17-10-2014 00:00:00 12.79167 C 10.92 g/m*3 12.79 C 0 km/h
2410 17-10-2014 01:00:00 12.83333 C 11 g/m*3 12.83 C 0 km/h
2411 17-10-2014 02:00:00 12.825 C 10.99 g/m*3 12.83 C 0 km/h
2412 17-10-2014 03:00:00 12.81667 C 10.99 g/m*3 12.82 C 0 km/h
2413 17-10-2014 04:00:00 12.83333 C 11 g/m*3 12.83 C 0 km/h
2414 17-10-2014 05:00:00 12.9 C 11.05 g/m*3 12.9 C 0 km/h
2415 17-10-2014 06:00:00 13.075 C 11.21 g/m*3 13.08 C 0 km/h
2416 17-10-2014 07:00:00 12.925 C 11.06 g/m*3 12.93 C 0 km/h
2417 17-10-2014 08:00:00 12.86667 C 11.06 g/m*3 12.87 C 0 km/h
2418 17-10-2014 09:00:00 13.70833 C 11.32 g/m*3 13.71 C 4.55833 km/h
2419 17-10-2014 11:00:00 15.1 C 11.83 g/m*3 15.1 C 6.43333 km/h
2420 17-10-2014 12:00:00 15.85833 C 12.1 g/m*3 15.86 C 6.575 km/h
2421 17-10-2014 13:00:00 16.85833 C 12.42 g/m*3 16.86 C 11.025 km/h
2422 17-10-2014 14:00:00 17.13333 C 12.45 g/m*3 17.13 C 10.08333 km/h
2423 17-10-2014 15:00:00 17.075 C 12.25 g/m*3 17.08 C 7.5 km/h
2424 17-10-2014 16:00:00 17.1 C 12.48 g/m*3 17.1 C 4.55833 km/h
2425 17-10-2014 17:00:00 16.49167 C 12.16 g/m*3 16.49 C 2.53333 km/h
Sensor: Nr:Datum:Temp:Abs-Feuchte:Windchill:Wind:
Aussen-T/F 2426 17-10-2014 18:00:00 15.46667 C 11.85 g/m*3 15.47 C 0.66667 km/h
2427 17-10-2014 19:00:00 14.44167 C 11.53 g/m*3 14.44 C 0 km/h
2428 17-10-2014 20:00:00 13.16667 C 10.96 g/m*3 13.17 C 0 km/h
2429 17-10-2014 21:00:00 12.33333 C 10.55 g/m*3 12.33 C 0 km/h
2430 17-10-2014 22:00:00 11.7 C 10.15 g/m*3 11.7 C 0 km/h
2431 17-10-2014 23:00:00 11.25833 C 9.94 g/m*3 11.26 C 0 km/h
2432 18-10-2014 00:00:00 11.1 C 9.87 g/m*3 11.1 C 0 km/h
2433 18-10-2014 01:00:00 10.55 C 9.53 g/m*3 10.55 C 0 km/h
2434 18-10-2014 02:00:00 10.15 C 9.3 g/m*3 10.15 C 0 km/h
2435 18-10-2014 03:00:00 9.775 C 9.08 g/m*3 9.78 C 0 km/h
2436 18-10-2014 04:00:00 9.83333 C 9.11 g/m*3 9.83 C 0 km/h
2437 18-10-2014 05:00:00 9.875 C 9.14 g/m*3 9.88 C 0 km/h
2438 18-10-2014 06:00:00 9.55 C 8.96 g/m*3 9.55 C 0 km/h
2439 18-10-2014 07:00:00 9.925 C 9.23 g/m*3 9.93 C 0 km/h
2440 18-10-2014 08:00:00 10.31667 C 9.49 g/m*3 10.32 C 0 km/h
2441 18-10-2014 09:00:00 10.44167 C 9.57 g/m*3 10.44 C 0 km/h
2442 18-10-2014 10:00:00 10.6 C 9.66 g/m*3 10.6 C 0 km/h
2443 18-10-2014 11:00:00 11.25714 C 10.07 g/m*3 11.26 C 0 km/h
2444 18-10-2014 13:00:00 15.16667 C 12.82 g/m*3 15.17 C 0 km/h
2445 18-10-2014 14:00:00 15.875 C 13.33 g/m*3 15.88 C 0 km/h
2446 18-10-2014 15:00:00 16.45833 C 13.67 g/m*3 16.46 C 0 km/h
2447 18-10-2014 16:00:00 16.75 C 13.72 g/m*3 16.75 C 0 km/h
2448 18-10-2014 17:00:00 16.36667 C 13.37 g/m*3 16.37 C 0 km/h
2449 18-10-2014 18:00:00 15.69167 C 12.79 g/m*3 15.69 C 1.06667 km/h
2450 18-10-2014 19:00:00 15.05 C 12.23 g/m*3 15.05 C 1.73333 km/h
Sensor: Nr:Datum:Temp:Abs-Feuchte:Windchill:Wind:
Aussen-T/F 2451 18-10-2014 20:00:00 14.21667 C 11.81 g/m*3 14.22 C 0.53333 km/h
2452 18-10-2014 21:00:00 13.55833 C 11.43 g/m*3 13.56 C 0 km/h
2453 18-10-2014 22:00:00 13.20833 C 11.26 g/m*3 13.21 C 0 km/h
2454 18-10-2014 23:00:00 12.575 C 10.82 g/m*3 12.58 C 0 km/h
2455 19-10-2014 00:00:00 12.15833 C 10.55 g/m*3 12.16 C 0 km/h
2456 19-10-2014 01:00:00 11.71667 C 10.26 g/m*3 11.72 C 0 km/h
2457 19-10-2014 02:00:00 11.41667 C 10.1 g/m*3 11.42 C 0.26667 km/h
2458 19-10-2014 03:00:00 11.19167 C 9.95 g/m*3 11.19 C 0 km/h
2459 19-10-2014 04:00:00 10.91667 C 9.81 g/m*3 10.92 C 0 km/h
2460 19-10-2014 05:00:00 10.74167 C 9.75 g/m*3 10.74 C 0 km/h
2461 19-10-2014 06:00:00 10.43333 C 9.56 g/m*3 10.43 C 0 km/h
2462 19-10-2014 07:00:00 10.31667 C 9.49 g/m*3 10.32 C 0.13333 km/h
2463 19-10-2014 08:00:00 10.675 C 9.71 g/m*3 10.68 C 0 km/h
2464 19-10-2014 09:00:00 11.05833 C 9.95 g/m*3 11.06 C 0 km/h
2465 19-10-2014 10:00:00 11.55833 C 10.26 g/m*3 11.56 C 0 km/h
2466 19-10-2014 11:00:00 13.34167 C 11.47 g/m*3 13.34 C 0.93333 km/h
2467 19-10-2014 12:00:00 15.36667 C 12.99 g/m*3 15.37 C 6.7 km/h
2468 19-10-2014 13:00:00 18.25 C 14.19 g/m*3 18.25 C 5.75833 km/h
2469 19-10-2014 14:00:00 19.70833 C 14.38 g/m*3 19.71 C 10.89167 km/h
2470 19-10-2014 15:00:00 20.43333 C 14.59 g/m*3 20.43 C 10.2 km/h
2471 19-10-2014 16:00:00 19.74167 C 14.57 g/m*3 19.74 C 5.09167 km/h
2472 19-10-2014 17:00:00 19.98333 C 14.53 g/m*3 19.98 C 6.03333 km/h
2473 19-10-2014 18:00:00 19.5 C 14.25 g/m*3 19.5 C 5.76667 km/h
2474 19-10-2014 19:00:00 18.36667 C 13.92 g/m*3 18.37 C 4.28333 km/h
2475 19-10-2014 20:00:00 18.30833 C 13.75 g/m*3 18.31 C 5.90833 km/h
Sensor: Nr:Datum:Temp:Abs-Feuchte:Windchill:Wind:
Aussen-T/F 2476 19-10-2014 21:00:00 19.21667 C 13.7 g/m*3 19.22 C 12.89167 km/h
2477 19-10-2014 22:00:00 18.925 C 13.74 g/m*3 18.93 C 13.15833 km/h
2478 19-10-2014 23:00:00 19.00833 C 13.89 g/m*3 19.01 C 11.81667 km/h
2479 20-10-2014 00:00:00 17.85833 C 13.81 g/m*3 17.86 C 2.41667 km/h
2480 20-10-2014 01:00:00 18.16667 C 11.88 g/m*3 18.17 C 11.40833 km/h
2481 20-10-2014 02:00:00 16.8 C 11.54 g/m*3 16.8 C 4.41667 km/h
2482 20-10-2014 03:00:00 16.4 C 11.29 g/m*3 16.4 C 4.13333 km/h
2483 20-10-2014 04:00:00 15.29167 C 11.19 g/m*3 15.29 C 2.26667 km/h
2484 20-10-2014 05:00:00 14.85 C 11.12 g/m*3 14.85 C 1.2 km/h
2485 20-10-2014 06:00:00 14.19167 C 11.05 g/m*3 14.19 C 1.2 km/h
2486 20-10-2014 07:00:00 14.2 C 11.22 g/m*3 14.2 C 0.13333 km/h
2487 20-10-2014 08:00:00 13.75833 C 11.13 g/m*3 13.76 C 0.53333 km/h
2488 20-10-2014 09:00:00 14.03333 C 11.36 g/m*3 14.03 C 0 km/h
2489 20-10-2014 10:00:00 14.6 C 11.54 g/m*3 14.6 C 1.24444 km/h
2490 20-10-2014 11:00:00 16.35833 C 11.07 g/m*3 16.36 C 9.53333 km/h
2491 20-10-2014 12:00:00 16.88333 C 10.11 g/m*3 16.88 C 10.88333 km/h
2492 20-10-2014 13:00:00 17.7 C 10.11 g/m*3 17.7 C 9.275 km/h
2493 20-10-2014 14:00:00 17.40833 C 10.06 g/m*3 17.41 C 7.11667 km/h
2494 20-10-2014 15:00:00 17.325 C 10.2 g/m*3 17.33 C 5.09167 km/h
2495 20-10-2014 16:00:00 17.03333 C 10.25 g/m*3 17.03 C 1.6 km/h
2496 20-10-2014 18:00:00 13.88889 C 10.38 g/m*3 13.89 C 1.95556 km/h
2497 20-10-2014 19:00:00 13.18333 C 9.92 g/m*3 13.18 C 2.13333 km/h
2498 20-10-2014 20:00:00 12.2 C 9.69 g/m*3 12.2 C 0.93333 km/h
2499 20-10-2014 21:00:00 11.59167 C 9.53 g/m*3 11.59 C 1.2 km/h
2500 20-10-2014 22:00:00 11.61667 C 9.52 g/m*3 11.62 C 2.00833 km/h
Sensor: Nr:Datum:Temp:Abs-Feuchte:Windchill:Wind:
Aussen-T/F 2501 20-10-2014 23:00:00 12.11667 C 9.58 g/m*3 12.12 C 2.66667 km/h
2502 21-10-2014 00:00:00 12.375 C 9.5 g/m*3 12.38 C 3.2 km/h
2503 21-10-2014 01:00:00 10.89167 C 9.16 g/m*3 10.89 C 1.74167 km/h
2504 21-10-2014 02:00:00 11.04167 C 9.2 g/m*3 11.04 C 2.13333 km/h
2505 21-10-2014 03:00:00 10.775 C 9.1 g/m*3 10.78 C 3.6 km/h
2506 21-10-2014 04:00:00 10.475 C 9.05 g/m*3 9.5 C 8.33333 km/h
2507 21-10-2014 05:00:00 11.01667 C 9.14 g/m*3 11.02 C 4.80833 km/h
2508 21-10-2014 06:00:00 11.5 C 9.3 g/m*3 11.5 C 6.3 km/h
2509 21-10-2014 07:00:00 11.71667 C 9.35 g/m*3 11.72 C 1.6 km/h
2510 21-10-2014 08:00:00 11.71667 C 9.54 g/m*3 11.72 C 0.66667 km/h
2511 21-10-2014 09:00:00 12.35833 C 9.73 g/m*3 12.36 C 1.6 km/h
2512 21-10-2014 10:00:00 13.2 C 9.67 g/m*3 13.2 C 10.08333 km/h
2513 21-10-2014 11:00:00 13.32222 C 9.71 g/m*3 13.32 C 5.71111 km/h
2514 21-10-2014 12:00:00 14.00833 C 9.53 g/m*3 14.01 C 13.81667 km/h
2515 21-10-2014 13:00:00 14.175 C 9.17 g/m*3 14.18 C 17.05 km/h
2516 21-10-2014 14:00:00 13.79167 C 9.65 g/m*3 13.79 C 19.71667 km/h
2517 21-10-2014 15:00:00 13.54167 C 10.28 g/m*3 13.54 C 12.21667 km/h
2518 21-10-2014 16:00:00 13.70833 C 10.64 g/m*3 13.71 C 7.8 km/h
2519 21-10-2014 17:00:00 13.11667 C 9.87 g/m*3 13.12 C 17.84167 km/h
2520 21-10-2014 18:00:00 11.76667 C 8.38 g/m*3 11.77 C 12.61667 km/h
2521 21-10-2014 19:00:00 11.11667 C 7.79 g/m*3 11.12 C 16.23333 km/h
2522 21-10-2014 20:00:00 10.00833 C 7.1 g/m*3 7.87 C 15.43333 km/h
2523 21-10-2014 21:00:00 9.41667 C 7.09 g/m*3 7.52 C 12.625 km/h
2524 21-10-2014 22:00:00 9.2 C 6.99 g/m*3 7.43 C 11.43333 km/h
2525 21-10-2014 23:00:00 8.98333 C 7.01 g/m*3 6.8 C 13.96667 km/h
Sensor: Nr:Datum:Temp:Abs-Feuchte:Windchill:Wind:
Aussen-T/F 2526 22-10-2014 00:00:00 8.68333 C 7.12 g/m*3 6.84 C 11.28333 km/h
2527 22-10-2014 01:00:00 8.61667 C 6.97 g/m*3 6.46 C 13.16667 km/h
2528 22-10-2014 02:00:00 8.66667 C 7.14 g/m*3 6.15 C 15.96667 km/h
2529 22-10-2014 03:00:00 7.60833 C 7.19 g/m*3 5.79 C 9.94167 km/h
2530 22-10-2014 04:00:00 6.84167 C 6.93 g/m*3 4.66 C 11.025 km/h
2531 22-10-2014 05:00:00 7.01667 C 6.75 g/m*3 4.73 C 11.81667 km/h
2532 22-10-2014 06:00:00 7.21667 C 6.73 g/m*3 4.93 C 12.1 km/h
2533 22-10-2014 07:00:00 7.725 C 6.84 g/m*3 5.35 C 13.3 km/h
2534 22-10-2014 08:00:00 8.2 C 6.95 g/m*3 5.84 C 13.96667 km/h
2535 22-10-2014 09:00:00 7.875 C 7.07 g/m*3 4.94 C 17.83333 km/h
2536 22-10-2014 10:00:00 7.20833 C 7.1 g/m*3 5.23 C 10.35 km/h
2537 22-10-2014 11:00:00 7.725 C 7.46 g/m*3 6.26 C 8.33333 km/h
2538 22-10-2014 12:00:00 8.95833 C 7.59 g/m*3 6.92 C 12.89167 km/h
2539 22-10-2014 13:00:00 9.96667 C 7.67 g/m*3 7.8 C 15.56667 km/h
2540 22-10-2014 14:00:00 10.7 C 7.73 g/m*3 8.51 C 17.43333 km/h
2541 22-10-2014 15:00:00 10.83333 C 7.82 g/m*3 8.57 C 18.50833 km/h
2542 22-10-2014 16:00:00 11.25833 C 7.69 g/m*3 11.26 C 19.575 km/h
2543 22-10-2014 17:00:00 11.03333 C 7.81 g/m*3 11.03 C 15.96667 km/h
2544 22-10-2014 18:00:00 10.425 C 7.93 g/m*3 8.84 C 11.95 km/h
2545 22-10-2014 19:00:00 9.38333 C 8.3 g/m*3 9.38 C 3.48333 km/h
2546 22-10-2014 20:00:00 9.31667 C 8.15 g/m*3 8.44 C 6.95833 km/h
2547 22-10-2014 21:00:00 9.39167 C 8.07 g/m*3 8.69 C 6.31667 km/h
2548 22-10-2014 22:00:00 9.46667 C 8.06 g/m*3 8.67 C 6.71667 km/h
2549 22-10-2014 23:00:00 9.10833 C 8.03 g/m*3 9.11 C 2.4 km/h
2550 23-10-2014 00:00:00 8.79167 C 7.97 g/m*3 8.79 C 1.33333 km/h
Sensor: Nr:Datum:Temp:Abs-Feuchte:Windchill:Wind:
Aussen-T/F 2551 23-10-2014 01:00:00 9.16667 C 8.12 g/m*3 9.17 C 2.00833 km/h
2552 23-10-2014 02:00:00 9.05 C 8.11 g/m*3 9.05 C 0.93333 km/h
2553 23-10-2014 03:00:00 8.95 C 8.06 g/m*3 8.95 C 0.26667 km/h
2554 23-10-2014 04:00:00 9 C 7.88 g/m*3 9 C 0.93333 km/h
2555 23-10-2014 05:00:00 8.05833 C 7.6 g/m*3 8.06 C 0.93333 km/h
2556 23-10-2014 06:00:00 8.44167 C 7.83 g/m*3 8.44 C 0.26667 km/h
2557 23-10-2014 07:00:00 8.58333 C 7.95 g/m*3 8.58 C 0.66667 km/h
2558 23-10-2014 08:00:00 8.65833 C 8.05 g/m*3 8.66 C 0.4 km/h
2559 23-10-2014 09:00:00 9.05 C 8.1 g/m*3 9.05 C 2.26667 km/h
2560 23-10-2014 10:00:00 9.425 C 8.29 g/m*3 9.43 C 4.54167 km/h
2561 23-10-2014 11:00:00 10.24167 C 8.51 g/m*3 9.3 C 7.93333 km/h
2562 23-10-2014 12:00:00 11.15833 C 8.6 g/m*3 11.16 C 11.025 km/h
2563 23-10-2014 13:00:00 12.1 C 8.7 g/m*3 12.1 C 8.625 km/h
2564 23-10-2014 14:00:00 12.55833 C 8.71 g/m*3 12.56 C 7.79167 km/h
2565 23-10-2014 15:00:00 12.84167 C 8.9 g/m*3 12.84 C 4.94167 km/h
2566 23-10-2014 16:00:00 12.65833 C 8.84 g/m*3 12.66 C 5.09167 km/h
2567 23-10-2014 17:00:00 12.125 C 8.91 g/m*3 12.13 C 2.8 km/h
2568 23-10-2014 18:00:00 11.7 C 8.96 g/m*3 11.7 C 2.275 km/h
2569 23-10-2014 19:00:00 11.43333 C 8.97 g/m*3 11.43 C 0.66667 km/h
2570 23-10-2014 20:00:00 11.36667 C 9.02 g/m*3 11.37 C 0.4 km/h
2571 23-10-2014 21:00:00 11.35833 C 9.01 g/m*3 11.36 C 1.73333 km/h
2572 23-10-2014 22:00:00 11.33333 C 8.99 g/m*3 11.33 C 3.48333 km/h
2573 23-10-2014 23:00:00 11.10833 C 9.04 g/m*3 11.11 C 0.13333 km/h
2574 24-10-2014 00:00:00 10.725 C 9.08 g/m*3 10.73 C 0 km/h
2575 24-10-2014 01:00:00 10.675 C 9 g/m*3 10.68 C 0.13333 km/h
Sensor: Nr:Datum:Temp:Abs-Feuchte:Windchill:Wind:
Aussen-T/F 2576 24-10-2014 02:00:00 10.53333 C 8.98 g/m*3 10.53 C 0 km/h
2577 24-10-2014 03:00:00 10.34167 C 8.97 g/m*3 10.34 C 0 km/h
2578 24-10-2014 04:00:00 9.98333 C 8.82 g/m*3 9.98 C 0 km/h
2579 24-10-2014 05:00:00 9.54167 C 8.65 g/m*3 9.54 C 0.13333 km/h
2580 24-10-2014 06:00:00 8.83333 C 8.26 g/m*3 8.83 C 0 km/h
2581 24-10-2014 07:00:00 7.95 C 7.87 g/m*3 7.95 C 0 km/h
2582 24-10-2014 08:00:00 7.575 C 7.72 g/m*3 7.58 C 0 km/h
2583 24-10-2014 09:00:00 7.45 C 7.66 g/m*3 7.45 C 0 km/h
2584 24-10-2014 10:00:00 7.95833 C 7.99 g/m*3 7.96 C 0 km/h
2585 24-10-2014 11:00:00 9.00833 C 8.56 g/m*3 9.01 C 0.13333 km/h
2586 24-10-2014 12:00:00 10.71667 C 9.28 g/m*3 10.72 C 0.66667 km/h
2587 24-10-2014 13:00:00 13.15 C 9.4 g/m*3 13.15 C 4.15 km/h
2588 24-10-2014 14:00:00 14.11667 C 9.24 g/m*3 14.12 C 4.00833 km/h
2589 24-10-2014 15:00:00 14.34167 C 8.95 g/m*3 14.34 C 3.46667 km/h
2590 24-10-2014 16:00:00 13.88333 C 9.14 g/m*3 13.88 C 2 km/h
2591 24-10-2014 17:00:00 12.90833 C 9.19 g/m*3 12.91 C 1.73333 km/h
2592 24-10-2014 18:00:00 11.36667 C 8.89 g/m*3 11.37 C 1.06667 km/h
2593 24-10-2014 19:00:00 11.01667 C 8.97 g/m*3 11.02 C 0.66667 km/h
2594 24-10-2014 20:00:00 10.975 C 9.04 g/m*3 10.98 C 0.53333 km/h
2595 24-10-2014 21:00:00 10.59167 C 9.1 g/m*3 10.59 C 0.26667 km/h
2596 24-10-2014 22:00:00 10.30833 C 9.03 g/m*3 10.31 C 0 km/h
2597 24-10-2014 23:00:00 10.23333 C 9.06 g/m*3 10.23 C 0 km/h
2598 25-10-2014 00:00:00 10.28333 C 9.1 g/m*3 10.28 C 0 km/h
2599 25-10-2014 01:00:00 10.08333 C 9.07 g/m*3 10.08 C 0 km/h
2600 25-10-2014 02:00:00 9.875 C 9 g/m*3 9.88 C 0 km/h
Sensor: Nr:Datum:Temp:Abs-Feuchte:Windchill:Wind:
Aussen-T/F 2601 25-10-2014 03:00:00 10.05 C 9.14 g/m*3 10.05 C 0 km/h
2602 25-10-2014 04:00:00 10.1 C 9.17 g/m*3 10.1 C 0 km/h
2603 25-10-2014 05:00:00 9.96667 C 9.1 g/m*3 9.97 C 0 km/h
2604 25-10-2014 06:00:00 9.85833 C 8.98 g/m*3 9.86 C 0.4 km/h
2605 25-10-2014 07:00:00 9.91667 C 8.99 g/m*3 9.92 C 0 km/h
2606 25-10-2014 08:00:00 9.96667 C 9.1 g/m*3 9.97 C 0.26667 km/h
2607 25-10-2014 09:00:00 10.325 C 9.3 g/m*3 10.33 C 1.2 km/h
2608 25-10-2014 10:00:00 10.975 C 9.63 g/m*3 10.98 C 4.55833 km/h
2609 25-10-2014 11:00:00 11.825 C 9.93 g/m*3 11.83 C 8.60833 km/h
2610 25-10-2014 12:00:00 12.4 C 10.05 g/m*3 12.4 C 6.15 km/h
2611 25-10-2014 13:00:00 13.1 C 10.28 g/m*3 13.1 C 4.13333 km/h
2612 25-10-2014 14:00:00 13.39167 C 10.4 g/m*3 13.39 C 6.44167 km/h
2613 25-10-2014 15:00:00 13.325 C 10.39 g/m*3 13.33 C 6.99167 km/h
2614 25-10-2014 16:00:00 13.28333 C 10.44 g/m*3 13.28 C 2.94167 km/h
2615 25-10-2014 17:00:00 13.14167 C 10.43 g/m*3 13.14 C 1.075 km/h
2616 25-10-2014 18:00:00 12.825 C 10.41 g/m*3 12.83 C 0.93333 km/h
2617 25-10-2014 19:00:00 12.64167 C 10.39 g/m*3 12.64 C 0.66667 km/h
2618 25-10-2014 20:00:00 12.50833 C 10.4 g/m*3 12.51 C 0 km/h
2619 25-10-2014 21:00:00 12.35 C 10.44 g/m*3 12.35 C 0 km/h
2620 25-10-2014 22:00:00 12.26667 C 10.47 g/m*3 12.27 C 0 km/h
2621 25-10-2014 23:00:00 12.275 C 10.52 g/m*3 12.28 C 0.26667 km/h
2622 26-10-2014 00:00:00 12.21667 C 10.51 g/m*3 12.22 C 0 km/h
2623 26-10-2014 01:00:00 12.2 C 10.54 g/m*3 12.2 C 0 km/h
2624 26-10-2014 02:00:00 11.98333 C 10.4 g/m*3 11.98 C 0 km/h
2625 26-10-2014 04:00:00 10.87391 C 9.72 g/m*3 10.87 C 0 km/h
Sensor: Nr:Datum:Temp:Abs-Feuchte:Windchill:Wind:
Aussen-T/F 2626 26-10-2014 05:00:00 11.01538 C 9.82 g/m*3 11.02 C 0 km/h
2627 26-10-2014 06:00:00 10.8 C 9.69 g/m*3 10.8 C 0.13333 km/h
2628 26-10-2014 07:00:00 10.65833 C 9.6 g/m*3 10.66 C 0.8 km/h
2629 26-10-2014 08:00:00 11 C 9.81 g/m*3 11 C 1.33333 km/h
2630 26-10-2014 09:00:00 11.61667 C 10.03 g/m*3 11.62 C 3.2 km/h
2631 26-10-2014 10:00:00 12.18333 C 10.04 g/m*3 12.18 C 4.13333 km/h
2632 26-10-2014 11:00:00 12.50833 C 10.12 g/m*3 12.51 C 0.4 km/h
2633 26-10-2014 12:00:00 13.15 C 10.52 g/m*3 13.15 C 0.13333 km/h
2634 26-10-2014 13:00:00 12.875 C 10.24 g/m*3 12.88 C 0.4 km/h
2635 26-10-2014 14:00:00 13.3 C 10.52 g/m*3 13.3 C 0.26667 km/h
2636 26-10-2014 15:00:00 13.16667 C 10.42 g/m*3 13.17 C 0 km/h
2637 26-10-2014 16:00:00 12.65833 C 10.22 g/m*3 12.66 C 0.26667 km/h
2638 26-10-2014 17:00:00 11.74167 C 9.8 g/m*3 11.74 C 0.4 km/h
2639 26-10-2014 18:00:00 10.95833 C 9.49 g/m*3 10.96 C 0 km/h
2640 26-10-2014 19:00:00 10.25 C 9.16 g/m*3 10.25 C 0 km/h
2641 26-10-2014 20:00:00 9.6 C 8.85 g/m*3 9.6 C 0 km/h
2642 26-10-2014 21:00:00 9.10833 C 8.61 g/m*3 9.11 C 0 km/h
2643 26-10-2014 22:00:00 8.925 C 8.57 g/m*3 8.93 C 0.26667 km/h
2644 26-10-2014 23:00:00 8.875 C 8.56 g/m*3 8.88 C 0.13333 km/h
2645 27-10-2014 00:00:00 8.525 C 8.38 g/m*3 8.53 C 0 km/h
2646 27-10-2014 01:00:00 8.39167 C 8.31 g/m*3 8.39 C 0.13333 km/h
2647 27-10-2014 02:00:00 8.08333 C 8.15 g/m*3 8.08 C 0.13333 km/h
2648 27-10-2014 03:00:00 7.99167 C 8.1 g/m*3 7.99 C 0 km/h
2649 27-10-2014 04:00:00 7.85833 C 8.03 g/m*3 7.86 C 0.53333 km/h
2650 27-10-2014 05:00:00 8.01667 C 8.11 g/m*3 8.02 C 0.8 km/h
Sensor: Nr:Datum:Temp:Abs-Feuchte:Windchill:Wind:
Aussen-T/F 2651 27-10-2014 06:00:00 8.19167 C 8.27 g/m*3 8.19 C 0.13333 km/h
2652 27-10-2014 07:00:00 8.45 C 8.38 g/m*3 8.45 C 0 km/h
2653 27-10-2014 08:00:00 8.71667 C 8.57 g/m*3 8.72 C 1.2 km/h
2654 27-10-2014 09:00:00 8.8 C 8.62 g/m*3 8.8 C 4.53333 km/h
2655 27-10-2014 10:00:00 9.05 C 8.76 g/m*3 9.05 C 3.06667 km/h
2656 27-10-2014 11:00:00 9.8 C 9.19 g/m*3 9.8 C 0.66667 km/h
2657 27-10-2014 12:00:00 10.80833 C 9.79 g/m*3 10.81 C 0.66667 km/h
2658 27-10-2014 13:00:00 11.85 C 9.88 g/m*3 11.85 C 4.81667 km/h
2659 27-10-2014 14:00:00 12.59167 C 9.72 g/m*3 12.59 C 3.46667 km/h
2660 27-10-2014 15:00:00 12.21667 C 9.39 g/m*3 12.22 C 2 km/h
2661 27-10-2014 16:00:00 11.14167 C 8.96 g/m*3 11.14 C 3.475 km/h
2662 27-10-2014 17:00:00 9.86667 C 8.49 g/m*3 9.87 C 1.33333 km/h
2663 27-10-2014 18:00:00 8.4 C 8.06 g/m*3 8.4 C 0 km/h
2664 27-10-2014 19:00:00 8.08333 C 7.99 g/m*3 8.08 C 0 km/h
2665 27-10-2014 20:00:00 8.36667 C 8.21 g/m*3 8.37 C 0 km/h
2666 27-10-2014 21:00:00 8.69167 C 8.38 g/m*3 8.69 C 0 km/h
2667 27-10-2014 22:00:00 8.76667 C 8.37 g/m*3 8.77 C 0.66667 km/h
2668 27-10-2014 23:00:00 8.81667 C 8.36 g/m*3 8.82 C 0 km/h
2669 28-10-2014 00:00:00 8.8 C 8.31 g/m*3 8.8 C 0 km/h
2670 28-10-2014 01:00:00 8.775 C 8.23 g/m*3 8.78 C 1.73333 km/h
2671 28-10-2014 02:00:00 8.75 C 7.92 g/m*3 8.75 C 1.6 km/h
2672 28-10-2014 03:00:00 8.44167 C 7.62 g/m*3 8.44 C 2.26667 km/h
2673 28-10-2014 04:00:00 8.275 C 7.53 g/m*3 8.28 C 1.06667 km/h
2674 28-10-2014 05:00:00 8.11667 C 7.36 g/m*3 8.12 C 2.54167 km/h
2675 28-10-2014 06:00:00 7.93333 C 7.35 g/m*3 7.93 C 1.33333 km/h
Sensor: Nr:Datum:Temp:Abs-Feuchte:Windchill:Wind:
Aussen-T/F 2676 28-10-2014 07:00:00 7.81667 C 7.31 g/m*3 7.82 C 1.46667 km/h
2677 28-10-2014 08:00:00 7.95 C 7.22 g/m*3 7.95 C 1.6 km/h
2678 28-10-2014 09:00:00 8.26667 C 7.26 g/m*3 8.27 C 3.2 km/h
2679 28-10-2014 10:00:00 8.425 C 7.24 g/m*3 8.43 C 3.46667 km/h
2680 28-10-2014 11:00:00 8.425 C 7.14 g/m*3 8.43 C 4.28333 km/h
2681 28-10-2014 12:00:00 8.66667 C 7.17 g/m*3 7.58 C 7.39167 km/h
2682 28-10-2014 13:00:00 8.525 C 7.07 g/m*3 7.73 C 6.15833 km/h
2683 28-10-2014 14:00:00 8.45 C 7.07 g/m*3 7.64 C 6.15833 km/h
2684 28-10-2014 15:00:00 8.31667 C 7.12 g/m*3 8.32 C 3.33333 km/h
2685 28-10-2014 16:00:00 8.05 C 7.06 g/m*3 8.05 C 1.46667 km/h
2686 28-10-2014 17:00:00 7.63333 C 6.98 g/m*3 7.63 C 1.33333 km/h
2687 28-10-2014 18:00:00 6.11667 C 6.69 g/m*3 6.12 C 0 km/h
2688 28-10-2014 19:00:00 5.04167 C 6.42 g/m*3 5.04 C 0.53333 km/h
2689 28-10-2014 20:00:00 6.425 C 6.9 g/m*3 6.43 C 1.73333 km/h
2690 28-10-2014 21:00:00 7.4 C 7.16 g/m*3 7.4 C 1.86667 km/h
2691 28-10-2014 22:00:00 7.8 C 7.22 g/m*3 7.8 C 2.14167 km/h
2692 28-10-2014 23:00:00 8.08333 C 7.37 g/m*3 8.08 C 1.46667 km/h
2693 29-10-2014 00:00:00 8.6 C 7.56 g/m*3 8.6 C 1.33333 km/h
2694 29-10-2014 01:00:00 8.79167 C 7.66 g/m*3 8.79 C 1.46667 km/h
2695 29-10-2014 02:00:00 8.85833 C 7.73 g/m*3 8.86 C 0.13333 km/h
2696 29-10-2014 03:00:00 8.70833 C 7.84 g/m*3 8.71 C 0 km/h
2697 29-10-2014 04:00:00 9.1 C 7.97 g/m*3 9.1 C 1.33333 km/h
2698 29-10-2014 05:00:00 8.6 C 7.73 g/m*3 8.6 C 0.4 km/h
2699 29-10-2014 06:00:00 7.11667 C 7.29 g/m*3 7.12 C 0.13333 km/h
2700 29-10-2014 07:00:00 6.04167 C 6.93 g/m*3 6.04 C 0 km/h
Sensor: Nr:Datum:Temp:Abs-Feuchte:Windchill:Wind:
Aussen-T/F 2701 29-10-2014 08:00:00 5.81667 C 6.9 g/m*3 5.82 C 0 km/h
2702 29-10-2014 09:00:00 6.89167 C 7.45 g/m*3 6.89 C 0.8 km/h
2703 29-10-2014 10:00:00 8.325 C 7.85 g/m*3 8.32 C 3.08333 km/h
2704 29-10-2014 11:00:00 9.74167 C 8.31 g/m*3 9.74 C 2.81667 km/h
2705 29-10-2014 12:00:00 10.14167 C 8.64 g/m*3 10.14 C 0.26667 km/h
2706 29-10-2014 13:00:00 11.775 C 8.95 g/m*3 11.78 C 3.74167 km/h
2707 29-10-2014 14:00:00 12.80833 C 9.09 g/m*3 12.81 C 9.00833 km/h
2708 29-10-2014 15:00:00 12.075 C 8.99 g/m*3 12.08 C 6.70833 km/h
2709 29-10-2014 16:00:00 11.71667 C 8.95 g/m*3 11.72 C 6.025 km/h
2710 29-10-2014 17:00:00 11.14167 C 9.1 g/m*3 11.14 C 0.8 km/h
2711 29-10-2014 18:00:00 10.48333 C 9.22 g/m*3 10.48 C 0 km/h
2712 29-10-2014 19:00:00 10.31667 C 9.26 g/m*3 10.32 C 0 km/h
2713 29-10-2014 20:00:00 10.35 C 9.32 g/m*3 10.35 C 0 km/h
2714 29-10-2014 21:00:00 10.4 C 9.35 g/m*3 10.4 C 0 km/h
2715 29-10-2014 22:00:00 10.35 C 9.32 g/m*3 10.35 C 0 km/h
2716 29-10-2014 23:00:00 9.98333 C 9.16 g/m*3 9.98 C 0 km/h
2717 30-10-2014 00:00:00 10.35 C 9.42 g/m*3 10.35 C 0 km/h
2718 30-10-2014 01:00:00 10.4 C 9.44 g/m*3 10.4 C 0 km/h
2719 30-10-2014 02:00:00 10.55 C 9.53 g/m*3 10.55 C 0.13333 km/h
2720 30-10-2014 03:00:00 10.6 C 9.57 g/m*3 10.6 C 0.13333 km/h
2721 30-10-2014 04:00:00 10.6 C 9.57 g/m*3 10.6 C 0 km/h
2722 30-10-2014 05:00:00 10.7 C 9.63 g/m*3 10.7 C 0 km/h
2723 30-10-2014 06:00:00 10.74167 C 9.65 g/m*3 10.74 C 0 km/h
2724 30-10-2014 07:00:00 10.64167 C 9.6 g/m*3 10.64 C 0 km/h
2725 30-10-2014 08:00:00 11 C 9.88 g/m*3 11 C 0 km/h
Sensor: Nr:Datum:Temp:Abs-Feuchte:Windchill:Wind:
Aussen-T/F 2726 30-10-2014 09:00:00 11.40833 C 10.14 g/m*3 11.41 C 0 km/h
2727 30-10-2014 10:00:00 11.85833 C 10.4 g/m*3 11.86 C 0 km/h
2728 30-10-2014 11:00:00 12.74167 C 10.91 g/m*3 12.74 C 0.66667 km/h
2729 30-10-2014 12:00:00 13.74167 C 11.2 g/m*3 13.74 C 0.26667 km/h
2730 30-10-2014 13:00:00 14.575 C 11.44 g/m*3 14.58 C 0.26667 km/h
2731 30-10-2014 14:00:00 15.125 C 11.62 g/m*3 15.13 C 0.53333 km/h
2732 30-10-2014 15:00:00 14.90833 C 11.88 g/m*3 14.91 C 0 km/h
2733 30-10-2014 16:00:00 13.96667 C 11.46 g/m*3 13.97 C 0 km/h
2734 30-10-2014 17:00:00 12.80833 C 10.76 g/m*3 12.81 C 0 km/h
2735 30-10-2014 18:00:00 12.225 C 10.51 g/m*3 12.23 C 0 km/h
2736 30-10-2014 19:00:00 12.58333 C 10.83 g/m*3 12.58 C 0 km/h
2737 30-10-2014 20:00:00 12.73333 C 10.93 g/m*3 12.73 C 0 km/h
2738 30-10-2014 21:00:00 12.33333 C 10.66 g/m*3 12.33 C 0 km/h
2739 30-10-2014 22:00:00 12.11667 C 10.52 g/m*3 12.12 C 0 km/h
2740 30-10-2014 23:00:00 11.84167 C 10.34 g/m*3 11.84 C 0 km/h
2741 31-10-2014 00:00:00 11.68333 C 10.24 g/m*3 11.68 C 0 km/h
2742 31-10-2014 01:00:00 11.16667 C 9.91 g/m*3 11.17 C 0 km/h
2743 31-10-2014 02:00:00 10.55833 C 9.54 g/m*3 10.56 C 0 km/h
2744 31-10-2014 03:00:00 10.35 C 9.42 g/m*3 10.35 C 0.13333 km/h
2745 31-10-2014 04:00:00 10.64167 C 9.61 g/m*3 10.64 C 0 km/h
2746 31-10-2014 05:00:00 10.8 C 9.79 g/m*3 10.8 C 0.53333 km/h
2747 31-10-2014 06:00:00 10.63333 C 9.61 g/m*3 10.63 C 0.13333 km/h
2748 31-10-2014 07:00:00 10.25833 C 9.4 g/m*3 10.26 C 0 km/h
2749 31-10-2014 08:00:00 10.275 C 9.47 g/m*3 10.28 C 0 km/h
2750 31-10-2014 09:00:00 10.69167 C 9.72 g/m*3 10.69 C 0.26667 km/h
Sensor: Nr:Datum:Temp:Abs-Feuchte:Windchill:Wind:
Aussen-T/F 2751 31-10-2014 10:00:00 11.79167 C 10.41 g/m*3 11.79 C 0 km/h
2752 31-10-2014 11:00:00 13.14167 C 11.33 g/m*3 13.14 C 0.26667 km/h
2753 31-10-2014 12:00:00 14.71667 C 12.09 g/m*3 14.72 C 1.06667 km/h
2754 31-10-2014 13:00:00 16.3 C 12.58 g/m*3 16.3 C 0 km/h
2755 31-10-2014 14:00:00 16.21667 C 12.76 g/m*3 16.22 C 0 km/h
2756 31-10-2014 15:00:00 15.85 C 12.69 g/m*3 15.85 C 0 km/h
2757 31-10-2014 16:00:00 14.91667 C 12.06 g/m*3 14.92 C 0 km/h
2758 31-10-2014 17:00:00 13.425 C 11.09 g/m*3 13.43 C 0.13333 km/h
2759 31-10-2014 18:00:00 12.24167 C 10.44 g/m*3 12.24 C 0 km/h
2760 31-10-2014 19:00:00 11.71667 C 10.17 g/m*3 11.72 C 0 km/h
2761 31-10-2014 20:00:00 11.46667 C 10.06 g/m*3 11.47 C 0 km/h
2762 31-10-2014 21:00:00 10.74167 C 9.63 g/m*3 10.74 C 0 km/h
2763 31-10-2014 22:00:00 10.20833 C 9.33 g/m*3 10.21 C 0 km/h
2764 31-10-2014 23:00:00 9.625 C 8.99 g/m*3 9.63 C 0 km/h
2765 01-11-2014 00:00:00 9.51667 C 8.93 g/m*3 9.52 C 0 km/h
2766 01-11-2014 01:00:00 9.55 C 8.95 g/m*3 9.55 C 0.26667 km/h
2767 01-11-2014 02:00:00 9.63333 C 9.03 g/m*3 9.63 C 0 km/h
2768 01-11-2014 03:00:00 9.76667 C 9.17 g/m*3 9.77 C 0 km/h
2769 01-11-2014 04:00:00 9.48333 C 8.94 g/m*3 9.48 C 0.26667 km/h
2770 01-11-2014 05:00:00 9.1 C 8.74 g/m*3 9.1 C 0 km/h
2771 01-11-2014 06:00:00 8.79167 C 8.6 g/m*3 8.79 C 0 km/h
2772 01-11-2014 07:00:00 8.60833 C 8.5 g/m*3 8.61 C 0 km/h
2773 01-11-2014 08:00:00 8.73333 C 8.58 g/m*3 8.73 C 0.26667 km/h
2774 01-11-2014 09:00:00 9.275 C 8.88 g/m*3 9.28 C 0.26667 km/h
2775 01-11-2014 10:00:00 9.95 C 9.27 g/m*3 9.95 C 0.53333 km/h
Sensor: Nr:Datum:Temp:Abs-Feuchte:Windchill:Wind:
Aussen-T/F 2776 01-11-2014 11:00:00 11.13333 C 9.99 g/m*3 11.13 C 0.26667 km/h
2777 01-11-2014 12:00:00 12.14167 C 10.64 g/m*3 12.14 C 0.4 km/h
2778 01-11-2014 13:00:00 13.2 C 11.37 g/m*3 13.2 C 0 km/h
2779 01-11-2014 14:00:00 14.425 C 12.26 g/m*3 14.43 C 0.13333 km/h
2780 01-11-2014 15:00:00 15.275 C 12.88 g/m*3 15.28 C 0 km/h
2781 01-11-2014 16:00:00 14.775 C 12.31 g/m*3 14.78 C 0 km/h
2782 01-11-2014 17:00:00 13.8 C 11.56 g/m*3 13.8 C 0 km/h
2783 01-11-2014 18:00:00 12.74167 C 10.83 g/m*3 12.74 C 0 km/h
2784 01-11-2014 19:00:00 11.75 C 10.18 g/m*3 11.75 C 0 km/h
2785 01-11-2014 20:00:00 11.075 C 9.76 g/m*3 11.08 C 0.13333 km/h
2786 01-11-2014 21:00:00 10.33333 C 9.35 g/m*3 10.33 C 0 km/h
2787 01-11-2014 22:00:00 9.88333 C 9.14 g/m*3 9.88 C 0 km/h
2788 01-11-2014 23:00:00 9.3 C 8.81 g/m*3 9.3 C 0 km/h
2789 02-11-2014 00:00:00 9.04167 C 8.66 g/m*3 9.04 C 0 km/h
2790 02-11-2014 01:00:00 8.9 C 8.58 g/m*3 8.9 C 0 km/h
2791 02-11-2014 02:00:00 8.66667 C 8.46 g/m*3 8.67 C 0 km/h
2792 02-11-2014 03:00:00 8.69167 C 8.47 g/m*3 8.69 C 0 km/h
2793 02-11-2014 04:00:00 8.74167 C 8.53 g/m*3 8.74 C 0 km/h
2794 02-11-2014 05:00:00 8.8 C 8.62 g/m*3 8.8 C 0 km/h
2795 02-11-2014 06:00:00 8.91667 C 8.68 g/m*3 8.92 C 0 km/h
2796 02-11-2014 07:00:00 8.9 C 8.67 g/m*3 8.9 C 0 km/h
2797 02-11-2014 08:00:00 9.20833 C 8.85 g/m*3 9.21 C 0.13333 km/h
2798 02-11-2014 09:00:00 10.11667 C 9.37 g/m*3 10.12 C 0.13333 km/h
2799 02-11-2014 10:00:00 10.65 C 9.69 g/m*3 10.65 C 0 km/h
2800 02-11-2014 11:00:00 11.675 C 10.34 g/m*3 11.68 C 0.53333 km/h
Sensor: Nr:Datum:Temp:Abs-Feuchte:Windchill:Wind:
Aussen-T/F 2801 02-11-2014 12:00:00 12.65833 C 10.81 g/m*3 12.66 C 0.26667 km/h
2802 02-11-2014 13:00:00 13.775 C 11.07 g/m*3 13.78 C 1.46667 km/h
2803 02-11-2014 14:00:00 14.81667 C 11.74 g/m*3 14.82 C 1.2 km/h
2804 02-11-2014 15:00:00 14.85833 C 11.81 g/m*3 14.86 C 0.8 km/h
2805 02-11-2014 16:00:00 13.84167 C 11.32 g/m*3 13.84 C 0 km/h
2806 02-11-2014 17:00:00 12.59167 C 10.64 g/m*3 12.59 C 0.13333 km/h
2807 02-11-2014 18:00:00 12.1 C 10.4 g/m*3 12.1 C 0 km/h
2808 02-11-2014 19:00:00 11.75 C 10.21 g/m*3 11.75 C 0 km/h
2809 02-11-2014 20:00:00 11.59167 C 10.18 g/m*3 11.59 C 0.26667 km/h
2810 02-11-2014 21:00:00 12.2 C 10.58 g/m*3 12.2 C 0.4 km/h
2811 02-11-2014 22:00:00 12.69167 C 10.9 g/m*3 12.69 C 0.93333 km/h
2812 02-11-2014 23:00:00 13.2 C 11.07 g/m*3 13.2 C 1.86667 km/h
2813 03-11-2014 00:00:00 13.45833 C 11.14 g/m*3 13.46 C 2.93333 km/h
2814 03-11-2014 01:00:00 13.38333 C 11.16 g/m*3 13.38 C 1.33333 km/h
2815 03-11-2014 02:00:00 13.55 C 11.27 g/m*3 13.55 C 2.66667 km/h
2816 03-11-2014 03:00:00 13.7 C 11.24 g/m*3 13.7 C 3.08333 km/h
2817 03-11-2014 04:00:00 14.09167 C 11.08 g/m*3 14.09 C 4.425 km/h
2818 03-11-2014 05:00:00 13.375 C 10.68 g/m*3 13.38 C 1.46667 km/h
2819 03-11-2014 06:00:00 13.43333 C 10.51 g/m*3 13.43 C 2.4 km/h
2820 03-11-2014 07:00:00 13.56667 C 10.59 g/m*3 13.57 C 2.26667 km/h
2821 03-11-2014 08:00:00 13.15 C 10.59 g/m*3 13.15 C 4.68333 km/h
2822 03-11-2014 09:00:00 12.68333 C 10.37 g/m*3 12.68 C 3.48333 km/h
2823 03-11-2014 10:00:00 13.05 C 10.86 g/m*3 13.05 C 0 km/h
2824 03-11-2014 11:00:00 13.98333 C 11.55 g/m*3 13.98 C 2.13333 km/h
2825 03-11-2014 12:00:00 15.35 C 11.63 g/m*3 15.35 C 3.06667 km/h
Sensor: Nr:Datum:Temp:Abs-Feuchte:Windchill:Wind:
Aussen-T/F 2826 03-11-2014 13:00:00 16.01667 C 11.42 g/m*3 16.02 C 7.36667 km/h
2827 03-11-2014 14:00:00 16 C 11.1 g/m*3 16 C 7.10833 km/h
2828 03-11-2014 15:00:00 15.45833 C 10.7 g/m*3 15.46 C 8.2 km/h
2829 03-11-2014 16:00:00 14.85 C 10.65 g/m*3 14.85 C 4.4 km/h
2830 03-11-2014 17:00:00 13.7 C 10.3 g/m*3 13.7 C 3.33333 km/h
2831 03-11-2014 18:00:00 13.44167 C 10.06 g/m*3 13.44 C 2.93333 km/h
2832 03-11-2014 19:00:00 13.89167 C 10.09 g/m*3 13.89 C 4.96667 km/h
2833 03-11-2014 20:00:00 14.01667 C 10.2 g/m*3 14.02 C 8.59167 km/h
2834 03-11-2014 21:00:00 13.35833 C 10.32 g/m*3 13.36 C 5.75833 km/h
2835 03-11-2014 22:00:00 12.575 C 10.41 g/m*3 12.58 C 2.94167 km/h
2836 03-11-2014 23:00:00 12.08333 C 10.35 g/m*3 12.08 C 1.46667 km/h
2837 04-11-2014 00:00:00 11.83333 C 10.23 g/m*3 11.83 C 2.4 km/h
2838 04-11-2014 01:00:00 12.125 C 10.39 g/m*3 12.13 C 4.29167 km/h
2839 04-11-2014 02:00:00 11.85 C 10.13 g/m*3 11.85 C 3.74167 km/h
2840 04-11-2014 03:00:00 11.33333 C 9.88 g/m*3 11.33 C 0.93333 km/h
2841 04-11-2014 04:00:00 11.24167 C 9.88 g/m*3 11.24 C 2.94167 km/h
2842 04-11-2014 05:00:00 11.34167 C 9.92 g/m*3 11.34 C 2.95 km/h
2843 04-11-2014 06:00:00 11.24167 C 9.86 g/m*3 11.24 C 2.8 km/h
2844 04-11-2014 07:00:00 11.20833 C 9.87 g/m*3 11.21 C 0.53333 km/h
2845 04-11-2014 08:00:00 11.34167 C 10.02 g/m*3 11.34 C 0 km/h
2846 04-11-2014 09:00:00 11.76667 C 10.28 g/m*3 11.77 C 2.81667 km/h
2847 04-11-2014 10:00:00 12.775 C 10.33 g/m*3 12.78 C 5.23333 km/h
2848 04-11-2014 11:00:00 12.575 C 10.23 g/m*3 12.58 C 1.34167 km/h
2849 04-11-2014 12:00:00 12.35833 C 10.37 g/m*3 12.36 C 0 km/h
2850 04-11-2014 13:00:00 12.325 C 10.21 g/m*3 12.33 C 0.26667 km/h
Sensor: Nr:Datum:Temp:Abs-Feuchte:Windchill:Wind:
Aussen-T/F 2851 04-11-2014 14:00:00 12.06667 C 10.21 g/m*3 12.07 C 0 km/h
2852 04-11-2014 15:00:00 11.7 C 10.13 g/m*3 11.7 C 0.13333 km/h
2853 04-11-2014 16:00:00 11.41667 C 9.97 g/m*3 11.42 C 0 km/h
2854 04-11-2014 17:00:00 10.725 C 9.54 g/m*3 10.73 C 0 km/h
2855 04-11-2014 18:00:00 10.38333 C 9.39 g/m*3 10.38 C 0 km/h
2856 04-11-2014 19:00:00 10.25833 C 9.36 g/m*3 10.26 C 0 km/h
2857 04-11-2014 20:00:00 9.525 C 8.86 g/m*3 9.53 C 0.13333 km/h
2858 04-11-2014 21:00:00 9.3 C 8.77 g/m*3 9.3 C 0 km/h
2859 04-11-2014 22:00:00 9.3 C 8.81 g/m*3 9.3 C 0 km/h
2860 04-11-2014 23:00:00 9.3 C 8.81 g/m*3 9.3 C 0 km/h
2861 05-11-2014 00:00:00 9.3 C 8.81 g/m*3 9.3 C 0 km/h
2862 05-11-2014 01:00:00 9.36667 C 8.84 g/m*3 9.37 C 0 km/h
2863 05-11-2014 02:00:00 9.41667 C 8.87 g/m*3 9.42 C 0.13333 km/h
2864 05-11-2014 03:00:00 9.3 C 8.81 g/m*3 9.3 C 0 km/h
2865 05-11-2014 04:00:00 9.175 C 8.74 g/m*3 9.18 C 0.13333 km/h
2866 05-11-2014 05:00:00 9.075 C 8.68 g/m*3 9.07 C 0 km/h
2867 05-11-2014 06:00:00 8.84167 C 8.55 g/m*3 8.84 C 0 km/h
2868 05-11-2014 07:00:00 8.90833 C 8.6 g/m*3 8.91 C 0 km/h
2869 05-11-2014 08:00:00 8.91667 C 8.59 g/m*3 8.92 C 0 km/h
2870 05-11-2014 09:00:00 8.84167 C 8.55 g/m*3 8.84 C 2.00833 km/h
2871 05-11-2014 10:00:00 9.3 C 8.57 g/m*3 8.85 C 5.35833 km/h
2872 05-11-2014 11:00:00 9.99167 C 8.7 g/m*3 9.28 C 6.725 km/h
2873 05-11-2014 12:00:00 10.49167 C 8.7 g/m*3 9.83 C 6.85 km/h
2874 05-11-2014 13:00:00 10.725 C 8.67 g/m*3 9.9 C 7.78333 km/h
2875 05-11-2014 14:00:00 10.8 C 8.67 g/m*3 10.8 C 2.94167 km/h
Sensor: Nr:Datum:Temp:Abs-Feuchte:Windchill:Wind:
Aussen-T/F 2876 05-11-2014 15:00:00 10.79167 C 8.9 g/m*3 10.79 C 0.66667 km/h
2877 05-11-2014 16:00:00 9.825 C 8.8 g/m*3 9.82 C 0 km/h
2878 05-11-2014 17:00:00 9.26667 C 8.61 g/m*3 9.27 C 0 km/h
2879 05-11-2014 18:00:00 8.9 C 8.45 g/m*3 8.9 C 0.4 km/h
2880 05-11-2014 19:00:00 8.75 C 8.39 g/m*3 8.75 C 0 km/h
2881 05-11-2014 20:00:00 8.60833 C 8.3 g/m*3 8.61 C 0.26667 km/h
2882 05-11-2014 21:00:00 8.625 C 8.21 g/m*3 8.63 C 0.8 km/h
2883 05-11-2014 22:00:00 8.45 C 7.99 g/m*3 8.45 C 2.13333 km/h
2884 05-11-2014 23:00:00 8.30833 C 7.77 g/m*3 8.31 C 2.53333 km/h
2885 06-11-2014 00:00:00 7.625 C 7.52 g/m*3 7.63 C 0.26667 km/h
2886 06-11-2014 01:00:00 7.01667 C 7.34 g/m*3 7.02 C 0.4 km/h
2887 06-11-2014 02:00:00 6.8 C 7.27 g/m*3 6.8 C 0 km/h
2888 06-11-2014 03:00:00 6.71667 C 7.3 g/m*3 6.72 C 0 km/h
2889 06-11-2014 04:00:00 6.6 C 7.24 g/m*3 6.6 C 0 km/h
2890 06-11-2014 05:00:00 6.11667 C 7.01 g/m*3 6.12 C 1.06667 km/h
2891 06-11-2014 06:00:00 5.93333 C 6.88 g/m*3 5.93 C 1.73333 km/h
2892 06-11-2014 07:00:00 5.225 C 6.62 g/m*3 5.23 C 0.13333 km/h
2893 06-11-2014 08:00:00 4.51667 C 6.36 g/m*3 4.52 C 0 km/h
2894 06-11-2014 09:00:00 4.73333 C 6.49 g/m*3 4.73 C 0 km/h
2895 06-11-2014 10:00:00 6.66667 C 7.22 g/m*3 6.67 C 4.025 km/h
2896 06-11-2014 11:00:00 8.61667 C 7.48 g/m*3 8.62 C 4.00833 km/h
2897 06-11-2014 12:00:00 9.2 C 7.59 g/m*3 8.73 C 5.36667 km/h
2898 06-11-2014 13:00:00 8.98333 C 7.6 g/m*3 7.86 C 7.775 km/h
2899 06-11-2014 14:00:00 9.225 C 7.59 g/m*3 7.94 C 8.73333 km/h
2900 06-11-2014 15:00:00 9.29167 C 7.51 g/m*3 9.29 C 4.81667 km/h
Sensor: Nr:Datum:Temp:Abs-Feuchte:Windchill:Wind:
Aussen-T/F 2901 06-11-2014 16:00:00 8.95833 C 7.36 g/m*3 8.38 C 5.625 km/h
2902 06-11-2014 17:00:00 8.11667 C 7.36 g/m*3 8.12 C 1.6 km/h
2903 06-11-2014 18:00:00 6.575 C 6.98 g/m*3 6.58 C 1.46667 km/h
2904 06-11-2014 19:00:00 5.49167 C 6.65 g/m*3 5.49 C 0.26667 km/h
2905 06-11-2014 20:00:00 4.79167 C 6.43 g/m*3 4.79 C 0 km/h
2906 06-11-2014 21:00:00 4.2 C 6.2 g/m*3 4.2 C 0 km/h
2907 06-11-2014 22:00:00 3.625 C 6.01 g/m*3 3.63 C 0 km/h
2908 06-11-2014 23:00:00 3.25833 C 5.87 g/m*3 3.26 C 0 km/h
2909 07-11-2014 00:00:00 3.19167 C 5.85 g/m*3 3.19 C 0.13333 km/h
2910 07-11-2014 01:00:00 3.2 C 5.91 g/m*3 3.2 C 1.2 km/h
2911 07-11-2014 02:00:00 2.725 C 5.72 g/m*3 2.73 C 2.4 km/h
2912 07-11-2014 03:00:00 2.55833 C 5.66 g/m*3 2.56 C 0.4 km/h
2913 07-11-2014 04:00:00 2.44167 C 5.61 g/m*3 2.44 C 0 km/h
2914 07-11-2014 05:00:00 2.59167 C 5.67 g/m*3 2.59 C 0.13333 km/h
2915 07-11-2014 06:00:00 2.60833 C 5.67 g/m*3 2.61 C 0 km/h
2916 07-11-2014 07:00:00 2.15833 C 5.5 g/m*3 2.16 C 0 km/h
2917 07-11-2014 08:00:00 2.675 C 5.73 g/m*3 2.68 C 0 km/h
2918 07-11-2014 09:00:00 3.775 C 6.2 g/m*3 3.78 C 0.66667 km/h
2919 07-11-2014 10:00:00 4.81667 C 6.63 g/m*3 4.82 C 4.95 km/h
2920 07-11-2014 11:00:00 6.01667 C 6.96 g/m*3 6.02 C 3.46667 km/h
2921 07-11-2014 12:00:00 7.325 C 7.1 g/m*3 7.33 C 3.86667 km/h
2922 07-11-2014 13:00:00 8.09167 C 7.22 g/m*3 8.09 C 3.46667 km/h
2923 07-11-2014 14:00:00 8.2 C 7.26 g/m*3 8.2 C 2 km/h
2924 07-11-2014 15:00:00 8.19167 C 7.3 g/m*3 8.19 C 1.73333 km/h
2925 07-11-2014 16:00:00 8.075 C 7.4 g/m*3 8.07 C 1.46667 km/h
Sensor: Nr:Datum:Temp:Abs-Feuchte:Windchill:Wind:
Aussen-T/F 2926 07-11-2014 17:00:00 8.15 C 7.53 g/m*3 8.15 C 2 km/h
2927 07-11-2014 18:00:00 8.1 C 7.82 g/m*3 8.1 C 0.8 km/h
2928 07-11-2014 19:00:00 8.13333 C 7.93 g/m*3 8.13 C 0 km/h
2929 07-11-2014 20:00:00 7.925 C 7.84 g/m*3 7.93 C 1.46667 km/h
2930 07-11-2014 21:00:00 7.60833 C 7.69 g/m*3 7.61 C 0.8 km/h
2931 07-11-2014 22:00:00 7.9 C 7.87 g/m*3 7.9 C 2.80833 km/h
2932 07-11-2014 23:00:00 7.99167 C 7.86 g/m*3 7.99 C 0.4 km/h
2933 08-11-2014 00:00:00 7.18333 C 7.56 g/m*3 7.18 C 0.53333 km/h
2934 08-11-2014 01:00:00 7.49167 C 7.78 g/m*3 7.49 C 0.93333 km/h
2935 08-11-2014 02:00:00 8.80833 C 8.42 g/m*3 8.81 C 1.6 km/h
2936 08-11-2014 03:00:00 9.19167 C 8.37 g/m*3 9.19 C 1.33333 km/h
2937 08-11-2014 04:00:00 8.90833 C 8.32 g/m*3 8.91 C 1.46667 km/h
2938 08-11-2014 05:00:00 9.66667 C 8.44 g/m*3 9.67 C 1.86667 km/h
2939 08-11-2014 06:00:00 9.125 C 8.13 g/m*3 9.13 C 1.46667 km/h
2940 08-11-2014 07:00:00 8.19167 C 7.87 g/m*3 8.19 C 1.33333 km/h
2941 08-11-2014 08:00:00 7.775 C 7.77 g/m*3 7.78 C 1.33333 km/h
2942 08-11-2014 09:00:00 8.55 C 8.03 g/m*3 8.55 C 2.13333 km/h
2943 08-11-2014 10:00:00 9.85 C 7.99 g/m*3 8.68 C 8.74167 km/h
2944 08-11-2014 11:00:00 11.03333 C 8.13 g/m*3 11.03 C 9 km/h
2945 08-11-2014 12:00:00 11.975 C 8.38 g/m*3 11.98 C 5.225 km/h
2946 08-11-2014 13:00:00 12.25833 C 8.84 g/m*3 12.26 C 2.68333 km/h
2947 08-11-2014 14:00:00 12.53333 C 8.93 g/m*3 12.53 C 1.875 km/h
2948 08-11-2014 15:00:00 11.79167 C 8.94 g/m*3 11.79 C 1.33333 km/h
2949 08-11-2014 16:00:00 10.43333 C 8.35 g/m*3 10.43 C 1.875 km/h
2950 08-11-2014 17:00:00 8.325 C 7.84 g/m*3 8.32 C 1.73333 km/h
Sensor: Nr:Datum:Temp:Abs-Feuchte:Windchill:Wind:
Aussen-T/F 2951 08-11-2014 18:00:00 7.64167 C 7.61 g/m*3 7.64 C 2.13333 km/h
2952 08-11-2014 19:00:00 6.975 C 7.37 g/m*3 6.98 C 1.6 km/h
2953 08-11-2014 20:00:00 6.75 C 7.32 g/m*3 6.75 C 0.26667 km/h
2954 08-11-2014 21:00:00 6.45833 C 7.25 g/m*3 6.46 C 0.53333 km/h
2955 08-11-2014 22:00:00 6.55 C 7.3 g/m*3 6.55 C 0.8 km/h
2956 08-11-2014 23:00:00 5.99167 C 7.04 g/m*3 5.99 C 0 km/h
2957 09-11-2014 00:00:00 5.69167 C 6.93 g/m*3 5.69 C 0.13333 km/h
2958 09-11-2014 01:00:00 5.34167 C 6.78 g/m*3 5.34 C 0 km/h
2959 09-11-2014 02:00:00 5.23333 C 6.76 g/m*3 5.23 C 0 km/h
2960 09-11-2014 03:00:00 5.06667 C 6.69 g/m*3 5.07 C 0.26667 km/h
2961 09-11-2014 04:00:00 4.675 C 6.52 g/m*3 4.68 C 0.53333 km/h
2962 09-11-2014 05:00:00 4.40833 C 6.4 g/m*3 4.41 C 0 km/h
2963 09-11-2014 06:00:00 4.125 C 6.28 g/m*3 4.13 C 0.13333 km/h
2964 09-11-2014 07:00:00 3.89167 C 6.19 g/m*3 3.89 C 0 km/h
2965 09-11-2014 08:00:00 4.25833 C 6.34 g/m*3 4.26 C 0 km/h
2966 09-11-2014 09:00:00 4.7 C 6.55 g/m*3 4.7 C 0 km/h
2967 09-11-2014 10:00:00 5.325 C 6.85 g/m*3 5.33 C 0.66667 km/h
2968 09-11-2014 11:00:00 6.075 C 7.22 g/m*3 6.08 C 0.13333 km/h
2969 09-11-2014 12:00:00 7.225 C 7.78 g/m*3 7.23 C 0.4 km/h
2970 09-11-2014 13:00:00 8.6 C 8.51 g/m*3 8.6 C 0.13333 km/h
2971 09-11-2014 14:00:00 9.55 C 8.88 g/m*3 9.55 C 0.53333 km/h
2972 09-11-2014 15:00:00 10.25833 C 8.64 g/m*3 10.26 C 2 km/h
2973 09-11-2014 16:00:00 9.875 C 8.25 g/m*3 9.88 C 1.86667 km/h
2974 09-11-2014 17:00:00 7.91667 C 7.72 g/m*3 7.92 C 0.93333 km/h
2975 09-11-2014 18:00:00 7.78333 C 7.73 g/m*3 7.78 C 1.6 km/h
Sensor: Nr:Datum:Temp:Abs-Feuchte:Windchill:Wind:
Aussen-T/F 2976 09-11-2014 19:00:00 7.45833 C 7.66 g/m*3 7.46 C 0.13333 km/h
2977 09-11-2014 20:00:00 7.83333 C 7.93 g/m*3 7.83 C 0.26667 km/h
2978 09-11-2014 21:00:00 7.875 C 7.93 g/m*3 7.88 C 0.13333 km/h
2979 09-11-2014 22:00:00 7.875 C 7.95 g/m*3 7.88 C 0 km/h
2980 09-11-2014 23:00:00 7.9 C 7.97 g/m*3 7.9 C 0 km/h
2981 10-11-2014 00:00:00 8.08333 C 8.06 g/m*3 8.08 C 0 km/h
2982 10-11-2014 01:00:00 8.05 C 8.05 g/m*3 8.05 C 0 km/h
2983 10-11-2014 02:00:00 7.9 C 8.03 g/m*3 7.9 C 0 km/h
2984 10-11-2014 03:00:00 7.99167 C 8.1 g/m*3 7.99 C 0 km/h
2985 10-11-2014 04:00:00 8.18333 C 8.2 g/m*3 8.18 C 0 km/h
2986 10-11-2014 05:00:00 8.26667 C 8.24 g/m*3 8.27 C 0.4 km/h
2987 10-11-2014 06:00:00 8.44167 C 8.34 g/m*3 8.44 C 0.4 km/h
2988 10-11-2014 07:00:00 8.56667 C 8.4 g/m*3 8.57 C 2.66667 km/h
2989 10-11-2014 08:00:00 8.775 C 8.52 g/m*3 8.78 C 0.4 km/h
2990 10-11-2014 09:00:00 9.3 C 8.81 g/m*3 9.3 C 0.53333 km/h
2991 10-11-2014 10:00:00 9.95833 C 9.17 g/m*3 9.96 C 1.33333 km/h
2992 10-11-2014 11:00:00 10.81667 C 9.39 g/m*3 10.82 C 1.06667 km/h
2993 10-11-2014 12:00:00 11.71667 C 9.54 g/m*3 11.72 C 0.66667 km/h
2994 10-11-2014 13:00:00 11.95833 C 9.48 g/m*3 11.96 C 0.93333 km/h
2995 10-11-2014 14:00:00 11.78333 C 9.64 g/m*3 11.78 C 0.26667 km/h
2996 10-11-2014 15:00:00 11.275 C 9.62 g/m*3 11.28 C 0 km/h
2997 10-11-2014 16:00:00 10.625 C 9.3 g/m*3 10.63 C 2.13333 km/h
2998 10-11-2014 17:00:00 8.90833 C 8.39 g/m*3 8.91 C 3.06667 km/h
2999 10-11-2014 18:00:00 7.925 C 7.94 g/m*3 7.93 C 1.06667 km/h
3000 10-11-2014 19:00:00 7.30833 C 7.67 g/m*3 7.31 C 0.8 km/h
Sensor: Nr:Datum:Temp:Abs-Feuchte:Windchill:Wind:
Aussen-T/F 3001 10-11-2014 20:00:00 6.825 C 7.48 g/m*3 6.83 C 0.8 km/h
3002 10-11-2014 21:00:00 6.50833 C 7.35 g/m*3 6.51 C 0 km/h
3003 10-11-2014 22:00:00 5.85 C 7.04 g/m*3 5.85 C 0 km/h
3004 10-11-2014 23:00:00 5.31667 C 6.8 g/m*3 5.32 C 1.06667 km/h
3005 11-11-2014 00:00:00 5.46667 C 6.87 g/m*3 5.47 C 0.26667 km/h
3006 11-11-2014 01:00:00 5.55833 C 6.92 g/m*3 5.56 C 0 km/h
3007 11-11-2014 02:00:00 6.04167 C 7.17 g/m*3 6.04 C 0 km/h
3008 11-11-2014 03:00:00 6.25 C 7.3 g/m*3 6.25 C 0 km/h
3009 11-11-2014 04:00:00 7.31667 C 7.83 g/m*3 7.32 C 0 km/h
3010 11-11-2014 05:00:00 7.225 C 7.78 g/m*3 7.23 C 0.4 km/h
3011 11-11-2014 06:00:00 7.275 C 7.81 g/m*3 7.28 C 1.2 km/h
3012 11-11-2014 07:00:00 7.725 C 8.04 g/m*3 7.73 C 0.8 km/h
3013 11-11-2014 08:00:00 7.85 C 8.11 g/m*3 7.85 C 0 km/h
3014 11-11-2014 09:00:00 8.54167 C 8.48 g/m*3 8.54 C 0.26667 km/h
3015 11-11-2014 10:00:00 8.81667 C 8.63 g/m*3 8.82 C 2.4 km/h
3016 11-11-2014 11:00:00 9.14286 C 8.86 g/m*3 9.14 C 2.05714 km/h
3017 11-11-2014 12:00:00 10.90909 C 9.12 g/m*3 10.91 C 4.52727 km/h
3018 11-11-2014 13:00:00 11.41667 C 9.08 g/m*3 11.42 C 5.08333 km/h
3019 11-11-2014 14:00:00 11.61667 C 8.95 g/m*3 11.62 C 5.35 km/h
3020 11-11-2014 15:00:00 10.83333 C 8.55 g/m*3 10.29 C 6.58333 km/h
3021 11-11-2014 16:00:00 9.80833 C 8.22 g/m*3 9.81 C 3.46667 km/h
3022 11-11-2014 17:00:00 9.2 C 8.13 g/m*3 9.2 C 0.66667 km/h
3023 11-11-2014 18:00:00 9.04167 C 8.15 g/m*3 9.04 C 0.66667 km/h
3024 11-11-2014 19:00:00 8.85833 C 8.17 g/m*3 8.86 C 0.26667 km/h
3025 11-11-2014 20:00:00 8.8 C 8.17 g/m*3 8.8 C 0.4 km/h
Sensor: Nr:Datum:Temp:Abs-Feuchte:Windchill:Wind:
Aussen-T/F 3026 11-11-2014 21:00:00 8.8 C 8.21 g/m*3 8.8 C 0 km/h
3027 11-11-2014 22:00:00 8.7 C 8.22 g/m*3 8.7 C 0 km/h
3028 11-11-2014 23:00:00 8.7 C 8.2 g/m*3 8.7 C 0 km/h
3029 12-11-2014 00:00:00 8.65 C 8.19 g/m*3 8.65 C 0 km/h
3030 12-11-2014 01:00:00 8.40833 C 8.11 g/m*3 8.41 C 0 km/h
3031 12-11-2014 02:00:00 8.39167 C 8.14 g/m*3 8.39 C 0.26667 km/h
3032 12-11-2014 03:00:00 8.49167 C 8.19 g/m*3 8.49 C 0 km/h
3033 12-11-2014 04:00:00 8.675 C 8.25 g/m*3 8.68 C 0.26667 km/h
3034 12-11-2014 05:00:00 8.7 C 8.22 g/m*3 8.7 C 0.53333 km/h
3035 12-11-2014 06:00:00 8.7 C 8.22 g/m*3 8.7 C 0.13333 km/h
3036 12-11-2014 07:00:00 8.7 C 8.22 g/m*3 8.7 C 0.13333 km/h
3037 12-11-2014 08:00:00 8.9 C 8.26 g/m*3 8.9 C 0.66667 km/h
3038 12-11-2014 09:00:00 9.275 C 8.37 g/m*3 9.28 C 1.33333 km/h
3039 12-11-2014 10:00:00 9.4 C 8.42 g/m*3 9.4 C 2 km/h
3040 12-11-2014 11:00:00 9.63333 C 8.54 g/m*3 9.63 C 0.4 km/h
3041 12-11-2014 12:00:00 10.20833 C 8.8 g/m*3 10.21 C 0.53333 km/h
3042 12-11-2014 13:00:00 10.91667 C 9.06 g/m*3 10.92 C 0.26667 km/h
3043 12-11-2014 14:00:00 11.16667 C 9.27 g/m*3 11.17 C 0 km/h
3044 12-11-2014 15:00:00 10.925 C 9.41 g/m*3 10.93 C 0 km/h
3045 12-11-2014 16:00:00 10.45833 C 9.33 g/m*3 10.46 C 0.13333 km/h
3046 12-11-2014 17:00:00 10.15833 C 9.21 g/m*3 10.16 C 1.33333 km/h
3047 12-11-2014 18:00:00 10.03333 C 9.15 g/m*3 10.03 C 1.06667 km/h
3048 12-11-2014 19:00:00 9.88333 C 9.1 g/m*3 9.88 C 0.13333 km/h
3049 12-11-2014 20:00:00 9.78333 C 9.05 g/m*3 9.78 C 0.53333 km/h
3050 12-11-2014 21:00:00 9.68333 C 9.02 g/m*3 9.68 C 0 km/h
Sensor: Nr:Datum:Temp:Abs-Feuchte:Windchill:Wind:
Aussen-T/F 3051 12-11-2014 22:00:00 9.575 C 8.96 g/m*3 9.57 C 0.26667 km/h
3052 12-11-2014 23:00:00 9.30833 C 8.81 g/m*3 9.31 C 0.26667 km/h
3053 13-11-2014 00:00:00 9.36667 C 8.84 g/m*3 9.37 C 0 km/h
3054 13-11-2014 01:00:00 9.28333 C 8.8 g/m*3 9.28 C 0 km/h
3055 13-11-2014 02:00:00 9.20833 C 8.76 g/m*3 9.21 C 0 km/h
3056 13-11-2014 03:00:00 9.3 C 8.81 g/m*3 9.3 C 0 km/h
3057 13-11-2014 04:00:00 9.10833 C 8.7 g/m*3 9.11 C 0 km/h
3058 13-11-2014 05:00:00 9.00833 C 8.65 g/m*3 9.01 C 1.46667 km/h
3059 13-11-2014 06:00:00 8.975 C 8.64 g/m*3 8.98 C 4.40833 km/h
3060 13-11-2014 07:00:00 8.75 C 8.5 g/m*3 8.75 C 1.46667 km/h
3061 13-11-2014 08:00:00 8.28333 C 8.25 g/m*3 8.28 C 3.06667 km/h
3062 13-11-2014 09:00:00 8.46667 C 8.35 g/m*3 8.47 C 3.88333 km/h
3063 13-11-2014 10:00:00 8.44167 C 8.34 g/m*3 7.32 C 7.4 km/h
3064 13-11-2014 11:00:00 8.88333 C 8.56 g/m*3 8.88 C 3.74167 km/h
3065 13-11-2014 12:00:00 9.79167 C 8.95 g/m*3 9.79 C 2.53333 km/h
3066 13-11-2014 13:00:00 10.36667 C 9.15 g/m*3 10.37 C 0.8 km/h
3067 13-11-2014 14:00:00 10.775 C 9.29 g/m*3 10.78 C 1.6 km/h
3068 13-11-2014 15:00:00 10.8 C 9.29 g/m*3 10.8 C 1.2 km/h
3069 13-11-2014 16:00:00 10.63333 C 9.26 g/m*3 10.63 C 0 km/h
3070 13-11-2014 17:00:00 10.31667 C 9.23 g/m*3 10.32 C 0.8 km/h
3071 13-11-2014 18:00:00 10.3 C 9.28 g/m*3 10.3 C 0.26667 km/h
3072 13-11-2014 19:00:00 10.3 C 9.29 g/m*3 10.3 C 0 km/h
3073 13-11-2014 20:00:00 10.4 C 9.26 g/m*3 10.4 C 0.53333 km/h
3074 13-11-2014 21:00:00 10.525 C 9.19 g/m*3 10.53 C 1.73333 km/h
3075 13-11-2014 22:00:00 10.54167 C 9.1 g/m*3 10.54 C 0.8 km/h
Sensor: Nr:Datum:Temp:Abs-Feuchte:Windchill:Wind:
Aussen-T/F 3076 13-11-2014 23:00:00 10.19167 C 9.07 g/m*3 10.19 C 0.4 km/h
3077 14-11-2014 00:00:00 10.09167 C 9.03 g/m*3 10.09 C 1.06667 km/h
3078 14-11-2014 01:00:00 10.13333 C 8.89 g/m*3 10.13 C 0.93333 km/h
3079 14-11-2014 02:00:00 9.925 C 8.78 g/m*3 9.93 C 1.06667 km/h
3080 14-11-2014 03:00:00 9.9 C 8.7 g/m*3 9.9 C 1.46667 km/h
3081 14-11-2014 04:00:00 9.85833 C 8.58 g/m*3 9.86 C 0.66667 km/h
3082 14-11-2014 05:00:00 9.59167 C 8.6 g/m*3 9.59 C 0 km/h
3083 14-11-2014 06:00:00 9.41667 C 8.54 g/m*3 9.42 C 0 km/h
3084 14-11-2014 07:00:00 9.39167 C 8.59 g/m*3 9.39 C 0.66667 km/h
3085 14-11-2014 08:00:00 9.68333 C 8.78 g/m*3 9.68 C 0 km/h
3086 14-11-2014 09:00:00 10.10833 C 8.96 g/m*3 10.11 C 0 km/h
3087 14-11-2014 10:00:00 10.975 C 9.05 g/m*3 10.98 C 0.4 km/h
3088 14-11-2014 11:00:00 11.925 C 9.1 g/m*3 11.93 C 3.475 km/h
3089 14-11-2014 12:00:00 12.4 C 8.88 g/m*3 12.4 C 6.45 km/h
3090 14-11-2014 13:00:00 12.675 C 8.88 g/m*3 12.68 C 6.30833 km/h
3091 14-11-2014 14:00:00 12.55 C 8.99 g/m*3 12.55 C 3.74167 km/h
3092 14-11-2014 15:00:00 12.08333 C 8.87 g/m*3 12.08 C 2.93333 km/h
3093 14-11-2014 16:00:00 11.11667 C 8.78 g/m*3 11.12 C 2.40833 km/h
3094 14-11-2014 17:00:00 10.225 C 8.59 g/m*3 10.23 C 2.40833 km/h
3095 14-11-2014 18:00:00 10.175 C 8.62 g/m*3 10.18 C 3.20833 km/h
3096 14-11-2014 19:00:00 10.76667 C 8.7 g/m*3 10.6 C 5.08333 km/h
3097 14-11-2014 20:00:00 10.63333 C 8.62 g/m*3 10.45 C 5.09167 km/h
3098 14-11-2014 21:00:00 10.40833 C 8.6 g/m*3 10.41 C 4.68333 km/h
3099 14-11-2014 22:00:00 10.50833 C 8.72 g/m*3 10.16 C 5.6 km/h
3100 14-11-2014 23:00:00 9.9 C 8.75 g/m*3 9.9 C 1.06667 km/h
Sensor: Nr:Datum:Temp:Abs-Feuchte:Windchill:Wind:
Aussen-T/F 3101 15-11-2014 00:00:00 9.38333 C 8.67 g/m*3 9.38 C 0.4 km/h
3102 15-11-2014 01:00:00 8.75 C 8.39 g/m*3 8.75 C 2.4 km/h
3103 15-11-2014 02:00:00 8.10833 C 8.08 g/m*3 8.11 C 1.73333 km/h
3104 15-11-2014 03:00:00 7.86667 C 7.99 g/m*3 7.87 C 0.66667 km/h
3105 15-11-2014 04:00:00 8.1 C 8.15 g/m*3 8.1 C 1.06667 km/h
3106 15-11-2014 05:00:00 8.19167 C 8.2 g/m*3 8.19 C 1.86667 km/h
3107 15-11-2014 06:00:00 8.3 C 8.26 g/m*3 8.3 C 2 km/h
3108 15-11-2014 07:00:00 8.575 C 8.32 g/m*3 8.57 C 1.73333 km/h
3109 15-11-2014 08:00:00 8.75 C 8.42 g/m*3 8.75 C 0.93333 km/h
3110 15-11-2014 09:00:00 9.24167 C 8.57 g/m*3 9.24 C 1.73333 km/h
3111 15-11-2014 10:00:00 10.06667 C 8.59 g/m*3 9.69 C 5.48333 km/h
3112 15-11-2014 11:00:00 10.35 C 8.87 g/m*3 10.35 C 3.06667 km/h
3113 15-11-2014 12:00:00 10.75833 C 8.93 g/m*3 10.76 C 3.74167 km/h
3114 15-11-2014 13:00:00 11.30833 C 9.11 g/m*3 11.31 C 3.46667 km/h
3115 15-11-2014 14:00:00 11.65 C 9.25 g/m*3 11.65 C 3.34167 km/h
3116 15-11-2014 15:00:00 11.50833 C 9.26 g/m*3 11.51 C 2.13333 km/h
3117 15-11-2014 16:00:00 11.1 C 9.28 g/m*3 11.1 C 0.53333 km/h
3118 15-11-2014 17:00:00 10.95 C 9.13 g/m*3 10.95 C 2.13333 km/h
3119 15-11-2014 18:00:00 10.775 C 9.17 g/m*3 10.78 C 0.8 km/h
3120 15-11-2014 19:00:00 10.35833 C 9.13 g/m*3 10.36 C 0.26667 km/h
3121 15-11-2014 20:00:00 10.325 C 9.11 g/m*3 10.33 C 0.13333 km/h
3122 15-11-2014 21:00:00 10.26667 C 9.17 g/m*3 10.27 C 0.26667 km/h
3123 15-11-2014 22:00:00 9.99167 C 9.11 g/m*3 9.99 C 0.8 km/h
3124 15-11-2014 23:00:00 9.55 C 8.86 g/m*3 9.55 C 0.93333 km/h
3125 16-11-2014 00:00:00 9.325 C 8.8 g/m*3 9.32 C 0.13333 km/h
Sensor: Nr:Datum:Temp:Abs-Feuchte:Windchill:Wind:
Aussen-T/F 3126 16-11-2014 01:00:00 9.28333 C 8.8 g/m*3 9.28 C 0.13333 km/h
3127 16-11-2014 02:00:00 9.18333 C 8.74 g/m*3 9.18 C 0.13333 km/h
3128 16-11-2014 03:00:00 8.9 C 8.58 g/m*3 8.9 C 0.13333 km/h
3129 16-11-2014 04:00:00 8.8 C 8.53 g/m*3 8.8 C 2.13333 km/h
3130 16-11-2014 05:00:00 8.725 C 8.42 g/m*3 8.73 C 2.53333 km/h
3131 16-11-2014 06:00:00 8.65833 C 8.37 g/m*3 8.66 C 2.26667 km/h
3132 16-11-2014 07:00:00 8.46667 C 8.26 g/m*3 8.47 C 2.53333 km/h
3133 16-11-2014 08:00:00 8.25 C 8.15 g/m*3 8.25 C 1.06667 km/h
3134 16-11-2014 09:00:00 8.3 C 8.18 g/m*3 8.3 C 0.66667 km/h
3135 16-11-2014 10:00:00 8.43333 C 8.25 g/m*3 8.43 C 0.4 km/h
3136 16-11-2014 11:00:00 8.8 C 8.44 g/m*3 8.8 C 0.13333 km/h
3137 16-11-2014 12:00:00 9.14167 C 8.63 g/m*3 9.14 C 0 km/h
3138 16-11-2014 13:00:00 9.34167 C 8.74 g/m*3 9.34 C 0.53333 km/h
3139 16-11-2014 14:00:00 9.73333 C 8.89 g/m*3 9.73 C 0 km/h
3140 16-11-2014 15:00:00 9.9875 C 9.07 g/m*3 9.99 C 0 km/h
3141 16-11-2014 16:00:00 9.21 C 8.67 g/m*3 9.21 C 0 km/h
3142 16-11-2014 17:00:00 8.60833 C 8.39 g/m*3 8.61 C 0 km/h
3143 16-11-2014 18:00:00 8.775 C 8.52 g/m*3 8.78 C 0 km/h